<?xml version="1.0" encoding="UTF-8"?>
<gpx version="1.1" creator="https://www.www-youtrack-es.amenigma.com" xsi:schemaLocation="http://www.topografix.com/GPX/1/1 http://www.topografix.com/GPX/1/1/gpx.xsd http://www.garmin.com/xmlschemas/GpxExtensions/v3 http://www.garmin.com/xmlschemas/GpxExtensionsv3.xsd http://www.garmin.com/xmlschemas/TrackPointExtension/v1 http://www.garmin.com/xmlschemas/TrackPointExtensionv1.xsd" xmlns:gpxtpx="http://www.garmin.com/xmlschemas/TrackPointExtension/v1" xmlns:gpxx="http://www.garmin.com/xmlschemas/GpxExtensions/v3" xmlns:xsi="http://www.w3.org/2001/XMLSchema-instance">
  <metadata>
    <link href="https://www.www-youtrack-es.amenigma.com">
      <text>YouTrack.es</text>
    </link>
    <time>2026-08-31T06:01:06Z</time>
  </metadata>
  <trk>
    <src>https://www.www-youtrack-es.amenigma.com</src>
    <link href="https://www.www-youtrack-es.amenigma.com/ruta/23331-3--chyanmtang-lobuche">
      <text>YouTrack.es</text>
    </link>
    <trkseg>
      <trkpt lat="27.77295987" lon="87.44134426">
        <ele>2240.0000</ele>
        <time>2010-01-01T00:00:00Z</time>
      </trkpt>
      <trkpt lat="27.77297000" lon="87.44144000">
        <ele>2240.0000</ele>
        <time>2010-01-01T00:00:06Z</time>
      </trkpt>
      <trkpt lat="27.77292000" lon="87.44145000">
        <ele>2238.0000</ele>
        <time>2010-01-01T00:00:10Z</time>
      </trkpt>
      <trkpt lat="27.77279000" lon="87.44164000">
        <ele>2231.0000</ele>
        <time>2010-01-01T00:00:27Z</time>
      </trkpt>
      <trkpt lat="27.77269000" lon="87.44174000">
        <ele>2226.0000</ele>
        <time>2010-01-01T00:00:38Z</time>
      </trkpt>
      <trkpt lat="27.77270000" lon="87.44164000">
        <ele>2229.0000</ele>
        <time>2010-01-01T00:00:45Z</time>
      </trkpt>
      <trkpt lat="27.77273000" lon="87.44155000">
        <ele>2231.0000</ele>
        <time>2010-01-01T00:00:52Z</time>
      </trkpt>
      <trkpt lat="27.77278000" lon="87.44148000">
        <ele>2233.0000</ele>
        <time>2010-01-01T00:00:58Z</time>
      </trkpt>
      <trkpt lat="27.77283000" lon="87.44136000">
        <ele>2236.0000</ele>
        <time>2010-01-01T00:01:08Z</time>
      </trkpt>
      <trkpt lat="27.77283000" lon="87.44125000">
        <ele>2236.0000</ele>
        <time>2010-01-01T00:01:16Z</time>
      </trkpt>
      <trkpt lat="27.77271000" lon="87.44108000">
        <ele>2233.0000</ele>
        <time>2010-01-01T00:01:31Z</time>
      </trkpt>
      <trkpt lat="27.77262000" lon="87.44092000">
        <ele>2230.0000</ele>
        <time>2010-01-01T00:01:44Z</time>
      </trkpt>
      <trkpt lat="27.77251000" lon="87.44093000">
        <ele>2226.0000</ele>
        <time>2010-01-01T00:01:53Z</time>
      </trkpt>
      <trkpt lat="27.77249000" lon="87.44071000">
        <ele>2225.0000</ele>
        <time>2010-01-01T00:02:09Z</time>
      </trkpt>
      <trkpt lat="27.77245000" lon="87.44063000">
        <ele>2224.0000</ele>
        <time>2010-01-01T00:02:15Z</time>
      </trkpt>
      <trkpt lat="27.77244000" lon="87.44019000">
        <ele>2224.0000</ele>
        <time>2010-01-01T00:02:47Z</time>
      </trkpt>
      <trkpt lat="27.77234000" lon="87.43991000">
        <ele>2222.0000</ele>
        <time>2010-01-01T00:03:08Z</time>
      </trkpt>
      <trkpt lat="27.77235000" lon="87.43974000">
        <ele>2224.0000</ele>
        <time>2010-01-01T00:03:20Z</time>
      </trkpt>
      <trkpt lat="27.77240000" lon="87.43944000">
        <ele>2229.0000</ele>
        <time>2010-01-01T00:03:42Z</time>
      </trkpt>
      <trkpt lat="27.77241000" lon="87.43927000">
        <ele>2232.0000</ele>
        <time>2010-01-01T00:03:54Z</time>
      </trkpt>
      <trkpt lat="27.77237000" lon="87.43917000">
        <ele>2232.0000</ele>
        <time>2010-01-01T00:04:02Z</time>
      </trkpt>
      <trkpt lat="27.77206000" lon="87.43859000">
        <ele>2229.0000</ele>
        <time>2010-01-01T00:04:50Z</time>
      </trkpt>
      <trkpt lat="27.77202000" lon="87.43839000">
        <ele>2230.0000</ele>
        <time>2010-01-01T00:05:04Z</time>
      </trkpt>
      <trkpt lat="27.77206000" lon="87.43823000">
        <ele>2234.0000</ele>
        <time>2010-01-01T00:05:16Z</time>
      </trkpt>
      <trkpt lat="27.77194000" lon="87.43781000">
        <ele>2234.0000</ele>
        <time>2010-01-01T00:05:47Z</time>
      </trkpt>
      <trkpt lat="27.77195000" lon="87.43720000">
        <ele>2247.0000</ele>
        <time>2010-01-01T00:06:30Z</time>
      </trkpt>
      <trkpt lat="27.77164000" lon="87.43652000">
        <ele>2238.0000</ele>
        <time>2010-01-01T00:07:25Z</time>
      </trkpt>
      <trkpt lat="27.77155000" lon="87.43588000">
        <ele>2243.0000</ele>
        <time>2010-01-01T00:08:10Z</time>
      </trkpt>
      <trkpt lat="27.77166000" lon="87.43543000">
        <ele>2250.0000</ele>
        <time>2010-01-01T00:08:44Z</time>
      </trkpt>
      <trkpt lat="27.77170000" lon="87.43509000">
        <ele>2256.0000</ele>
        <time>2010-01-01T00:09:08Z</time>
      </trkpt>
      <trkpt lat="27.77170000" lon="87.43475000">
        <ele>2260.0000</ele>
        <time>2010-01-01T00:09:32Z</time>
      </trkpt>
      <trkpt lat="27.77165000" lon="87.43458000">
        <ele>2264.0000</ele>
        <time>2010-01-01T00:09:45Z</time>
      </trkpt>
      <trkpt lat="27.77148000" lon="87.43428000">
        <ele>2269.0000</ele>
        <time>2010-01-01T00:10:10Z</time>
      </trkpt>
      <trkpt lat="27.77143000" lon="87.43412000">
        <ele>2271.0000</ele>
        <time>2010-01-01T00:10:22Z</time>
      </trkpt>
      <trkpt lat="27.77137000" lon="87.43388000">
        <ele>2271.0000</ele>
        <time>2010-01-01T00:10:40Z</time>
      </trkpt>
      <trkpt lat="27.77126000" lon="87.43360000">
        <ele>2270.0000</ele>
        <time>2010-01-01T00:11:01Z</time>
      </trkpt>
      <trkpt lat="27.77117000" lon="87.43330000">
        <ele>2283.0000</ele>
        <time>2010-01-01T00:11:24Z</time>
      </trkpt>
      <trkpt lat="27.77104000" lon="87.43319000">
        <ele>2283.0000</ele>
        <time>2010-01-01T00:11:37Z</time>
      </trkpt>
      <trkpt lat="27.77104000" lon="87.43289000">
        <ele>2296.0000</ele>
        <time>2010-01-01T00:11:58Z</time>
      </trkpt>
      <trkpt lat="27.77115000" lon="87.43272000">
        <ele>2304.0000</ele>
        <time>2010-01-01T00:12:13Z</time>
      </trkpt>
      <trkpt lat="27.77118000" lon="87.43240000">
        <ele>2312.0000</ele>
        <time>2010-01-01T00:12:36Z</time>
      </trkpt>
      <trkpt lat="27.77113000" lon="87.43235000">
        <ele>2314.0000</ele>
        <time>2010-01-01T00:12:41Z</time>
      </trkpt>
      <trkpt lat="27.77092000" lon="87.43244000">
        <ele>2312.0000</ele>
        <time>2010-01-01T00:12:59Z</time>
      </trkpt>
      <trkpt lat="27.77089000" lon="87.43234000">
        <ele>2314.0000</ele>
        <time>2010-01-01T00:13:06Z</time>
      </trkpt>
      <trkpt lat="27.77096000" lon="87.43214000">
        <ele>2317.0000</ele>
        <time>2010-01-01T00:13:22Z</time>
      </trkpt>
      <trkpt lat="27.77075000" lon="87.43227000">
        <ele>2313.0000</ele>
        <time>2010-01-01T00:13:41Z</time>
      </trkpt>
      <trkpt lat="27.77065000" lon="87.43227000">
        <ele>2309.0000</ele>
        <time>2010-01-01T00:13:49Z</time>
      </trkpt>
      <trkpt lat="27.77057000" lon="87.43207000">
        <ele>2311.0000</ele>
        <time>2010-01-01T00:14:04Z</time>
      </trkpt>
      <trkpt lat="27.77032000" lon="87.43166000">
        <ele>2311.0000</ele>
        <time>2010-01-01T00:14:40Z</time>
      </trkpt>
      <trkpt lat="27.77009000" lon="87.43113000">
        <ele>2316.0000</ele>
        <time>2010-01-01T00:15:21Z</time>
      </trkpt>
      <trkpt lat="27.77003000" lon="87.43091000">
        <ele>2324.0000</ele>
        <time>2010-01-01T00:15:38Z</time>
      </trkpt>
      <trkpt lat="27.76989000" lon="87.43066000">
        <ele>2329.0000</ele>
        <time>2010-01-01T00:15:59Z</time>
      </trkpt>
      <trkpt lat="27.76978000" lon="87.43062000">
        <ele>2325.0000</ele>
        <time>2010-01-01T00:16:08Z</time>
      </trkpt>
      <trkpt lat="27.76965000" lon="87.43039000">
        <ele>2333.0000</ele>
        <time>2010-01-01T00:16:27Z</time>
      </trkpt>
      <trkpt lat="27.76959000" lon="87.43033000">
        <ele>2335.0000</ele>
        <time>2010-01-01T00:16:34Z</time>
      </trkpt>
      <trkpt lat="27.76950000" lon="87.43032000">
        <ele>2334.0000</ele>
        <time>2010-01-01T00:16:41Z</time>
      </trkpt>
      <trkpt lat="27.76936000" lon="87.43013000">
        <ele>2339.0000</ele>
        <time>2010-01-01T00:16:58Z</time>
      </trkpt>
      <trkpt lat="27.76923000" lon="87.43014000">
        <ele>2337.0000</ele>
        <time>2010-01-01T00:17:09Z</time>
      </trkpt>
      <trkpt lat="27.76857000" lon="87.42974000">
        <ele>2331.0000</ele>
        <time>2010-01-01T00:18:09Z</time>
      </trkpt>
      <trkpt lat="27.76846000" lon="87.42972000">
        <ele>2328.0000</ele>
        <time>2010-01-01T00:18:18Z</time>
      </trkpt>
      <trkpt lat="27.76832000" lon="87.42974000">
        <ele>2325.0000</ele>
        <time>2010-01-01T00:18:29Z</time>
      </trkpt>
      <trkpt lat="27.76811000" lon="87.42957000">
        <ele>2322.0000</ele>
        <time>2010-01-01T00:18:50Z</time>
      </trkpt>
      <trkpt lat="27.76785000" lon="87.42927000">
        <ele>2337.0000</ele>
        <time>2010-01-01T00:19:20Z</time>
      </trkpt>
      <trkpt lat="27.76748000" lon="87.42913000">
        <ele>2348.0000</ele>
        <time>2010-01-01T00:19:51Z</time>
      </trkpt>
      <trkpt lat="27.76723000" lon="87.42913000">
        <ele>2335.0000</ele>
        <time>2010-01-01T00:20:11Z</time>
      </trkpt>
      <trkpt lat="27.76708000" lon="87.42908000">
        <ele>2337.0000</ele>
        <time>2010-01-01T00:20:23Z</time>
      </trkpt>
      <trkpt lat="27.76683000" lon="87.42885000">
        <ele>2361.0000</ele>
        <time>2010-01-01T00:20:49Z</time>
      </trkpt>
      <trkpt lat="27.76649000" lon="87.42886000">
        <ele>2366.0000</ele>
        <time>2010-01-01T00:21:16Z</time>
      </trkpt>
      <trkpt lat="27.76626000" lon="87.42866000">
        <ele>2371.0000</ele>
        <time>2010-01-01T00:21:40Z</time>
      </trkpt>
      <trkpt lat="27.76618000" lon="87.42852000">
        <ele>2377.0000</ele>
        <time>2010-01-01T00:21:51Z</time>
      </trkpt>
      <trkpt lat="27.76609000" lon="87.42856000">
        <ele>2376.0000</ele>
        <time>2010-01-01T00:21:59Z</time>
      </trkpt>
      <trkpt lat="27.76571000" lon="87.42886000">
        <ele>2359.0000</ele>
        <time>2010-01-01T00:22:36Z</time>
      </trkpt>
      <trkpt lat="27.76546000" lon="87.42878000">
        <ele>2364.0000</ele>
        <time>2010-01-01T00:22:57Z</time>
      </trkpt>
      <trkpt lat="27.76534000" lon="87.42876000">
        <ele>2365.0000</ele>
        <time>2010-01-01T00:23:07Z</time>
      </trkpt>
      <trkpt lat="27.76521000" lon="87.42879000">
        <ele>2362.0000</ele>
        <time>2010-01-01T00:23:17Z</time>
      </trkpt>
      <trkpt lat="27.76491000" lon="87.42893000">
        <ele>2348.0000</ele>
        <time>2010-01-01T00:23:43Z</time>
      </trkpt>
      <trkpt lat="27.76481000" lon="87.42891000">
        <ele>2348.0000</ele>
        <time>2010-01-01T00:23:51Z</time>
      </trkpt>
      <trkpt lat="27.76470000" lon="87.42900000">
        <ele>2342.0000</ele>
        <time>2010-01-01T00:24:02Z</time>
      </trkpt>
      <trkpt lat="27.76458000" lon="87.42905000">
        <ele>2341.0000</ele>
        <time>2010-01-01T00:24:13Z</time>
      </trkpt>
      <trkpt lat="27.76422000" lon="87.42901000">
        <ele>2350.0000</ele>
        <time>2010-01-01T00:24:42Z</time>
      </trkpt>
      <trkpt lat="27.76403000" lon="87.42912000">
        <ele>2350.0000</ele>
        <time>2010-01-01T00:24:59Z</time>
      </trkpt>
      <trkpt lat="27.76390000" lon="87.42913000">
        <ele>2353.0000</ele>
        <time>2010-01-01T00:25:09Z</time>
      </trkpt>
      <trkpt lat="27.76381000" lon="87.42917000">
        <ele>2349.0000</ele>
        <time>2010-01-01T00:25:17Z</time>
      </trkpt>
      <trkpt lat="27.76375000" lon="87.42918000">
        <ele>2347.0000</ele>
        <time>2010-01-01T00:25:22Z</time>
      </trkpt>
      <trkpt lat="27.76369000" lon="87.42930000">
        <ele>2340.0000</ele>
        <time>2010-01-01T00:25:31Z</time>
      </trkpt>
      <trkpt lat="27.76352000" lon="87.42932000">
        <ele>2330.0000</ele>
        <time>2010-01-01T00:25:45Z</time>
      </trkpt>
      <trkpt lat="27.76342000" lon="87.42935000">
        <ele>2323.0000</ele>
        <time>2010-01-01T00:25:53Z</time>
      </trkpt>
      <trkpt lat="27.76321000" lon="87.42952000">
        <ele>2314.0000</ele>
        <time>2010-01-01T00:26:14Z</time>
      </trkpt>
      <trkpt lat="27.76306000" lon="87.42951000">
        <ele>2325.0000</ele>
        <time>2010-01-01T00:26:26Z</time>
      </trkpt>
      <trkpt lat="27.76303000" lon="87.42949000">
        <ele>2329.0000</ele>
        <time>2010-01-01T00:26:29Z</time>
      </trkpt>
      <trkpt lat="27.76303000" lon="87.42948000">
        <ele>2330.0000</ele>
        <time>2010-01-01T00:26:30Z</time>
      </trkpt>
      <trkpt lat="27.76293000" lon="87.42942000">
        <ele>2336.0000</ele>
        <time>2010-01-01T00:26:39Z</time>
      </trkpt>
      <trkpt lat="27.76278000" lon="87.42938000">
        <ele>2338.0000</ele>
        <time>2010-01-01T00:26:51Z</time>
      </trkpt>
      <trkpt lat="27.76265000" lon="87.42932000">
        <ele>2334.0000</ele>
        <time>2010-01-01T00:27:02Z</time>
      </trkpt>
      <trkpt lat="27.76238000" lon="87.42927000">
        <ele>2324.0000</ele>
        <time>2010-01-01T00:27:24Z</time>
      </trkpt>
      <trkpt lat="27.76223000" lon="87.42911000">
        <ele>2321.0000</ele>
        <time>2010-01-01T00:27:41Z</time>
      </trkpt>
      <trkpt lat="27.76204000" lon="87.42916000">
        <ele>2318.0000</ele>
        <time>2010-01-01T00:27:56Z</time>
      </trkpt>
      <trkpt lat="27.76198000" lon="87.42901000">
        <ele>2321.0000</ele>
        <time>2010-01-01T00:28:08Z</time>
      </trkpt>
      <trkpt lat="27.76181000" lon="87.42882000">
        <ele>2322.0000</ele>
        <time>2010-01-01T00:28:27Z</time>
      </trkpt>
      <trkpt lat="27.76168000" lon="87.42836000">
        <ele>2320.0000</ele>
        <time>2010-01-01T00:29:01Z</time>
      </trkpt>
      <trkpt lat="27.76151000" lon="87.42795000">
        <ele>2315.0000</ele>
        <time>2010-01-01T00:29:33Z</time>
      </trkpt>
      <trkpt lat="27.76120000" lon="87.42776000">
        <ele>2304.0000</ele>
        <time>2010-01-01T00:30:02Z</time>
      </trkpt>
      <trkpt lat="27.76091000" lon="87.42710000">
        <ele>2309.0000</ele>
        <time>2010-01-01T00:30:54Z</time>
      </trkpt>
      <trkpt lat="27.76068000" lon="87.42692000">
        <ele>2307.0000</ele>
        <time>2010-01-01T00:31:16Z</time>
      </trkpt>
      <trkpt lat="27.76044000" lon="87.42678000">
        <ele>2298.0000</ele>
        <time>2010-01-01T00:31:38Z</time>
      </trkpt>
      <trkpt lat="27.76028000" lon="87.42649000">
        <ele>2295.0000</ele>
        <time>2010-01-01T00:32:02Z</time>
      </trkpt>
      <trkpt lat="27.76004000" lon="87.42597000">
        <ele>2289.0000</ele>
        <time>2010-01-01T00:32:44Z</time>
      </trkpt>
      <trkpt lat="27.75980000" lon="87.42535000">
        <ele>2281.0000</ele>
        <time>2010-01-01T00:33:32Z</time>
      </trkpt>
      <trkpt lat="27.75975000" lon="87.42505000">
        <ele>2280.0000</ele>
        <time>2010-01-01T00:33:53Z</time>
      </trkpt>
      <trkpt lat="27.75961000" lon="87.42498000">
        <ele>2275.0000</ele>
        <time>2010-01-01T00:34:05Z</time>
      </trkpt>
      <trkpt lat="27.75953000" lon="87.42480000">
        <ele>2275.0000</ele>
        <time>2010-01-01T00:34:20Z</time>
      </trkpt>
      <trkpt lat="27.75943000" lon="87.42468000">
        <ele>2272.0000</ele>
        <time>2010-01-01T00:34:31Z</time>
      </trkpt>
      <trkpt lat="27.75910000" lon="87.42443000">
        <ele>2261.0000</ele>
        <time>2010-01-01T00:35:03Z</time>
      </trkpt>
      <trkpt lat="27.75871000" lon="87.42382000">
        <ele>2256.0000</ele>
        <time>2010-01-01T00:35:57Z</time>
      </trkpt>
      <trkpt lat="27.75881000" lon="87.42349000">
        <ele>2264.0000</ele>
        <time>2010-01-01T00:36:21Z</time>
      </trkpt>
      <trkpt lat="27.75862000" lon="87.42333000">
        <ele>2260.0000</ele>
        <time>2010-01-01T00:36:40Z</time>
      </trkpt>
      <trkpt lat="27.75858000" lon="87.42317000">
        <ele>2261.0000</ele>
        <time>2010-01-01T00:36:52Z</time>
      </trkpt>
      <trkpt lat="27.75817000" lon="87.42276000">
        <ele>2255.0000</ele>
        <time>2010-01-01T00:37:36Z</time>
      </trkpt>
      <trkpt lat="27.75796000" lon="87.42258000">
        <ele>2247.0000</ele>
        <time>2010-01-01T00:37:57Z</time>
      </trkpt>
      <trkpt lat="27.75784000" lon="87.42235000">
        <ele>2241.0000</ele>
        <time>2010-01-01T00:38:16Z</time>
      </trkpt>
      <trkpt lat="27.75782000" lon="87.42211000">
        <ele>2243.0000</ele>
        <time>2010-01-01T00:38:33Z</time>
      </trkpt>
      <trkpt lat="27.75765000" lon="87.42191000">
        <ele>2237.0000</ele>
        <time>2010-01-01T00:38:53Z</time>
      </trkpt>
      <trkpt lat="27.75725000" lon="87.42168000">
        <ele>2228.0000</ele>
        <time>2010-01-01T00:39:28Z</time>
      </trkpt>
      <trkpt lat="27.75694000" lon="87.42145000">
        <ele>2219.0000</ele>
        <time>2010-01-01T00:39:58Z</time>
      </trkpt>
      <trkpt lat="27.75677000" lon="87.42106000">
        <ele>2218.0000</ele>
        <time>2010-01-01T00:40:29Z</time>
      </trkpt>
      <trkpt lat="27.75680000" lon="87.42090000">
        <ele>2220.0000</ele>
        <time>2010-01-01T00:40:41Z</time>
      </trkpt>
      <trkpt lat="27.75654000" lon="87.42064000">
        <ele>2210.0000</ele>
        <time>2010-01-01T00:41:08Z</time>
      </trkpt>
      <trkpt lat="27.75657000" lon="87.42042000">
        <ele>2207.0000</ele>
        <time>2010-01-01T00:41:24Z</time>
      </trkpt>
      <trkpt lat="27.75649000" lon="87.42036000">
        <ele>2204.0000</ele>
        <time>2010-01-01T00:41:32Z</time>
      </trkpt>
      <trkpt lat="27.75656000" lon="87.42021000">
        <ele>2203.0000</ele>
        <time>2010-01-01T00:41:44Z</time>
      </trkpt>
      <trkpt lat="27.75624000" lon="87.41998000">
        <ele>2196.0000</ele>
        <time>2010-01-01T00:42:14Z</time>
      </trkpt>
      <trkpt lat="27.75604000" lon="87.41973000">
        <ele>2186.0000</ele>
        <time>2010-01-01T00:42:38Z</time>
      </trkpt>
      <trkpt lat="27.75607000" lon="87.41947000">
        <ele>2183.0000</ele>
        <time>2010-01-01T00:42:57Z</time>
      </trkpt>
      <trkpt lat="27.75598000" lon="87.41939000">
        <ele>2179.0000</ele>
        <time>2010-01-01T00:43:06Z</time>
      </trkpt>
      <trkpt lat="27.75592000" lon="87.41929000">
        <ele>2177.0000</ele>
        <time>2010-01-01T00:43:14Z</time>
      </trkpt>
      <trkpt lat="27.75583000" lon="87.41907000">
        <ele>2173.0000</ele>
        <time>2010-01-01T00:43:32Z</time>
      </trkpt>
      <trkpt lat="27.75574000" lon="87.41888000">
        <ele>2166.0000</ele>
        <time>2010-01-01T00:43:47Z</time>
      </trkpt>
      <trkpt lat="27.75560000" lon="87.41884000">
        <ele>2160.0000</ele>
        <time>2010-01-01T00:43:58Z</time>
      </trkpt>
      <trkpt lat="27.75554000" lon="87.41878000">
        <ele>2155.0000</ele>
        <time>2010-01-01T00:44:05Z</time>
      </trkpt>
      <trkpt lat="27.75567000" lon="87.41869000">
        <ele>2155.0000</ele>
        <time>2010-01-01T00:44:17Z</time>
      </trkpt>
      <trkpt lat="27.75578000" lon="87.41859000">
        <ele>2153.0000</ele>
        <time>2010-01-01T00:44:28Z</time>
      </trkpt>
      <trkpt lat="27.75586000" lon="87.41836000">
        <ele>2142.0000</ele>
        <time>2010-01-01T00:44:46Z</time>
      </trkpt>
      <trkpt lat="27.75579000" lon="87.41821000">
        <ele>2135.0000</ele>
        <time>2010-01-01T00:44:58Z</time>
      </trkpt>
      <trkpt lat="27.75578000" lon="87.41810000">
        <ele>2131.0000</ele>
        <time>2010-01-01T00:45:06Z</time>
      </trkpt>
      <trkpt lat="27.75583000" lon="87.41795000">
        <ele>2128.0000</ele>
        <time>2010-01-01T00:45:17Z</time>
      </trkpt>
      <trkpt lat="27.75583000" lon="87.41785000">
        <ele>2125.0000</ele>
        <time>2010-01-01T00:45:24Z</time>
      </trkpt>
      <trkpt lat="27.75591000" lon="87.41757000">
        <ele>2117.0000</ele>
        <time>2010-01-01T00:45:45Z</time>
      </trkpt>
      <trkpt lat="27.75588000" lon="87.41755000">
        <ele>2115.0000</ele>
        <time>2010-01-01T00:45:48Z</time>
      </trkpt>
      <trkpt lat="27.75586000" lon="87.41749000">
        <ele>2113.0000</ele>
        <time>2010-01-01T00:45:52Z</time>
      </trkpt>
      <trkpt lat="27.75581000" lon="87.41741000">
        <ele>2109.0000</ele>
        <time>2010-01-01T00:45:59Z</time>
      </trkpt>
      <trkpt lat="27.75584000" lon="87.41732000">
        <ele>2106.0000</ele>
        <time>2010-01-01T00:46:06Z</time>
      </trkpt>
      <trkpt lat="27.75579000" lon="87.41714000">
        <ele>2099.0000</ele>
        <time>2010-01-01T00:46:19Z</time>
      </trkpt>
      <trkpt lat="27.75583000" lon="87.41705000">
        <ele>2097.0000</ele>
        <time>2010-01-01T00:46:27Z</time>
      </trkpt>
      <trkpt lat="27.75580000" lon="87.41697000">
        <ele>2093.0000</ele>
        <time>2010-01-01T00:46:33Z</time>
      </trkpt>
      <trkpt lat="27.75572000" lon="87.41693000">
        <ele>2089.0000</ele>
        <time>2010-01-01T00:46:40Z</time>
      </trkpt>
      <trkpt lat="27.75581000" lon="87.41678000">
        <ele>2085.0000</ele>
        <time>2010-01-01T00:46:53Z</time>
      </trkpt>
      <trkpt lat="27.75598000" lon="87.41661000">
        <ele>2081.0000</ele>
        <time>2010-01-01T00:47:11Z</time>
      </trkpt>
      <trkpt lat="27.75613000" lon="87.41641000">
        <ele>2074.0000</ele>
        <time>2010-01-01T00:47:29Z</time>
      </trkpt>
      <trkpt lat="27.75624000" lon="87.41621000">
        <ele>2076.0000</ele>
        <time>2010-01-01T00:47:46Z</time>
      </trkpt>
      <trkpt lat="27.75566000" lon="87.41591000">
        <ele>2059.0000</ele>
        <time>2010-01-01T00:48:37Z</time>
      </trkpt>
      <trkpt lat="27.75531000" lon="87.41578000">
        <ele>2046.0000</ele>
        <time>2010-01-01T00:49:07Z</time>
      </trkpt>
      <trkpt lat="27.75518000" lon="87.41554000">
        <ele>2044.0000</ele>
        <time>2010-01-01T00:49:26Z</time>
      </trkpt>
      <trkpt lat="27.75520000" lon="87.41545000">
        <ele>2044.0000</ele>
        <time>2010-01-01T00:49:33Z</time>
      </trkpt>
      <trkpt lat="27.75535000" lon="87.41498000">
        <ele>2043.0000</ele>
        <time>2010-01-01T00:50:08Z</time>
      </trkpt>
      <trkpt lat="27.75535000" lon="87.41456000">
        <ele>2029.0000</ele>
        <time>2010-01-01T00:50:38Z</time>
      </trkpt>
      <trkpt lat="27.75545000" lon="87.41435000">
        <ele>2026.0000</ele>
        <time>2010-01-01T00:50:55Z</time>
      </trkpt>
      <trkpt lat="27.75562000" lon="87.41410000">
        <ele>2026.0000</ele>
        <time>2010-01-01T00:51:17Z</time>
      </trkpt>
      <trkpt lat="27.75574000" lon="87.41398000">
        <ele>2029.0000</ele>
        <time>2010-01-01T00:51:30Z</time>
      </trkpt>
      <trkpt lat="27.75572000" lon="87.41395000">
        <ele>2028.0000</ele>
        <time>2010-01-01T00:51:33Z</time>
      </trkpt>
      <trkpt lat="27.75570000" lon="87.41381000">
        <ele>2028.0000</ele>
        <time>2010-01-01T00:51:43Z</time>
      </trkpt>
      <trkpt lat="27.75558000" lon="87.41378000">
        <ele>2026.0000</ele>
        <time>2010-01-01T00:51:53Z</time>
      </trkpt>
      <trkpt lat="27.75540000" lon="87.41383000">
        <ele>2023.0000</ele>
        <time>2010-01-01T00:52:08Z</time>
      </trkpt>
      <trkpt lat="27.75525000" lon="87.41383000">
        <ele>2021.0000</ele>
        <time>2010-01-01T00:52:20Z</time>
      </trkpt>
      <trkpt lat="27.75504000" lon="87.41380000">
        <ele>2019.0000</ele>
        <time>2010-01-01T00:52:37Z</time>
      </trkpt>
      <trkpt lat="27.75485000" lon="87.41387000">
        <ele>2011.0000</ele>
        <time>2010-01-01T00:52:53Z</time>
      </trkpt>
      <trkpt lat="27.75467000" lon="87.41387000">
        <ele>2006.0000</ele>
        <time>2010-01-01T00:53:07Z</time>
      </trkpt>
      <trkpt lat="27.75461000" lon="87.41380000">
        <ele>2007.0000</ele>
        <time>2010-01-01T00:53:14Z</time>
      </trkpt>
      <trkpt lat="27.75448000" lon="87.41358000">
        <ele>2009.0000</ele>
        <time>2010-01-01T00:53:33Z</time>
      </trkpt>
      <trkpt lat="27.75444000" lon="87.41342000">
        <ele>2009.0000</ele>
        <time>2010-01-01T00:53:44Z</time>
      </trkpt>
      <trkpt lat="27.75440000" lon="87.41319000">
        <ele>2010.0000</ele>
        <time>2010-01-01T00:54:01Z</time>
      </trkpt>
      <trkpt lat="27.75434000" lon="87.41296000">
        <ele>2012.0000</ele>
        <time>2010-01-01T00:54:18Z</time>
      </trkpt>
      <trkpt lat="27.75423000" lon="87.41271000">
        <ele>2016.0000</ele>
        <time>2010-01-01T00:54:38Z</time>
      </trkpt>
      <trkpt lat="27.75417000" lon="87.41247000">
        <ele>2030.0000</ele>
        <time>2010-01-01T00:54:55Z</time>
      </trkpt>
      <trkpt lat="27.75408000" lon="87.41252000">
        <ele>2026.0000</ele>
        <time>2010-01-01T00:55:04Z</time>
      </trkpt>
      <trkpt lat="27.75376000" lon="87.41244000">
        <ele>2033.0000</ele>
        <time>2010-01-01T00:55:30Z</time>
      </trkpt>
      <trkpt lat="27.75360000" lon="87.41252000">
        <ele>2031.0000</ele>
        <time>2010-01-01T00:55:44Z</time>
      </trkpt>
      <trkpt lat="27.75348000" lon="87.41270000">
        <ele>2021.0000</ele>
        <time>2010-01-01T00:56:00Z</time>
      </trkpt>
      <trkpt lat="27.75338000" lon="87.41276000">
        <ele>2019.0000</ele>
        <time>2010-01-01T00:56:09Z</time>
      </trkpt>
      <trkpt lat="27.75343000" lon="87.41264000">
        <ele>2025.0000</ele>
        <time>2010-01-01T00:56:18Z</time>
      </trkpt>
      <trkpt lat="27.75332000" lon="87.41260000">
        <ele>2030.0000</ele>
        <time>2010-01-01T00:56:27Z</time>
      </trkpt>
      <trkpt lat="27.75319000" lon="87.41248000">
        <ele>2035.0000</ele>
        <time>2010-01-01T00:56:41Z</time>
      </trkpt>
      <trkpt lat="27.75314000" lon="87.41234000">
        <ele>2038.0000</ele>
        <time>2010-01-01T00:56:52Z</time>
      </trkpt>
      <trkpt lat="27.75317000" lon="87.41224000">
        <ele>2040.0000</ele>
        <time>2010-01-01T00:56:59Z</time>
      </trkpt>
      <trkpt lat="27.75326000" lon="87.41213000">
        <ele>2042.0000</ele>
        <time>2010-01-01T00:57:10Z</time>
      </trkpt>
      <trkpt lat="27.75330000" lon="87.41182000">
        <ele>2049.0000</ele>
        <time>2010-01-01T00:57:32Z</time>
      </trkpt>
      <trkpt lat="27.75330000" lon="87.41161000">
        <ele>2055.0000</ele>
        <time>2010-01-01T00:57:47Z</time>
      </trkpt>
      <trkpt lat="27.75312000" lon="87.41157000">
        <ele>2047.0000</ele>
        <time>2010-01-01T00:58:01Z</time>
      </trkpt>
      <trkpt lat="27.75279000" lon="87.41133000">
        <ele>2039.0000</ele>
        <time>2010-01-01T00:58:33Z</time>
      </trkpt>
      <trkpt lat="27.75268000" lon="87.41116000">
        <ele>2042.0000</ele>
        <time>2010-01-01T00:58:48Z</time>
      </trkpt>
      <trkpt lat="27.75269000" lon="87.41106000">
        <ele>2045.0000</ele>
        <time>2010-01-01T00:58:55Z</time>
      </trkpt>
      <trkpt lat="27.75253000" lon="87.41092000">
        <ele>2045.0000</ele>
        <time>2010-01-01T00:59:11Z</time>
      </trkpt>
      <trkpt lat="27.75242000" lon="87.41071000">
        <ele>2043.0000</ele>
        <time>2010-01-01T00:59:28Z</time>
      </trkpt>
      <trkpt lat="27.75244000" lon="87.41030000">
        <ele>2046.0000</ele>
        <time>2010-01-01T00:59:57Z</time>
      </trkpt>
      <trkpt lat="27.75238000" lon="87.40995000">
        <ele>2046.0000</ele>
        <time>2010-01-01T01:00:23Z</time>
      </trkpt>
      <trkpt lat="27.75238000" lon="87.40976000">
        <ele>2052.0000</ele>
        <time>2010-01-01T01:00:36Z</time>
      </trkpt>
      <trkpt lat="27.75241000" lon="87.40960000">
        <ele>2060.0000</ele>
        <time>2010-01-01T01:00:48Z</time>
      </trkpt>
      <trkpt lat="27.75233000" lon="87.40954000">
        <ele>2061.0000</ele>
        <time>2010-01-01T01:00:55Z</time>
      </trkpt>
      <trkpt lat="27.75200000" lon="87.40914000">
        <ele>2073.0000</ele>
        <time>2010-01-01T01:01:34Z</time>
      </trkpt>
      <trkpt lat="27.75176000" lon="87.40899000">
        <ele>2081.0000</ele>
        <time>2010-01-01T01:01:56Z</time>
      </trkpt>
      <trkpt lat="27.75144000" lon="87.40889000">
        <ele>2081.0000</ele>
        <time>2010-01-01T01:02:23Z</time>
      </trkpt>
      <trkpt lat="27.75122000" lon="87.40890000">
        <ele>2076.0000</ele>
        <time>2010-01-01T01:02:40Z</time>
      </trkpt>
      <trkpt lat="27.75110000" lon="87.40883000">
        <ele>2078.0000</ele>
        <time>2010-01-01T01:02:51Z</time>
      </trkpt>
      <trkpt lat="27.75099000" lon="87.40853000">
        <ele>2091.0000</ele>
        <time>2010-01-01T01:03:14Z</time>
      </trkpt>
      <trkpt lat="27.75083000" lon="87.40849000">
        <ele>2089.0000</ele>
        <time>2010-01-01T01:03:27Z</time>
      </trkpt>
      <trkpt lat="27.75056000" lon="87.40837000">
        <ele>2089.0000</ele>
        <time>2010-01-01T01:03:51Z</time>
      </trkpt>
      <trkpt lat="27.75052000" lon="87.40818000">
        <ele>2097.0000</ele>
        <time>2010-01-01T01:04:04Z</time>
      </trkpt>
      <trkpt lat="27.75046000" lon="87.40800000">
        <ele>2100.0000</ele>
        <time>2010-01-01T01:04:18Z</time>
      </trkpt>
      <trkpt lat="27.75055000" lon="87.40769000">
        <ele>2106.0000</ele>
        <time>2010-01-01T01:04:41Z</time>
      </trkpt>
      <trkpt lat="27.75072000" lon="87.40740000">
        <ele>2112.0000</ele>
        <time>2010-01-01T01:05:06Z</time>
      </trkpt>
      <trkpt lat="27.75081000" lon="87.40702000">
        <ele>2124.0000</ele>
        <time>2010-01-01T01:05:34Z</time>
      </trkpt>
      <trkpt lat="27.75073000" lon="87.40663000">
        <ele>2135.0000</ele>
        <time>2010-01-01T01:06:02Z</time>
      </trkpt>
      <trkpt lat="27.75051000" lon="87.40636000">
        <ele>2138.0000</ele>
        <time>2010-01-01T01:06:28Z</time>
      </trkpt>
      <trkpt lat="27.75018000" lon="87.40611000">
        <ele>2134.0000</ele>
        <time>2010-01-01T01:07:00Z</time>
      </trkpt>
      <trkpt lat="27.75012000" lon="87.40586000">
        <ele>2134.0000</ele>
        <time>2010-01-01T01:07:18Z</time>
      </trkpt>
      <trkpt lat="27.75001000" lon="87.40565000">
        <ele>2131.0000</ele>
        <time>2010-01-01T01:07:35Z</time>
      </trkpt>
      <trkpt lat="27.74991000" lon="87.40527000">
        <ele>2133.0000</ele>
        <time>2010-01-01T01:08:04Z</time>
      </trkpt>
      <trkpt lat="27.74991000" lon="87.40491000">
        <ele>2143.0000</ele>
        <time>2010-01-01T01:08:29Z</time>
      </trkpt>
      <trkpt lat="27.74983000" lon="87.40473000">
        <ele>2143.0000</ele>
        <time>2010-01-01T01:08:43Z</time>
      </trkpt>
      <trkpt lat="27.74990000" lon="87.40412000">
        <ele>2158.0000</ele>
        <time>2010-01-01T01:09:27Z</time>
      </trkpt>
      <trkpt lat="27.74982000" lon="87.40361000">
        <ele>2164.0000</ele>
        <time>2010-01-01T01:10:04Z</time>
      </trkpt>
      <trkpt lat="27.74984000" lon="87.40343000">
        <ele>2167.0000</ele>
        <time>2010-01-01T01:10:16Z</time>
      </trkpt>
      <trkpt lat="27.74979000" lon="87.40329000">
        <ele>2168.0000</ele>
        <time>2010-01-01T01:10:27Z</time>
      </trkpt>
      <trkpt lat="27.74979000" lon="87.40281000">
        <ele>2184.0000</ele>
        <time>2010-01-01T01:11:01Z</time>
      </trkpt>
      <trkpt lat="27.74969000" lon="87.40234000">
        <ele>2193.0000</ele>
        <time>2010-01-01T01:11:35Z</time>
      </trkpt>
      <trkpt lat="27.74971000" lon="87.40220000">
        <ele>2199.0000</ele>
        <time>2010-01-01T01:11:45Z</time>
      </trkpt>
      <trkpt lat="27.74951000" lon="87.40202000">
        <ele>2195.0000</ele>
        <time>2010-01-01T01:12:06Z</time>
      </trkpt>
      <trkpt lat="27.74935000" lon="87.40155000">
        <ele>2206.0000</ele>
        <time>2010-01-01T01:12:42Z</time>
      </trkpt>
      <trkpt lat="27.74935000" lon="87.40154000">
        <ele>2207.0000</ele>
        <time>2010-01-01T01:12:42Z</time>
      </trkpt>
      <trkpt lat="27.74931000" lon="87.40145000">
        <ele>2209.0000</ele>
        <time>2010-01-01T01:12:49Z</time>
      </trkpt>
      <trkpt lat="27.74935000" lon="87.40126000">
        <ele>2218.0000</ele>
        <time>2010-01-01T01:13:03Z</time>
      </trkpt>
      <trkpt lat="27.74916000" lon="87.40112000">
        <ele>2215.0000</ele>
        <time>2010-01-01T01:13:21Z</time>
      </trkpt>
      <trkpt lat="27.74914000" lon="87.40101000">
        <ele>2216.0000</ele>
        <time>2010-01-01T01:13:29Z</time>
      </trkpt>
      <trkpt lat="27.74924000" lon="87.40089000">
        <ele>2224.0000</ele>
        <time>2010-01-01T01:13:41Z</time>
      </trkpt>
      <trkpt lat="27.74921000" lon="87.40078000">
        <ele>2226.0000</ele>
        <time>2010-01-01T01:13:49Z</time>
      </trkpt>
      <trkpt lat="27.74901000" lon="87.40065000">
        <ele>2218.0000</ele>
        <time>2010-01-01T01:14:08Z</time>
      </trkpt>
      <trkpt lat="27.74900000" lon="87.40061000">
        <ele>2219.0000</ele>
        <time>2010-01-01T01:14:11Z</time>
      </trkpt>
      <trkpt lat="27.74903000" lon="87.40058000">
        <ele>2221.0000</ele>
        <time>2010-01-01T01:14:14Z</time>
      </trkpt>
      <trkpt lat="27.74900000" lon="87.40048000">
        <ele>2221.0000</ele>
        <time>2010-01-01T01:14:21Z</time>
      </trkpt>
      <trkpt lat="27.74907000" lon="87.40039000">
        <ele>2227.0000</ele>
        <time>2010-01-01T01:14:30Z</time>
      </trkpt>
      <trkpt lat="27.74907000" lon="87.40029000">
        <ele>2229.0000</ele>
        <time>2010-01-01T01:14:37Z</time>
      </trkpt>
      <trkpt lat="27.74914000" lon="87.40013000">
        <ele>2236.0000</ele>
        <time>2010-01-01T01:14:50Z</time>
      </trkpt>
      <trkpt lat="27.74911000" lon="87.39989000">
        <ele>2236.0000</ele>
        <time>2010-01-01T01:15:07Z</time>
      </trkpt>
      <trkpt lat="27.74916000" lon="87.39975000">
        <ele>2243.0000</ele>
        <time>2010-01-01T01:15:17Z</time>
      </trkpt>
      <trkpt lat="27.74912000" lon="87.39961000">
        <ele>2241.0000</ele>
        <time>2010-01-01T01:15:28Z</time>
      </trkpt>
      <trkpt lat="27.74916000" lon="87.39943000">
        <ele>2249.0000</ele>
        <time>2010-01-01T01:15:41Z</time>
      </trkpt>
      <trkpt lat="27.74918000" lon="87.39923000">
        <ele>2256.0000</ele>
        <time>2010-01-01T01:15:55Z</time>
      </trkpt>
      <trkpt lat="27.74914000" lon="87.39909000">
        <ele>2255.0000</ele>
        <time>2010-01-01T01:16:06Z</time>
      </trkpt>
      <trkpt lat="27.74914000" lon="87.39888000">
        <ele>2256.0000</ele>
        <time>2010-01-01T01:16:21Z</time>
      </trkpt>
      <trkpt lat="27.74904000" lon="87.39883000">
        <ele>2236.0000</ele>
        <time>2010-01-01T01:16:29Z</time>
      </trkpt>
      <trkpt lat="27.74891000" lon="87.39861000">
        <ele>2199.0000</ele>
        <time>2010-01-01T01:16:48Z</time>
      </trkpt>
      <trkpt lat="27.74864000" lon="87.39857000">
        <ele>2142.0000</ele>
        <time>2010-01-01T01:17:10Z</time>
      </trkpt>
      <trkpt lat="27.74864000" lon="87.39816000">
        <ele>2126.0000</ele>
        <time>2010-01-01T01:17:39Z</time>
      </trkpt>
      <trkpt lat="27.74913000" lon="87.39737000">
        <ele>2194.0000</ele>
        <time>2010-01-01T01:18:47Z</time>
      </trkpt>
      <trkpt lat="27.74921000" lon="87.39706000">
        <ele>2169.0000</ele>
        <time>2010-01-01T01:19:10Z</time>
      </trkpt>
      <trkpt lat="27.74938000" lon="87.39694000">
        <ele>2174.0000</ele>
        <time>2010-01-01T01:19:26Z</time>
      </trkpt>
      <trkpt lat="27.74959000" lon="87.39684000">
        <ele>2179.0000</ele>
        <time>2010-01-01T01:19:44Z</time>
      </trkpt>
      <trkpt lat="27.74952000" lon="87.39679000">
        <ele>2168.0000</ele>
        <time>2010-01-01T01:19:51Z</time>
      </trkpt>
      <trkpt lat="27.74959000" lon="87.39676000">
        <ele>2169.0000</ele>
        <time>2010-01-01T01:19:57Z</time>
      </trkpt>
      <trkpt lat="27.74951000" lon="87.39673000">
        <ele>2161.0000</ele>
        <time>2010-01-01T01:20:04Z</time>
      </trkpt>
      <trkpt lat="27.74960000" lon="87.39671000">
        <ele>2163.0000</ele>
        <time>2010-01-01T01:20:11Z</time>
      </trkpt>
      <trkpt lat="27.74974000" lon="87.39676000">
        <ele>2176.0000</ele>
        <time>2010-01-01T01:20:23Z</time>
      </trkpt>
      <trkpt lat="27.74985000" lon="87.39673000">
        <ele>2176.0000</ele>
        <time>2010-01-01T01:20:32Z</time>
      </trkpt>
      <trkpt lat="27.74995000" lon="87.39665000">
        <ele>2167.0000</ele>
        <time>2010-01-01T01:20:42Z</time>
      </trkpt>
      <trkpt lat="27.74979000" lon="87.39666000">
        <ele>2164.0000</ele>
        <time>2010-01-01T01:20:55Z</time>
      </trkpt>
      <trkpt lat="27.75094000" lon="87.39602000">
        <ele>2118.0000</ele>
        <time>2010-01-01T01:22:37Z</time>
      </trkpt>
      <trkpt lat="27.75118000" lon="87.39582000">
        <ele>2113.0000</ele>
        <time>2010-01-01T01:23:01Z</time>
      </trkpt>
      <trkpt lat="27.75205000" lon="87.39552000">
        <ele>2085.0000</ele>
        <time>2010-01-01T01:24:14Z</time>
      </trkpt>
      <trkpt lat="27.75249000" lon="87.39514000">
        <ele>2075.0000</ele>
        <time>2010-01-01T01:24:58Z</time>
      </trkpt>
      <trkpt lat="27.75289000" lon="87.39491000">
        <ele>2079.0000</ele>
        <time>2010-01-01T01:25:34Z</time>
      </trkpt>
      <trkpt lat="27.75348000" lon="87.39473000">
        <ele>2106.0000</ele>
        <time>2010-01-01T01:26:23Z</time>
      </trkpt>
      <trkpt lat="27.75401000" lon="87.39467000">
        <ele>2137.0000</ele>
        <time>2010-01-01T01:27:06Z</time>
      </trkpt>
      <trkpt lat="27.75422000" lon="87.39484000">
        <ele>2164.0000</ele>
        <time>2010-01-01T01:27:26Z</time>
      </trkpt>
      <trkpt lat="27.75441000" lon="87.39487000">
        <ele>2180.0000</ele>
        <time>2010-01-01T01:27:42Z</time>
      </trkpt>
      <trkpt lat="27.75461000" lon="87.39483000">
        <ele>2189.0000</ele>
        <time>2010-01-01T01:27:58Z</time>
      </trkpt>
      <trkpt lat="27.75473000" lon="87.39471000">
        <ele>2189.0000</ele>
        <time>2010-01-01T01:28:11Z</time>
      </trkpt>
      <trkpt lat="27.75468000" lon="87.39455000">
        <ele>2184.0000</ele>
        <time>2010-01-01T01:28:23Z</time>
      </trkpt>
      <trkpt lat="27.75475000" lon="87.39441000">
        <ele>2186.0000</ele>
        <time>2010-01-01T01:28:34Z</time>
      </trkpt>
      <trkpt lat="27.75475000" lon="87.39425000">
        <ele>2178.0000</ele>
        <time>2010-01-01T01:28:46Z</time>
      </trkpt>
      <trkpt lat="27.75469000" lon="87.39409000">
        <ele>2169.0000</ele>
        <time>2010-01-01T01:28:58Z</time>
      </trkpt>
      <trkpt lat="27.75468000" lon="87.39389000">
        <ele>2166.0000</ele>
        <time>2010-01-01T01:29:12Z</time>
      </trkpt>
      <trkpt lat="27.75452000" lon="87.39364000">
        <ele>2155.0000</ele>
        <time>2010-01-01T01:29:34Z</time>
      </trkpt>
      <trkpt lat="27.75449000" lon="87.39346000">
        <ele>2161.0000</ele>
        <time>2010-01-01T01:29:47Z</time>
      </trkpt>
      <trkpt lat="27.75441000" lon="87.39326000">
        <ele>2164.0000</ele>
        <time>2010-01-01T01:30:03Z</time>
      </trkpt>
      <trkpt lat="27.75424000" lon="87.39306000">
        <ele>2155.0000</ele>
        <time>2010-01-01T01:30:22Z</time>
      </trkpt>
      <trkpt lat="27.75405000" lon="87.39299000">
        <ele>2140.0000</ele>
        <time>2010-01-01T01:30:38Z</time>
      </trkpt>
      <trkpt lat="27.75398000" lon="87.39293000">
        <ele>2135.0000</ele>
        <time>2010-01-01T01:30:45Z</time>
      </trkpt>
      <trkpt lat="27.75403000" lon="87.39260000">
        <ele>2141.0000</ele>
        <time>2010-01-01T01:31:09Z</time>
      </trkpt>
      <trkpt lat="27.75410000" lon="87.39247000">
        <ele>2148.0000</ele>
        <time>2010-01-01T01:31:20Z</time>
      </trkpt>
      <trkpt lat="27.75422000" lon="87.39229000">
        <ele>2157.0000</ele>
        <time>2010-01-01T01:31:36Z</time>
      </trkpt>
      <trkpt lat="27.75437000" lon="87.39195000">
        <ele>2163.0000</ele>
        <time>2010-01-01T01:32:03Z</time>
      </trkpt>
      <trkpt lat="27.75437000" lon="87.39179000">
        <ele>2162.0000</ele>
        <time>2010-01-01T01:32:14Z</time>
      </trkpt>
      <trkpt lat="27.75458000" lon="87.39153000">
        <ele>2179.0000</ele>
        <time>2010-01-01T01:32:39Z</time>
      </trkpt>
      <trkpt lat="27.75451000" lon="87.39136000">
        <ele>2174.0000</ele>
        <time>2010-01-01T01:32:52Z</time>
      </trkpt>
      <trkpt lat="27.75432000" lon="87.39120000">
        <ele>2165.0000</ele>
        <time>2010-01-01T01:33:11Z</time>
      </trkpt>
      <trkpt lat="27.75419000" lon="87.39101000">
        <ele>2168.0000</ele>
        <time>2010-01-01T01:33:28Z</time>
      </trkpt>
      <trkpt lat="27.75382000" lon="87.39057000">
        <ele>2182.0000</ele>
        <time>2010-01-01T01:34:11Z</time>
      </trkpt>
      <trkpt lat="27.75384000" lon="87.39016000">
        <ele>2181.0000</ele>
        <time>2010-01-01T01:34:40Z</time>
      </trkpt>
      <trkpt lat="27.75375000" lon="87.38986000">
        <ele>2173.0000</ele>
        <time>2010-01-01T01:35:03Z</time>
      </trkpt>
      <trkpt lat="27.75361000" lon="87.38979000">
        <ele>2154.0000</ele>
        <time>2010-01-01T01:35:15Z</time>
      </trkpt>
      <trkpt lat="27.75341000" lon="87.38947000">
        <ele>2115.0000</ele>
        <time>2010-01-01T01:35:43Z</time>
      </trkpt>
      <trkpt lat="27.75345000" lon="87.38929000">
        <ele>2125.0000</ele>
        <time>2010-01-01T01:35:56Z</time>
      </trkpt>
      <trkpt lat="27.75347000" lon="87.38911000">
        <ele>2127.0000</ele>
        <time>2010-01-01T01:36:09Z</time>
      </trkpt>
      <trkpt lat="27.75357000" lon="87.38878000">
        <ele>2130.0000</ele>
        <time>2010-01-01T01:36:33Z</time>
      </trkpt>
      <trkpt lat="27.75367000" lon="87.38875000">
        <ele>2146.0000</ele>
        <time>2010-01-01T01:36:42Z</time>
      </trkpt>
      <trkpt lat="27.75381000" lon="87.38865000">
        <ele>2161.0000</ele>
        <time>2010-01-01T01:36:55Z</time>
      </trkpt>
      <trkpt lat="27.75401000" lon="87.38842000">
        <ele>2170.0000</ele>
        <time>2010-01-01T01:37:18Z</time>
      </trkpt>
      <trkpt lat="27.75441000" lon="87.38806000">
        <ele>2174.0000</ele>
        <time>2010-01-01T01:37:59Z</time>
      </trkpt>
      <trkpt lat="27.75448000" lon="87.38790000">
        <ele>2165.0000</ele>
        <time>2010-01-01T01:38:11Z</time>
      </trkpt>
      <trkpt lat="27.75460000" lon="87.38778000">
        <ele>2162.0000</ele>
        <time>2010-01-01T01:38:24Z</time>
      </trkpt>
      <trkpt lat="27.75472000" lon="87.38777000">
        <ele>2168.0000</ele>
        <time>2010-01-01T01:38:34Z</time>
      </trkpt>
      <trkpt lat="27.75523000" lon="87.38751000">
        <ele>2171.0000</ele>
        <time>2010-01-01T01:39:19Z</time>
      </trkpt>
      <trkpt lat="27.75573000" lon="87.38721000">
        <ele>2170.0000</ele>
        <time>2010-01-01T01:40:04Z</time>
      </trkpt>
      <trkpt lat="27.75594000" lon="87.38697000">
        <ele>2172.0000</ele>
        <time>2010-01-01T01:40:28Z</time>
      </trkpt>
      <trkpt lat="27.75627000" lon="87.38675000">
        <ele>2180.0000</ele>
        <time>2010-01-01T01:40:59Z</time>
      </trkpt>
      <trkpt lat="27.75631000" lon="87.38661000">
        <ele>2175.0000</ele>
        <time>2010-01-01T01:41:09Z</time>
      </trkpt>
      <trkpt lat="27.75654000" lon="87.38640000">
        <ele>2187.0000</ele>
        <time>2010-01-01T01:41:33Z</time>
      </trkpt>
      <trkpt lat="27.75662000" lon="87.38628000">
        <ele>2184.0000</ele>
        <time>2010-01-01T01:41:43Z</time>
      </trkpt>
      <trkpt lat="27.75665000" lon="87.38618000">
        <ele>2179.0000</ele>
        <time>2010-01-01T01:41:51Z</time>
      </trkpt>
      <trkpt lat="27.75660000" lon="87.38607000">
        <ele>2166.0000</ele>
        <time>2010-01-01T01:42:00Z</time>
      </trkpt>
      <trkpt lat="27.75659000" lon="87.38598000">
        <ele>2157.0000</ele>
        <time>2010-01-01T01:42:06Z</time>
      </trkpt>
      <trkpt lat="27.75666000" lon="87.38585000">
        <ele>2150.0000</ele>
        <time>2010-01-01T01:42:17Z</time>
      </trkpt>
      <trkpt lat="27.75673000" lon="87.38575000">
        <ele>2150.0000</ele>
        <time>2010-01-01T01:42:26Z</time>
      </trkpt>
      <trkpt lat="27.75691000" lon="87.38563000">
        <ele>2157.0000</ele>
        <time>2010-01-01T01:42:43Z</time>
      </trkpt>
      <trkpt lat="27.75720000" lon="87.38527000">
        <ele>2164.0000</ele>
        <time>2010-01-01T01:43:17Z</time>
      </trkpt>
      <trkpt lat="27.75745000" lon="87.38507000">
        <ele>2195.0000</ele>
        <time>2010-01-01T01:43:42Z</time>
      </trkpt>
      <trkpt lat="27.75740000" lon="87.38495000">
        <ele>2186.0000</ele>
        <time>2010-01-01T01:43:51Z</time>
      </trkpt>
      <trkpt lat="27.75721000" lon="87.38485000">
        <ele>2162.0000</ele>
        <time>2010-01-01T01:44:08Z</time>
      </trkpt>
      <trkpt lat="27.75708000" lon="87.38462000">
        <ele>2163.0000</ele>
        <time>2010-01-01T01:44:27Z</time>
      </trkpt>
      <trkpt lat="27.75683000" lon="87.38444000">
        <ele>2142.0000</ele>
        <time>2010-01-01T01:44:51Z</time>
      </trkpt>
      <trkpt lat="27.75673000" lon="87.38426000">
        <ele>2128.0000</ele>
        <time>2010-01-01T01:45:06Z</time>
      </trkpt>
      <trkpt lat="27.75670000" lon="87.38396000">
        <ele>2126.0000</ele>
        <time>2010-01-01T01:45:27Z</time>
      </trkpt>
      <trkpt lat="27.75655000" lon="87.38377000">
        <ele>2110.0000</ele>
        <time>2010-01-01T01:45:45Z</time>
      </trkpt>
      <trkpt lat="27.75674000" lon="87.38352000">
        <ele>2128.0000</ele>
        <time>2010-01-01T01:46:09Z</time>
      </trkpt>
      <trkpt lat="27.75689000" lon="87.38340000">
        <ele>2141.0000</ele>
        <time>2010-01-01T01:46:23Z</time>
      </trkpt>
      <trkpt lat="27.75697000" lon="87.38334000">
        <ele>2149.0000</ele>
        <time>2010-01-01T01:46:31Z</time>
      </trkpt>
      <trkpt lat="27.75715000" lon="87.38305000">
        <ele>2166.0000</ele>
        <time>2010-01-01T01:46:56Z</time>
      </trkpt>
      <trkpt lat="27.75730000" lon="87.38286000">
        <ele>2176.0000</ele>
        <time>2010-01-01T01:47:14Z</time>
      </trkpt>
      <trkpt lat="27.75759000" lon="87.38221000">
        <ele>2188.0000</ele>
        <time>2010-01-01T01:48:06Z</time>
      </trkpt>
      <trkpt lat="27.75759000" lon="87.38184000">
        <ele>2181.0000</ele>
        <time>2010-01-01T01:48:32Z</time>
      </trkpt>
      <trkpt lat="27.75751000" lon="87.38109000">
        <ele>2173.0000</ele>
        <time>2010-01-01T01:49:25Z</time>
      </trkpt>
      <trkpt lat="27.75756000" lon="87.38089000">
        <ele>2179.0000</ele>
        <time>2010-01-01T01:49:40Z</time>
      </trkpt>
      <trkpt lat="27.75744000" lon="87.38079000">
        <ele>2174.0000</ele>
        <time>2010-01-01T01:49:52Z</time>
      </trkpt>
      <trkpt lat="27.75739000" lon="87.38058000">
        <ele>2178.0000</ele>
        <time>2010-01-01T01:50:08Z</time>
      </trkpt>
      <trkpt lat="27.75745000" lon="87.38024000">
        <ele>2186.0000</ele>
        <time>2010-01-01T01:50:32Z</time>
      </trkpt>
      <trkpt lat="27.75741000" lon="87.37997000">
        <ele>2190.0000</ele>
        <time>2010-01-01T01:50:51Z</time>
      </trkpt>
      <trkpt lat="27.75745000" lon="87.37977000">
        <ele>2192.0000</ele>
        <time>2010-01-01T01:51:06Z</time>
      </trkpt>
      <trkpt lat="27.75758000" lon="87.37959000">
        <ele>2197.0000</ele>
        <time>2010-01-01T01:51:22Z</time>
      </trkpt>
      <trkpt lat="27.75767000" lon="87.37954000">
        <ele>2200.0000</ele>
        <time>2010-01-01T01:51:31Z</time>
      </trkpt>
      <trkpt lat="27.75777000" lon="87.37946000">
        <ele>2203.0000</ele>
        <time>2010-01-01T01:51:40Z</time>
      </trkpt>
      <trkpt lat="27.75808000" lon="87.37892000">
        <ele>2190.0000</ele>
        <time>2010-01-01T01:52:26Z</time>
      </trkpt>
      <trkpt lat="27.75822000" lon="87.37885000">
        <ele>2197.0000</ele>
        <time>2010-01-01T01:52:38Z</time>
      </trkpt>
      <trkpt lat="27.75825000" lon="87.37870000">
        <ele>2195.0000</ele>
        <time>2010-01-01T01:52:49Z</time>
      </trkpt>
      <trkpt lat="27.75840000" lon="87.37804000">
        <ele>2193.0000</ele>
        <time>2010-01-01T01:53:37Z</time>
      </trkpt>
      <trkpt lat="27.75834000" lon="87.37774000">
        <ele>2193.0000</ele>
        <time>2010-01-01T01:53:59Z</time>
      </trkpt>
      <trkpt lat="27.75841000" lon="87.37763000">
        <ele>2192.0000</ele>
        <time>2010-01-01T01:54:09Z</time>
      </trkpt>
      <trkpt lat="27.75872000" lon="87.37753000">
        <ele>2194.0000</ele>
        <time>2010-01-01T01:54:35Z</time>
      </trkpt>
      <trkpt lat="27.75888000" lon="87.37731000">
        <ele>2194.0000</ele>
        <time>2010-01-01T01:54:55Z</time>
      </trkpt>
      <trkpt lat="27.75910000" lon="87.37719000">
        <ele>2201.0000</ele>
        <time>2010-01-01T01:55:14Z</time>
      </trkpt>
      <trkpt lat="27.75959000" lon="87.37715000">
        <ele>2201.0000</ele>
        <time>2010-01-01T01:55:54Z</time>
      </trkpt>
      <trkpt lat="27.75968000" lon="87.37727000">
        <ele>2203.0000</ele>
        <time>2010-01-01T01:56:05Z</time>
      </trkpt>
      <trkpt lat="27.75974000" lon="87.37760000">
        <ele>2213.0000</ele>
        <time>2010-01-01T01:56:29Z</time>
      </trkpt>
      <trkpt lat="27.75993000" lon="87.37789000">
        <ele>2220.0000</ele>
        <time>2010-01-01T01:56:54Z</time>
      </trkpt>
      <trkpt lat="27.76045000" lon="87.37800000">
        <ele>2210.0000</ele>
        <time>2010-01-01T01:57:37Z</time>
      </trkpt>
      <trkpt lat="27.76074000" lon="87.37811000">
        <ele>2213.0000</ele>
        <time>2010-01-01T01:58:01Z</time>
      </trkpt>
      <trkpt lat="27.76082000" lon="87.37838000">
        <ele>2223.0000</ele>
        <time>2010-01-01T01:58:21Z</time>
      </trkpt>
      <trkpt lat="27.76093000" lon="87.37841000">
        <ele>2225.0000</ele>
        <time>2010-01-01T01:58:30Z</time>
      </trkpt>
      <trkpt lat="27.76102000" lon="87.37795000">
        <ele>2212.0000</ele>
        <time>2010-01-01T01:59:04Z</time>
      </trkpt>
      <trkpt lat="27.76102000" lon="87.37774000">
        <ele>2207.0000</ele>
        <time>2010-01-01T01:59:19Z</time>
      </trkpt>
      <trkpt lat="27.76074000" lon="87.37758000">
        <ele>2199.0000</ele>
        <time>2010-01-01T01:59:44Z</time>
      </trkpt>
      <trkpt lat="27.76061000" lon="87.37726000">
        <ele>2192.0000</ele>
        <time>2010-01-01T02:00:09Z</time>
      </trkpt>
      <trkpt lat="27.76102000" lon="87.37680000">
        <ele>2178.0000</ele>
        <time>2010-01-01T02:00:55Z</time>
      </trkpt>
      <trkpt lat="27.76111000" lon="87.37657000">
        <ele>2168.0000</ele>
        <time>2010-01-01T02:01:13Z</time>
      </trkpt>
      <trkpt lat="27.76122000" lon="87.37649000">
        <ele>2168.0000</ele>
        <time>2010-01-01T02:01:23Z</time>
      </trkpt>
      <trkpt lat="27.76171000" lon="87.37638000">
        <ele>2174.0000</ele>
        <time>2010-01-01T02:02:03Z</time>
      </trkpt>
      <trkpt lat="27.76222000" lon="87.37604000">
        <ele>2172.0000</ele>
        <time>2010-01-01T02:02:51Z</time>
      </trkpt>
      <trkpt lat="27.76239000" lon="87.37584000">
        <ele>2167.0000</ele>
        <time>2010-01-01T02:03:10Z</time>
      </trkpt>
      <trkpt lat="27.76247000" lon="87.37581000">
        <ele>2168.0000</ele>
        <time>2010-01-01T02:03:17Z</time>
      </trkpt>
      <trkpt lat="27.76260000" lon="87.37573000">
        <ele>2167.0000</ele>
        <time>2010-01-01T02:03:29Z</time>
      </trkpt>
      <trkpt lat="27.76267000" lon="87.37572000">
        <ele>2168.0000</ele>
        <time>2010-01-01T02:03:34Z</time>
      </trkpt>
      <trkpt lat="27.76293000" lon="87.37535000">
        <ele>2162.0000</ele>
        <time>2010-01-01T02:04:08Z</time>
      </trkpt>
      <trkpt lat="27.76311000" lon="87.37520000">
        <ele>2163.0000</ele>
        <time>2010-01-01T02:04:26Z</time>
      </trkpt>
      <trkpt lat="27.76332000" lon="87.37512000">
        <ele>2166.0000</ele>
        <time>2010-01-01T02:04:44Z</time>
      </trkpt>
      <trkpt lat="27.76343000" lon="87.37503000">
        <ele>2164.0000</ele>
        <time>2010-01-01T02:04:54Z</time>
      </trkpt>
      <trkpt lat="27.76370000" lon="87.37494000">
        <ele>2166.0000</ele>
        <time>2010-01-01T02:05:17Z</time>
      </trkpt>
      <trkpt lat="27.76398000" lon="87.37482000">
        <ele>2165.0000</ele>
        <time>2010-01-01T02:05:41Z</time>
      </trkpt>
      <trkpt lat="27.76428000" lon="87.37482000">
        <ele>2171.0000</ele>
        <time>2010-01-01T02:06:05Z</time>
      </trkpt>
      <trkpt lat="27.76443000" lon="87.37477000">
        <ele>2171.0000</ele>
        <time>2010-01-01T02:06:17Z</time>
      </trkpt>
      <trkpt lat="27.76455000" lon="87.37475000">
        <ele>2169.0000</ele>
        <time>2010-01-01T02:06:27Z</time>
      </trkpt>
      <trkpt lat="27.76485000" lon="87.37475000">
        <ele>2165.0000</ele>
        <time>2010-01-01T02:06:51Z</time>
      </trkpt>
      <trkpt lat="27.76527000" lon="87.37467000">
        <ele>2154.0000</ele>
        <time>2010-01-01T02:07:25Z</time>
      </trkpt>
      <trkpt lat="27.76541000" lon="87.37467000">
        <ele>2154.0000</ele>
        <time>2010-01-01T02:07:37Z</time>
      </trkpt>
      <trkpt lat="27.76567000" lon="87.37476000">
        <ele>2156.0000</ele>
        <time>2010-01-01T02:07:58Z</time>
      </trkpt>
      <trkpt lat="27.76583000" lon="87.37474000">
        <ele>2154.0000</ele>
        <time>2010-01-01T02:08:11Z</time>
      </trkpt>
      <trkpt lat="27.76600000" lon="87.37480000">
        <ele>2154.0000</ele>
        <time>2010-01-01T02:08:25Z</time>
      </trkpt>
      <trkpt lat="27.76631000" lon="87.37482000">
        <ele>2153.0000</ele>
        <time>2010-01-01T02:08:50Z</time>
      </trkpt>
      <trkpt lat="27.76638000" lon="87.37478000">
        <ele>2153.0000</ele>
        <time>2010-01-01T02:08:57Z</time>
      </trkpt>
      <trkpt lat="27.76644000" lon="87.37472000">
        <ele>2151.0000</ele>
        <time>2010-01-01T02:09:03Z</time>
      </trkpt>
      <trkpt lat="27.76657000" lon="87.37467000">
        <ele>2147.0000</ele>
        <time>2010-01-01T02:09:14Z</time>
      </trkpt>
      <trkpt lat="27.76680000" lon="87.37468000">
        <ele>2145.0000</ele>
        <time>2010-01-01T02:09:32Z</time>
      </trkpt>
      <trkpt lat="27.76690000" lon="87.37464000">
        <ele>2143.0000</ele>
        <time>2010-01-01T02:09:41Z</time>
      </trkpt>
      <trkpt lat="27.76694000" lon="87.37453000">
        <ele>2140.0000</ele>
        <time>2010-01-01T02:09:49Z</time>
      </trkpt>
      <trkpt lat="27.76737000" lon="87.37441000">
        <ele>2147.0000</ele>
        <time>2010-01-01T02:10:25Z</time>
      </trkpt>
      <trkpt lat="27.76758000" lon="87.37423000">
        <ele>2140.0000</ele>
        <time>2010-01-01T02:10:46Z</time>
      </trkpt>
      <trkpt lat="27.76761000" lon="87.37412000">
        <ele>2132.0000</ele>
        <time>2010-01-01T02:10:54Z</time>
      </trkpt>
      <trkpt lat="27.76769000" lon="87.37401000">
        <ele>2124.0000</ele>
        <time>2010-01-01T02:11:04Z</time>
      </trkpt>
      <trkpt lat="27.76783000" lon="87.37390000">
        <ele>2123.0000</ele>
        <time>2010-01-01T02:11:18Z</time>
      </trkpt>
      <trkpt lat="27.76811000" lon="87.37385000">
        <ele>2140.0000</ele>
        <time>2010-01-01T02:11:40Z</time>
      </trkpt>
      <trkpt lat="27.76835000" lon="87.37375000">
        <ele>2137.0000</ele>
        <time>2010-01-01T02:12:01Z</time>
      </trkpt>
      <trkpt lat="27.76850000" lon="87.37360000">
        <ele>2120.0000</ele>
        <time>2010-01-01T02:12:17Z</time>
      </trkpt>
      <trkpt lat="27.76868000" lon="87.37355000">
        <ele>2120.0000</ele>
        <time>2010-01-01T02:12:32Z</time>
      </trkpt>
      <trkpt lat="27.76880000" lon="87.37349000">
        <ele>2118.0000</ele>
        <time>2010-01-01T02:12:42Z</time>
      </trkpt>
      <trkpt lat="27.76890000" lon="87.37361000">
        <ele>2136.0000</ele>
        <time>2010-01-01T02:12:54Z</time>
      </trkpt>
      <trkpt lat="27.76912000" lon="87.37353000">
        <ele>2132.0000</ele>
        <time>2010-01-01T02:13:13Z</time>
      </trkpt>
      <trkpt lat="27.76938000" lon="87.37374000">
        <ele>2148.0000</ele>
        <time>2010-01-01T02:13:38Z</time>
      </trkpt>
      <trkpt lat="27.76955000" lon="87.37365000">
        <ele>2133.0000</ele>
        <time>2010-01-01T02:13:53Z</time>
      </trkpt>
      <trkpt lat="27.76965000" lon="87.37342000">
        <ele>2105.0000</ele>
        <time>2010-01-01T02:14:11Z</time>
      </trkpt>
      <trkpt lat="27.76960000" lon="87.37315000">
        <ele>2097.0000</ele>
        <time>2010-01-01T02:14:31Z</time>
      </trkpt>
      <trkpt lat="27.76947000" lon="87.37298000">
        <ele>2101.0000</ele>
        <time>2010-01-01T02:14:47Z</time>
      </trkpt>
      <trkpt lat="27.76926000" lon="87.37260000">
        <ele>2110.0000</ele>
        <time>2010-01-01T02:15:18Z</time>
      </trkpt>
      <trkpt lat="27.76911000" lon="87.37220000">
        <ele>2126.0000</ele>
        <time>2010-01-01T02:15:49Z</time>
      </trkpt>
      <trkpt lat="27.76890000" lon="87.37195000">
        <ele>2132.0000</ele>
        <time>2010-01-01T02:16:14Z</time>
      </trkpt>
      <trkpt lat="27.76875000" lon="87.37182000">
        <ele>2135.0000</ele>
        <time>2010-01-01T02:16:29Z</time>
      </trkpt>
      <trkpt lat="27.76878000" lon="87.37162000">
        <ele>2143.0000</ele>
        <time>2010-01-01T02:16:43Z</time>
      </trkpt>
      <trkpt lat="27.76890000" lon="87.37156000">
        <ele>2149.0000</ele>
        <time>2010-01-01T02:16:54Z</time>
      </trkpt>
      <trkpt lat="27.76892000" lon="87.37130000">
        <ele>2163.0000</ele>
        <time>2010-01-01T02:17:12Z</time>
      </trkpt>
      <trkpt lat="27.76915000" lon="87.37113000">
        <ele>2175.0000</ele>
        <time>2010-01-01T02:17:34Z</time>
      </trkpt>
      <trkpt lat="27.76891000" lon="87.37075000">
        <ele>2184.0000</ele>
        <time>2010-01-01T02:18:07Z</time>
      </trkpt>
      <trkpt lat="27.76856000" lon="87.37040000">
        <ele>2189.0000</ele>
        <time>2010-01-01T02:18:45Z</time>
      </trkpt>
      <trkpt lat="27.76823000" lon="87.36996000">
        <ele>2202.0000</ele>
        <time>2010-01-01T02:19:26Z</time>
      </trkpt>
      <trkpt lat="27.76815000" lon="87.36970000">
        <ele>2204.0000</ele>
        <time>2010-01-01T02:19:45Z</time>
      </trkpt>
      <trkpt lat="27.76793000" lon="87.36942000">
        <ele>2199.0000</ele>
        <time>2010-01-01T02:20:12Z</time>
      </trkpt>
      <trkpt lat="27.76796000" lon="87.36918000">
        <ele>2212.0000</ele>
        <time>2010-01-01T02:20:29Z</time>
      </trkpt>
      <trkpt lat="27.76809000" lon="87.36880000">
        <ele>2231.0000</ele>
        <time>2010-01-01T02:20:58Z</time>
      </trkpt>
      <trkpt lat="27.76814000" lon="87.36874000">
        <ele>2233.0000</ele>
        <time>2010-01-01T02:21:03Z</time>
      </trkpt>
      <trkpt lat="27.76812000" lon="87.36865000">
        <ele>2235.0000</ele>
        <time>2010-01-01T02:21:10Z</time>
      </trkpt>
      <trkpt lat="27.76803000" lon="87.36864000">
        <ele>2233.0000</ele>
        <time>2010-01-01T02:21:17Z</time>
      </trkpt>
      <trkpt lat="27.76801000" lon="87.36849000">
        <ele>2237.0000</ele>
        <time>2010-01-01T02:21:28Z</time>
      </trkpt>
      <trkpt lat="27.76792000" lon="87.36820000">
        <ele>2242.0000</ele>
        <time>2010-01-01T02:21:50Z</time>
      </trkpt>
      <trkpt lat="27.76764000" lon="87.36764000">
        <ele>2249.0000</ele>
        <time>2010-01-01T02:22:35Z</time>
      </trkpt>
      <trkpt lat="27.76757000" lon="87.36737000">
        <ele>2256.0000</ele>
        <time>2010-01-01T02:22:55Z</time>
      </trkpt>
      <trkpt lat="27.76747000" lon="87.36721000">
        <ele>2259.0000</ele>
        <time>2010-01-01T02:23:09Z</time>
      </trkpt>
      <trkpt lat="27.76735000" lon="87.36696000">
        <ele>2263.0000</ele>
        <time>2010-01-01T02:23:29Z</time>
      </trkpt>
      <trkpt lat="27.76738000" lon="87.36682000">
        <ele>2269.0000</ele>
        <time>2010-01-01T02:23:39Z</time>
      </trkpt>
      <trkpt lat="27.76736000" lon="87.36658000">
        <ele>2278.0000</ele>
        <time>2010-01-01T02:23:57Z</time>
      </trkpt>
      <trkpt lat="27.76730000" lon="87.36650000">
        <ele>2282.0000</ele>
        <time>2010-01-01T02:24:04Z</time>
      </trkpt>
      <trkpt lat="27.76723000" lon="87.36655000">
        <ele>2278.0000</ele>
        <time>2010-01-01T02:24:11Z</time>
      </trkpt>
      <trkpt lat="27.76689000" lon="87.36648000">
        <ele>2280.0000</ele>
        <time>2010-01-01T02:24:38Z</time>
      </trkpt>
      <trkpt lat="27.76668000" lon="87.36649000">
        <ele>2276.0000</ele>
        <time>2010-01-01T02:24:55Z</time>
      </trkpt>
      <trkpt lat="27.76660000" lon="87.36640000">
        <ele>2279.0000</ele>
        <time>2010-01-01T02:25:04Z</time>
      </trkpt>
      <trkpt lat="27.76662000" lon="87.36623000">
        <ele>2287.0000</ele>
        <time>2010-01-01T02:25:16Z</time>
      </trkpt>
      <trkpt lat="27.76669000" lon="87.36591000">
        <ele>2300.0000</ele>
        <time>2010-01-01T02:25:40Z</time>
      </trkpt>
      <trkpt lat="27.76680000" lon="87.36557000">
        <ele>2308.0000</ele>
        <time>2010-01-01T02:26:05Z</time>
      </trkpt>
      <trkpt lat="27.76691000" lon="87.36562000">
        <ele>2308.0000</ele>
        <time>2010-01-01T02:26:15Z</time>
      </trkpt>
      <trkpt lat="27.76693000" lon="87.36547000">
        <ele>2310.0000</ele>
        <time>2010-01-01T02:26:26Z</time>
      </trkpt>
      <trkpt lat="27.76690000" lon="87.36539000">
        <ele>2311.0000</ele>
        <time>2010-01-01T02:26:32Z</time>
      </trkpt>
      <trkpt lat="27.76698000" lon="87.36495000">
        <ele>2317.0000</ele>
        <time>2010-01-01T02:27:04Z</time>
      </trkpt>
      <trkpt lat="27.76688000" lon="87.36494000">
        <ele>2316.0000</ele>
        <time>2010-01-01T02:27:12Z</time>
      </trkpt>
      <trkpt lat="27.76701000" lon="87.36466000">
        <ele>2325.0000</ele>
        <time>2010-01-01T02:27:34Z</time>
      </trkpt>
      <trkpt lat="27.76729425" lon="87.36431121">
        <ele>2338.0000</ele>
        <time>2010-01-01T00:00:00Z</time>
      </trkpt>
      <trkpt lat="27.76741000" lon="87.36394000">
        <ele>2354.0000</ele>
        <time>2010-01-01T00:00:27Z</time>
      </trkpt>
      <trkpt lat="27.76736000" lon="87.36392000">
        <ele>2354.0000</ele>
        <time>2010-01-01T00:00:32Z</time>
      </trkpt>
      <trkpt lat="27.76752000" lon="87.36357000">
        <ele>2367.0000</ele>
        <time>2010-01-01T00:01:00Z</time>
      </trkpt>
      <trkpt lat="27.76765000" lon="87.36320000">
        <ele>2378.0000</ele>
        <time>2010-01-01T00:01:28Z</time>
      </trkpt>
      <trkpt lat="27.76788000" lon="87.36297000">
        <ele>2388.0000</ele>
        <time>2010-01-01T00:01:52Z</time>
      </trkpt>
      <trkpt lat="27.76827000" lon="87.36289000">
        <ele>2395.0000</ele>
        <time>2010-01-01T00:02:24Z</time>
      </trkpt>
      <trkpt lat="27.76833000" lon="87.36267000">
        <ele>2401.0000</ele>
        <time>2010-01-01T00:02:40Z</time>
      </trkpt>
      <trkpt lat="27.76841000" lon="87.36255000">
        <ele>2405.0000</ele>
        <time>2010-01-01T00:02:51Z</time>
      </trkpt>
      <trkpt lat="27.76844000" lon="87.36232000">
        <ele>2414.0000</ele>
        <time>2010-01-01T00:03:07Z</time>
      </trkpt>
      <trkpt lat="27.76867000" lon="87.36224000">
        <ele>2422.0000</ele>
        <time>2010-01-01T00:03:27Z</time>
      </trkpt>
      <trkpt lat="27.76893000" lon="87.36194000">
        <ele>2437.0000</ele>
        <time>2010-01-01T00:03:56Z</time>
      </trkpt>
      <trkpt lat="27.76922000" lon="87.36172000">
        <ele>2448.0000</ele>
        <time>2010-01-01T00:04:24Z</time>
      </trkpt>
      <trkpt lat="27.76945000" lon="87.36149000">
        <ele>2459.0000</ele>
        <time>2010-01-01T00:04:49Z</time>
      </trkpt>
      <trkpt lat="27.76990000" lon="87.36140000">
        <ele>2464.0000</ele>
        <time>2010-01-01T00:05:26Z</time>
      </trkpt>
      <trkpt lat="27.76981000" lon="87.36118000">
        <ele>2476.0000</ele>
        <time>2010-01-01T00:05:43Z</time>
      </trkpt>
      <trkpt lat="27.76989000" lon="87.36113000">
        <ele>2479.0000</ele>
        <time>2010-01-01T00:05:50Z</time>
      </trkpt>
      <trkpt lat="27.76980000" lon="87.36092000">
        <ele>2492.0000</ele>
        <time>2010-01-01T00:06:07Z</time>
      </trkpt>
      <trkpt lat="27.77003000" lon="87.36081000">
        <ele>2502.0000</ele>
        <time>2010-01-01T00:06:27Z</time>
      </trkpt>
      <trkpt lat="27.77007000" lon="87.36041000">
        <ele>2519.0000</ele>
        <time>2010-01-01T00:06:55Z</time>
      </trkpt>
      <trkpt lat="27.77002000" lon="87.36019000">
        <ele>2525.0000</ele>
        <time>2010-01-01T00:07:11Z</time>
      </trkpt>
      <trkpt lat="27.77019000" lon="87.35978000">
        <ele>2541.0000</ele>
        <time>2010-01-01T00:07:43Z</time>
      </trkpt>
      <trkpt lat="27.77033000" lon="87.35962000">
        <ele>2548.0000</ele>
        <time>2010-01-01T00:07:59Z</time>
      </trkpt>
      <trkpt lat="27.77053000" lon="87.35897000">
        <ele>2574.0000</ele>
        <time>2010-01-01T00:08:48Z</time>
      </trkpt>
      <trkpt lat="27.77080000" lon="87.35884000">
        <ele>2578.0000</ele>
        <time>2010-01-01T00:09:12Z</time>
      </trkpt>
      <trkpt lat="27.77067000" lon="87.35854000">
        <ele>2590.0000</ele>
        <time>2010-01-01T00:09:35Z</time>
      </trkpt>
      <trkpt lat="27.77078000" lon="87.35834000">
        <ele>2603.0000</ele>
        <time>2010-01-01T00:09:52Z</time>
      </trkpt>
      <trkpt lat="27.77079000" lon="87.35805000">
        <ele>2616.0000</ele>
        <time>2010-01-01T00:10:12Z</time>
      </trkpt>
      <trkpt lat="27.77087000" lon="87.35798000">
        <ele>2621.0000</ele>
        <time>2010-01-01T00:10:21Z</time>
      </trkpt>
      <trkpt lat="27.77081000" lon="87.35747000">
        <ele>2630.0000</ele>
        <time>2010-01-01T00:10:57Z</time>
      </trkpt>
      <trkpt lat="27.77076000" lon="87.35734000">
        <ele>2632.0000</ele>
        <time>2010-01-01T00:11:07Z</time>
      </trkpt>
      <trkpt lat="27.77084000" lon="87.35701000">
        <ele>2643.0000</ele>
        <time>2010-01-01T00:11:31Z</time>
      </trkpt>
      <trkpt lat="27.77145000" lon="87.35598000">
        <ele>2687.0000</ele>
        <time>2010-01-01T00:12:59Z</time>
      </trkpt>
      <trkpt lat="27.77179000" lon="87.35573000">
        <ele>2701.0000</ele>
        <time>2010-01-01T00:13:32Z</time>
      </trkpt>
      <trkpt lat="27.77206000" lon="87.35537000">
        <ele>2711.0000</ele>
        <time>2010-01-01T00:14:05Z</time>
      </trkpt>
      <trkpt lat="27.77237000" lon="87.35484000">
        <ele>2706.0000</ele>
        <time>2010-01-01T00:14:50Z</time>
      </trkpt>
      <trkpt lat="27.77270000" lon="87.35467000">
        <ele>2704.0000</ele>
        <time>2010-01-01T00:15:19Z</time>
      </trkpt>
      <trkpt lat="27.77298000" lon="87.35441000">
        <ele>2698.0000</ele>
        <time>2010-01-01T00:15:48Z</time>
      </trkpt>
      <trkpt lat="27.77335000" lon="87.35426000">
        <ele>2698.0000</ele>
        <time>2010-01-01T00:16:19Z</time>
      </trkpt>
      <trkpt lat="27.77362000" lon="87.35423000">
        <ele>2699.0000</ele>
        <time>2010-01-01T00:16:41Z</time>
      </trkpt>
      <trkpt lat="27.77389000" lon="87.35407000">
        <ele>2697.0000</ele>
        <time>2010-01-01T00:17:06Z</time>
      </trkpt>
      <trkpt lat="27.77420000" lon="87.35336000">
        <ele>2688.0000</ele>
        <time>2010-01-01T00:18:02Z</time>
      </trkpt>
      <trkpt lat="27.77470000" lon="87.35237000">
        <ele>2681.0000</ele>
        <time>2010-01-01T00:19:22Z</time>
      </trkpt>
      <trkpt lat="27.77503000" lon="87.35213000">
        <ele>2688.0000</ele>
        <time>2010-01-01T00:19:54Z</time>
      </trkpt>
      <trkpt lat="27.77544000" lon="87.35201000">
        <ele>2691.0000</ele>
        <time>2010-01-01T00:20:28Z</time>
      </trkpt>
      <trkpt lat="27.77594000" lon="87.35205000">
        <ele>2699.0000</ele>
        <time>2010-01-01T00:21:08Z</time>
      </trkpt>
      <trkpt lat="27.77632000" lon="87.35210000">
        <ele>2708.0000</ele>
        <time>2010-01-01T00:21:39Z</time>
      </trkpt>
      <trkpt lat="27.77678000" lon="87.35187000">
        <ele>2712.0000</ele>
        <time>2010-01-01T00:22:19Z</time>
      </trkpt>
      <trkpt lat="27.77719000" lon="87.35164000">
        <ele>2721.0000</ele>
        <time>2010-01-01T00:22:55Z</time>
      </trkpt>
      <trkpt lat="27.77760000" lon="87.35161000">
        <ele>2725.0000</ele>
        <time>2010-01-01T00:23:28Z</time>
      </trkpt>
      <trkpt lat="27.77790000" lon="87.35122000">
        <ele>2727.0000</ele>
        <time>2010-01-01T00:24:05Z</time>
      </trkpt>
      <trkpt lat="27.77803000" lon="87.35095000">
        <ele>2738.0000</ele>
        <time>2010-01-01T00:24:27Z</time>
      </trkpt>
      <trkpt lat="27.77798000" lon="87.35063000">
        <ele>2750.0000</ele>
        <time>2010-01-01T00:24:50Z</time>
      </trkpt>
      <trkpt lat="27.77787000" lon="87.35036000">
        <ele>2758.0000</ele>
        <time>2010-01-01T00:25:11Z</time>
      </trkpt>
      <trkpt lat="27.77793000" lon="87.34996000">
        <ele>2768.0000</ele>
        <time>2010-01-01T00:25:40Z</time>
      </trkpt>
      <trkpt lat="27.77846000" lon="87.34941000">
        <ele>2771.0000</ele>
        <time>2010-01-01T00:26:37Z</time>
      </trkpt>
      <trkpt lat="27.77892000" lon="87.34909000">
        <ele>2771.0000</ele>
        <time>2010-01-01T00:27:20Z</time>
      </trkpt>
      <trkpt lat="27.77915000" lon="87.34910000">
        <ele>2780.0000</ele>
        <time>2010-01-01T00:27:39Z</time>
      </trkpt>
      <trkpt lat="27.77931000" lon="87.34879000">
        <ele>2781.0000</ele>
        <time>2010-01-01T00:28:04Z</time>
      </trkpt>
      <trkpt lat="27.77965000" lon="87.34870000">
        <ele>2795.0000</ele>
        <time>2010-01-01T00:28:32Z</time>
      </trkpt>
      <trkpt lat="27.78009000" lon="87.34826000">
        <ele>2789.0000</ele>
        <time>2010-01-01T00:29:19Z</time>
      </trkpt>
      <trkpt lat="27.78159000" lon="87.34646000">
        <ele>2803.0000</ele>
        <time>2010-01-01T00:32:14Z</time>
      </trkpt>
      <trkpt lat="27.78216000" lon="87.34597000">
        <ele>2826.0000</ele>
        <time>2010-01-01T00:33:12Z</time>
      </trkpt>
      <trkpt lat="27.78245000" lon="87.34536000">
        <ele>2826.0000</ele>
        <time>2010-01-01T00:34:01Z</time>
      </trkpt>
      <trkpt lat="27.78255000" lon="87.34482000">
        <ele>2825.0000</ele>
        <time>2010-01-01T00:34:40Z</time>
      </trkpt>
      <trkpt lat="27.78281000" lon="87.34446000">
        <ele>2834.0000</ele>
        <time>2010-01-01T00:35:13Z</time>
      </trkpt>
      <trkpt lat="27.78306000" lon="87.34424000">
        <ele>2841.0000</ele>
        <time>2010-01-01T00:35:38Z</time>
      </trkpt>
      <trkpt lat="27.78345000" lon="87.34412000">
        <ele>2842.0000</ele>
        <time>2010-01-01T00:36:10Z</time>
      </trkpt>
      <trkpt lat="27.78377000" lon="87.34405000">
        <ele>2843.0000</ele>
        <time>2010-01-01T00:36:37Z</time>
      </trkpt>
      <trkpt lat="27.78415000" lon="87.34361000">
        <ele>2843.0000</ele>
        <time>2010-01-01T00:37:20Z</time>
      </trkpt>
      <trkpt lat="27.78507000" lon="87.34313000">
        <ele>2861.0000</ele>
        <time>2010-01-01T00:38:41Z</time>
      </trkpt>
      <trkpt lat="27.78564000" lon="87.34258000">
        <ele>2874.0000</ele>
        <time>2010-01-01T00:39:41Z</time>
      </trkpt>
      <trkpt lat="27.78612000" lon="87.34260000">
        <ele>2888.0000</ele>
        <time>2010-01-01T00:40:20Z</time>
      </trkpt>
      <trkpt lat="27.78754000" lon="87.34292000">
        <ele>2913.0000</ele>
        <time>2010-01-01T00:42:16Z</time>
      </trkpt>
      <trkpt lat="27.78880000" lon="87.34286000">
        <ele>2940.0000</ele>
        <time>2010-01-01T00:43:57Z</time>
      </trkpt>
      <trkpt lat="27.78966000" lon="87.34225000">
        <ele>2943.0000</ele>
        <time>2010-01-01T00:45:18Z</time>
      </trkpt>
      <trkpt lat="27.78985000" lon="87.34212000">
        <ele>2945.0000</ele>
        <time>2010-01-01T00:45:36Z</time>
      </trkpt>
      <trkpt lat="27.79057000" lon="87.34200000">
        <ele>2955.0000</ele>
        <time>2010-01-01T00:46:34Z</time>
      </trkpt>
      <trkpt lat="27.79150000" lon="87.34179000">
        <ele>2975.0000</ele>
        <time>2010-01-01T00:47:50Z</time>
      </trkpt>
      <trkpt lat="27.79580000" lon="87.34183000">
        <ele>3066.0000</ele>
        <time>2010-01-01T00:53:34Z</time>
      </trkpt>
      <trkpt lat="27.79673000" lon="87.34250000">
        <ele>3103.0000</ele>
        <time>2010-01-01T00:55:02Z</time>
      </trkpt>
      <trkpt lat="27.79862000" lon="87.34204000">
        <ele>3173.0000</ele>
        <time>2010-01-01T00:57:37Z</time>
      </trkpt>
      <trkpt lat="27.79934000" lon="87.34196000">
        <ele>3209.0000</ele>
        <time>2010-01-01T00:58:35Z</time>
      </trkpt>
      <trkpt lat="27.80026000" lon="87.34163000">
        <ele>3246.0000</ele>
        <time>2010-01-01T00:59:52Z</time>
      </trkpt>
      <trkpt lat="27.80131000" lon="87.34106000">
        <ele>3281.0000</ele>
        <time>2010-01-01T01:01:26Z</time>
      </trkpt>
      <trkpt lat="27.80394000" lon="87.34050000">
        <ele>3406.0000</ele>
        <time>2010-01-01T01:05:00Z</time>
      </trkpt>
      <trkpt lat="27.80560000" lon="87.33988000">
        <ele>3491.0000</ele>
        <time>2010-01-01T01:07:20Z</time>
      </trkpt>
      <trkpt lat="27.80599000" lon="87.34023000">
        <ele>3536.0000</ele>
        <time>2010-01-01T01:08:00Z</time>
      </trkpt>
      <trkpt lat="27.80741000" lon="87.33934000">
        <ele>3600.0000</ele>
        <time>2010-01-01T01:10:10Z</time>
      </trkpt>
      <trkpt lat="27.81016561" lon="87.33817577">
        <ele>3758.0000</ele>
        <time>2010-01-01T01:14:05Z</time>
      </trkpt>
      <trkpt lat="27.81115253" lon="87.33748912">
        <ele>3824.0000</ele>
        <time>2010-01-01T01:15:38Z</time>
      </trkpt>
      <trkpt lat="27.81202556" lon="87.33748912">
        <ele>3848.0000</ele>
        <time>2010-01-01T01:16:48Z</time>
      </trkpt>
      <trkpt lat="27.81263289" lon="87.33710289">
        <ele>3871.0000</ele>
        <time>2010-01-01T01:17:44Z</time>
      </trkpt>
      <trkpt lat="27.81308838" lon="87.33568668">
        <ele>3935.0000</ele>
        <time>2010-01-01T01:19:30Z</time>
      </trkpt>
      <trkpt lat="27.81312634" lon="87.33465671">
        <ele>3956.0000</ele>
        <time>2010-01-01T01:20:43Z</time>
      </trkpt>
      <trkpt lat="27.81415118" lon="87.33431339">
        <ele>3951.0000</ele>
        <time>2010-01-01T01:22:09Z</time>
      </trkpt>
      <trkpt lat="27.81483441" lon="87.33409881">
        <ele>3949.0000</ele>
        <time>2010-01-01T01:23:06Z</time>
      </trkpt>
      <trkpt lat="27.81570742" lon="87.33336925">
        <ele>3967.0000</ele>
        <time>2010-01-01T01:24:33Z</time>
      </trkpt>
      <trkpt lat="27.81597311" lon="87.33229637">
        <ele>3965.0000</ele>
        <time>2010-01-01T01:25:52Z</time>
      </trkpt>
      <trkpt lat="27.81555559" lon="87.33148097">
        <ele>3981.0000</ele>
        <time>2010-01-01T01:26:58Z</time>
      </trkpt>
      <trkpt lat="27.81502420" lon="87.33122348">
        <ele>3967.0000</ele>
        <time>2010-01-01T01:27:45Z</time>
      </trkpt>
      <trkpt lat="27.81498624" lon="87.33109474">
        <ele>3964.0000</ele>
        <time>2010-01-01T00:00:00Z</time>
      </trkpt>
      <trkpt lat="27.81412331" lon="87.32886314">
        <ele>3980.0000</ele>
        <time>2010-01-01T00:02:52Z</time>
      </trkpt>
      <trkpt lat="27.81336416" lon="87.32748985">
        <ele>4064.0000</ele>
        <time>2010-01-01T00:04:47Z</time>
      </trkpt>
      <trkpt lat="27.81237727" lon="87.32654571">
        <ele>4144.0000</ele>
        <time>2010-01-01T00:06:30Z</time>
      </trkpt>
      <trkpt lat="27.81108669" lon="87.32508659">
        <ele>4201.0000</ele>
        <time>2010-01-01T00:08:56Z</time>
      </trkpt>
      <trkpt lat="27.81025161" lon="87.32388496">
        <ele>4215.0000</ele>
        <time>2010-01-01T00:10:44Z</time>
      </trkpt>
      <trkpt lat="27.80964427" lon="87.32225418">
        <ele>4192.0000</ele>
        <time>2010-01-01T00:12:50Z</time>
      </trkpt>
      <trkpt lat="27.80903693" lon="87.31976509">
        <ele>4184.0000</ele>
        <time>2010-01-01T00:15:53Z</time>
      </trkpt>
      <trkpt lat="27.80911285" lon="87.31693267">
        <ele>4090.0000</ele>
        <time>2010-01-01T00:19:13Z</time>
      </trkpt>
      <trkpt lat="27.80918877" lon="87.31418609">
        <ele>4012.0000</ele>
        <time>2010-01-01T00:22:28Z</time>
      </trkpt>
      <trkpt lat="27.80918877" lon="87.31109619">
        <ele>3953.0000</ele>
        <time>2010-01-01T00:26:07Z</time>
      </trkpt>
      <trkpt lat="27.80949244" lon="87.30912208">
        <ele>3908.0000</ele>
        <time>2010-01-01T00:28:29Z</time>
      </trkpt>
      <trkpt lat="27.81047936" lon="87.30525970">
        <ele>3878.0000</ele>
        <time>2010-01-01T00:33:13Z</time>
      </trkpt>
      <trkpt lat="27.81169402" lon="87.30225563">
        <ele>3826.0000</ele>
        <time>2010-01-01T00:37:07Z</time>
      </trkpt>
      <trkpt lat="27.81245318" lon="87.30062484">
        <ele>3785.0000</ele>
        <time>2010-01-01T00:39:18Z</time>
      </trkpt>
      <trkpt lat="27.81488245" lon="87.29839324">
        <ele>3594.0000</ele>
        <time>2010-01-01T00:43:28Z</time>
      </trkpt>
      <trkpt lat="27.81298459" lon="87.29418754">
        <ele>3544.0000</ele>
        <time>2010-01-01T00:49:03Z</time>
      </trkpt>
      <trkpt lat="27.81306050" lon="87.29384422">
        <ele>3543.0000</ele>
        <time>2010-01-01T00:00:00Z</time>
      </trkpt>
      <trkpt lat="27.81040344" lon="87.28740692">
        <ele>3503.0000</ele>
        <time>2010-01-01T00:08:23Z</time>
      </trkpt>
      <trkpt lat="27.80820183" lon="87.28500366">
        <ele>3470.0000</ele>
        <time>2010-01-01T00:12:28Z</time>
      </trkpt>
      <trkpt lat="27.80508913" lon="87.28234291">
        <ele>3416.0000</ele>
        <time>2010-01-01T00:17:40Z</time>
      </trkpt>
      <trkpt lat="27.80364663" lon="87.28071212">
        <ele>3389.0000</ele>
        <time>2010-01-01T00:20:23Z</time>
      </trkpt>
      <trkpt lat="27.80144488" lon="87.27787971">
        <ele>3333.0000</ele>
        <time>2010-01-01T00:24:50Z</time>
      </trkpt>
      <trkpt lat="27.79878753" lon="87.27453231">
        <ele>3199.0000</ele>
        <time>2010-01-01T00:30:09Z</time>
      </trkpt>
      <trkpt lat="27.79711717" lon="87.27066993">
        <ele>3040.0000</ele>
        <time>2010-01-01T00:35:13Z</time>
      </trkpt>
      <trkpt lat="27.79613012" lon="87.26921081">
        <ele>3009.0000</ele>
        <time>2010-01-01T00:37:23Z</time>
      </trkpt>
      <trkpt lat="27.79392822" lon="87.26912498">
        <ele>3051.0000</ele>
        <time>2010-01-01T00:40:20Z</time>
      </trkpt>
      <trkpt lat="27.79013173" lon="87.26903915">
        <ele>3037.0000</ele>
        <time>2010-01-01T00:45:24Z</time>
      </trkpt>
      <trkpt lat="27.78777784" lon="87.26886749">
        <ele>2982.0000</ele>
        <time>2010-01-01T00:48:33Z</time>
      </trkpt>
      <trkpt lat="27.78557577" lon="87.26878166">
        <ele>2949.0000</ele>
        <time>2010-01-01T00:51:29Z</time>
      </trkpt>
      <trkpt lat="27.78382927" lon="87.26861000">
        <ele>2923.0000</ele>
        <time>2010-01-01T00:53:49Z</time>
      </trkpt>
      <trkpt lat="27.78238649" lon="87.26800918">
        <ele>2874.0000</ele>
        <time>2010-01-01T00:55:53Z</time>
      </trkpt>
      <trkpt lat="27.78170306" lon="87.26758003">
        <ele>2865.0000</ele>
        <time>2010-01-01T00:56:55Z</time>
      </trkpt>
      <trkpt lat="27.78170306" lon="87.26552009">
        <ele>2944.0000</ele>
        <time>2010-01-01T00:59:21Z</time>
      </trkpt>
      <trkpt lat="27.78162712" lon="87.26363182">
        <ele>2986.0000</ele>
        <time>2010-01-01T01:01:35Z</time>
      </trkpt>
      <trkpt lat="27.78155118" lon="87.26140022">
        <ele>3005.0000</ele>
        <time>2010-01-01T01:04:13Z</time>
      </trkpt>
      <trkpt lat="27.78124743" lon="87.25934028">
        <ele>3041.0000</ele>
        <time>2010-01-01T01:06:41Z</time>
      </trkpt>
      <trkpt lat="27.78071587" lon="87.25736618">
        <ele>3074.0000</ele>
        <time>2010-01-01T01:09:07Z</time>
      </trkpt>
      <trkpt lat="27.78010837" lon="87.25650787">
        <ele>3118.0000</ele>
        <time>2010-01-01T01:10:25Z</time>
      </trkpt>
      <trkpt lat="27.77995649" lon="87.25659370">
        <ele>3137.0000</ele>
        <time>2010-01-01T00:00:00Z</time>
      </trkpt>
      <trkpt lat="27.77843772" lon="87.25530624">
        <ele>3407.0000</ele>
        <time>2010-01-01T00:01:15Z</time>
      </trkpt>
      <trkpt lat="27.77775426" lon="87.25470542">
        <ele>3409.0000</ele>
        <time>2010-01-01T00:01:50Z</time>
      </trkpt>
      <trkpt lat="27.77615952" lon="87.25410461">
        <ele>3514.0000</ele>
        <time>2010-01-01T00:02:57Z</time>
      </trkpt>
      <trkpt lat="27.77334967" lon="87.25376129">
        <ele>3662.0000</ele>
        <time>2010-01-01T00:04:51Z</time>
      </trkpt>
      <trkpt lat="27.77114731" lon="87.25376129">
        <ele>3797.0000</ele>
        <time>2010-01-01T00:06:19Z</time>
      </trkpt>
      <trkpt lat="27.76970435" lon="87.25358963">
        <ele>3856.0000</ele>
        <time>2010-01-01T00:07:17Z</time>
      </trkpt>
      <trkpt lat="27.76810949" lon="87.25316047">
        <ele>3927.0000</ele>
        <time>2010-01-01T00:08:22Z</time>
      </trkpt>
      <trkpt lat="27.76681839" lon="87.25247383">
        <ele>4047.0000</ele>
        <time>2010-01-01T00:09:20Z</time>
      </trkpt>
      <trkpt lat="27.76605892" lon="87.24989891">
        <ele>4180.0000</ele>
        <time>2010-01-01T00:10:56Z</time>
      </trkpt>
      <trkpt lat="27.76522349" lon="87.24826812">
        <ele>4263.0000</ele>
        <time>2010-01-01T00:12:02Z</time>
      </trkpt>
      <trkpt lat="27.76408425" lon="87.24552154">
        <ele>4354.0000</ele>
        <time>2010-01-01T00:13:50Z</time>
      </trkpt>
      <trkpt lat="27.76218550" lon="87.24294662">
        <ele>4282.0000</ele>
        <time>2010-01-01T00:15:49Z</time>
      </trkpt>
      <trkpt lat="27.76051458" lon="87.24114418">
        <ele>4150.0000</ele>
        <time>2010-01-01T00:17:21Z</time>
      </trkpt>
      <trkpt lat="27.75891958" lon="87.23994255">
        <ele>4136.0000</ele>
        <time>2010-01-01T00:18:38Z</time>
      </trkpt>
      <trkpt lat="27.75717265" lon="87.23848342">
        <ele>4182.0000</ele>
        <time>2010-01-01T00:20:05Z</time>
      </trkpt>
      <trkpt lat="27.75588142" lon="87.23711013">
        <ele>4237.0000</ele>
        <time>2010-01-01T00:21:16Z</time>
      </trkpt>
      <trkpt lat="27.75322296" lon="87.23470687">
        <ele>4270.0000</ele>
        <time>2010-01-01T00:23:32Z</time>
      </trkpt>
      <trkpt lat="27.75200765" lon="87.23350524">
        <ele>4288.0000</ele>
        <time>2010-01-01T00:24:37Z</time>
      </trkpt>
      <trkpt lat="27.75102019" lon="87.23247528">
        <ele>4327.0000</ele>
        <time>2010-01-01T00:25:30Z</time>
      </trkpt>
      <trkpt lat="27.75102019" lon="87.23135948">
        <ele>4359.0000</ele>
        <time>2010-01-01T00:26:10Z</time>
      </trkpt>
      <trkpt lat="27.75162786" lon="87.23041534">
        <ele>4386.0000</ele>
        <time>2010-01-01T00:26:51Z</time>
      </trkpt>
      <trkpt lat="27.75261531" lon="87.22929954">
        <ele>4432.0000</ele>
        <time>2010-01-01T00:27:47Z</time>
      </trkpt>
      <trkpt lat="27.75329892" lon="87.22723960">
        <ele>4349.0000</ele>
        <time>2010-01-01T00:29:05Z</time>
      </trkpt>
      <trkpt lat="27.75261531" lon="87.22586631">
        <ele>4284.0000</ele>
        <time>2010-01-01T00:30:01Z</time>
      </trkpt>
      <trkpt lat="27.75170382" lon="87.22397804">
        <ele>4373.0000</ele>
        <time>2010-01-01T00:31:17Z</time>
      </trkpt>
      <trkpt lat="27.75071636" lon="87.22200393">
        <ele>4414.0000</ele>
        <time>2010-01-01T00:32:38Z</time>
      </trkpt>
      <trkpt lat="27.74995677" lon="87.22028732">
        <ele>4453.0000</ele>
        <time>2010-01-01T00:33:46Z</time>
      </trkpt>
      <trkpt lat="27.74965293" lon="87.21882820">
        <ele>4543.0000</ele>
        <time>2010-01-01T00:34:39Z</time>
      </trkpt>
      <trkpt lat="27.74972889" lon="87.21762657">
        <ele>4602.0000</ele>
        <time>2010-01-01T00:35:21Z</time>
      </trkpt>
      <trkpt lat="27.75026061" lon="87.21693992">
        <ele>4603.0000</ele>
        <time>2010-01-01T00:35:54Z</time>
      </trkpt>
      <trkpt lat="27.75147594" lon="87.21573829">
        <ele>4510.0000</ele>
        <time>2010-01-01T00:36:58Z</time>
      </trkpt>
      <trkpt lat="27.75223552" lon="87.21470832">
        <ele>4488.0000</ele>
        <time>2010-01-01T00:37:46Z</time>
      </trkpt>
      <trkpt lat="27.75284318" lon="87.21410751">
        <ele>4394.0000</ele>
        <time>2010-01-01T00:38:18Z</time>
      </trkpt>
      <trkpt lat="27.75269127" lon="87.21273422">
        <ele>4304.0000</ele>
        <time>2010-01-01T00:39:07Z</time>
      </trkpt>
      <trkpt lat="27.75208361" lon="87.21144676">
        <ele>4250.0000</ele>
        <time>2010-01-01T00:39:59Z</time>
      </trkpt>
      <trkpt lat="27.75107598" lon="87.21033096">
        <ele>4190.0000</ele>
        <time>2010-01-01T00:40:55Z</time>
      </trkpt>
      <trkpt lat="27.75033657" lon="87.20930099">
        <ele>4146.0000</ele>
        <time>2010-01-01T00:41:42Z</time>
      </trkpt>
      <trkpt lat="27.74919718" lon="87.20861434">
        <ele>4171.0000</ele>
        <time>2010-01-01T00:42:34Z</time>
      </trkpt>
      <trkpt lat="27.74775393" lon="87.20784187">
        <ele>4126.0000</ele>
        <time>2010-01-01T00:43:38Z</time>
      </trkpt>
      <trkpt lat="27.74781981" lon="87.20775604">
        <ele>4124.0000</ele>
        <time>2010-01-01T00:00:00Z</time>
      </trkpt>
      <trkpt lat="27.74584481" lon="87.20762729">
        <ele>4096.0000</ele>
        <time>2010-01-01T00:02:38Z</time>
      </trkpt>
      <trkpt lat="27.74451547" lon="87.20762729">
        <ele>4095.0000</ele>
        <time>2010-01-01T00:04:24Z</time>
      </trkpt>
      <trkpt lat="27.74307216" lon="87.20758438">
        <ele>4046.0000</ele>
        <time>2010-01-01T00:06:20Z</time>
      </trkpt>
      <trkpt lat="27.74151489" lon="87.20736980">
        <ele>4018.0000</ele>
        <time>2010-01-01T00:08:26Z</time>
      </trkpt>
      <trkpt lat="27.74056533" lon="87.20724105">
        <ele>3912.0000</ele>
        <time>2010-01-01T00:09:42Z</time>
      </trkpt>
      <trkpt lat="27.73953978" lon="87.20668315">
        <ele>3878.0000</ele>
        <time>2010-01-01T00:11:13Z</time>
      </trkpt>
      <trkpt lat="27.73878012" lon="87.20543861">
        <ele>3917.0000</ele>
        <time>2010-01-01T00:13:00Z</time>
      </trkpt>
      <trkpt lat="27.73790649" lon="87.20419406">
        <ele>3897.0000</ele>
        <time>2010-01-01T00:14:53Z</time>
      </trkpt>
      <trkpt lat="27.73695690" lon="87.20299243">
        <ele>3894.0000</ele>
        <time>2010-01-01T00:16:47Z</time>
      </trkpt>
      <trkpt lat="27.73623520" lon="87.20217704">
        <ele>3819.0000</ele>
        <time>2010-01-01T00:18:09Z</time>
      </trkpt>
      <trkpt lat="27.73494372" lon="87.20097541">
        <ele>3727.0000</ele>
        <time>2010-01-01T00:20:23Z</time>
      </trkpt>
      <trkpt lat="27.73422201" lon="87.20050334">
        <ele>3673.0000</ele>
        <time>2010-01-01T00:21:29Z</time>
      </trkpt>
      <trkpt lat="27.73327238" lon="87.19985961">
        <ele>3589.0000</ele>
        <time>2010-01-01T00:22:58Z</time>
      </trkpt>
      <trkpt lat="27.73232274" lon="87.19895839">
        <ele>3516.0000</ele>
        <time>2010-01-01T00:24:37Z</time>
      </trkpt>
      <trkpt lat="27.73209482" lon="87.19775676">
        <ele>3479.0000</ele>
        <time>2010-01-01T00:26:04Z</time>
      </trkpt>
      <trkpt lat="27.73342432" lon="87.19543933">
        <ele>3491.0000</ele>
        <time>2010-01-01T00:29:20Z</time>
      </trkpt>
      <trkpt lat="27.73494372" lon="87.19337940">
        <ele>3526.0000</ele>
        <time>2010-01-01T00:32:30Z</time>
      </trkpt>
      <trkpt lat="27.73676698" lon="87.19106197">
        <ele>3527.0000</ele>
        <time>2010-01-01T00:36:10Z</time>
      </trkpt>
      <trkpt lat="27.73927390" lon="87.18831539">
        <ele>3550.0000</ele>
        <time>2010-01-01T00:40:49Z</time>
      </trkpt>
      <trkpt lat="27.74295822" lon="87.18410968">
        <ele>3568.0000</ele>
        <time>2010-01-01T00:47:49Z</time>
      </trkpt>
      <trkpt lat="27.74538904" lon="87.18020439">
        <ele>3582.0000</ele>
        <time>2010-01-01T00:53:27Z</time>
      </trkpt>
      <trkpt lat="27.74835153" lon="87.17595577">
        <ele>3612.0000</ele>
        <time>2010-01-01T00:59:50Z</time>
      </trkpt>
      <trkpt lat="27.75245331" lon="87.17192173">
        <ele>3647.0000</ele>
        <time>2010-01-01T01:07:06Z</time>
      </trkpt>
      <trkpt lat="27.75678279" lon="87.16861724">
        <ele>3651.0000</ele>
        <time>2010-01-01T01:14:04Z</time>
      </trkpt>
      <trkpt lat="27.76065639" lon="87.16492652">
        <ele>3659.0000</ele>
        <time>2010-01-01T01:20:50Z</time>
      </trkpt>
      <trkpt lat="27.76061000" lon="87.16488000">
        <ele>3658.0000</ele>
        <time>2010-01-01T01:20:55Z</time>
      </trkpt>
      <trkpt lat="27.76070000" lon="87.16477000">
        <ele>3657.0000</ele>
        <time>2010-01-01T01:21:05Z</time>
      </trkpt>
      <trkpt lat="27.76080000" lon="87.16474000">
        <ele>3656.0000</ele>
        <time>2010-01-01T01:21:13Z</time>
      </trkpt>
      <trkpt lat="27.76117000" lon="87.16456000">
        <ele>3653.0000</ele>
        <time>2010-01-01T01:21:46Z</time>
      </trkpt>
      <trkpt lat="27.76133000" lon="87.16443000">
        <ele>3650.0000</ele>
        <time>2010-01-01T01:22:02Z</time>
      </trkpt>
      <trkpt lat="27.76150000" lon="87.16436000">
        <ele>3650.0000</ele>
        <time>2010-01-01T01:22:16Z</time>
      </trkpt>
      <trkpt lat="27.76163000" lon="87.16434000">
        <ele>3651.0000</ele>
        <time>2010-01-01T01:22:26Z</time>
      </trkpt>
      <trkpt lat="27.76165000" lon="87.16426000">
        <ele>3650.0000</ele>
        <time>2010-01-01T01:22:32Z</time>
      </trkpt>
      <trkpt lat="27.76192000" lon="87.16396000">
        <ele>3652.0000</ele>
        <time>2010-01-01T01:23:03Z</time>
      </trkpt>
      <trkpt lat="27.76198000" lon="87.16392000">
        <ele>3653.0000</ele>
        <time>2010-01-01T01:23:08Z</time>
      </trkpt>
      <trkpt lat="27.76202000" lon="87.16381000">
        <ele>3654.0000</ele>
        <time>2010-01-01T01:23:17Z</time>
      </trkpt>
      <trkpt lat="27.76209000" lon="87.16374000">
        <ele>3655.0000</ele>
        <time>2010-01-01T01:23:24Z</time>
      </trkpt>
      <trkpt lat="27.76222000" lon="87.16349000">
        <ele>3656.0000</ele>
        <time>2010-01-01T01:23:45Z</time>
      </trkpt>
      <trkpt lat="27.76223000" lon="87.16343000">
        <ele>3655.0000</ele>
        <time>2010-01-01T01:23:49Z</time>
      </trkpt>
      <trkpt lat="27.76233000" lon="87.16321000">
        <ele>3656.0000</ele>
        <time>2010-01-01T01:24:07Z</time>
      </trkpt>
      <trkpt lat="27.76237000" lon="87.16309000">
        <ele>3656.0000</ele>
        <time>2010-01-01T01:24:16Z</time>
      </trkpt>
      <trkpt lat="27.76247000" lon="87.16304000">
        <ele>3657.0000</ele>
        <time>2010-01-01T01:24:24Z</time>
      </trkpt>
      <trkpt lat="27.76264000" lon="87.16302000">
        <ele>3658.0000</ele>
        <time>2010-01-01T01:24:38Z</time>
      </trkpt>
      <trkpt lat="27.76286000" lon="87.16294000">
        <ele>3659.0000</ele>
        <time>2010-01-01T01:24:57Z</time>
      </trkpt>
      <trkpt lat="27.76293000" lon="87.16283000">
        <ele>3660.0000</ele>
        <time>2010-01-01T01:25:06Z</time>
      </trkpt>
      <trkpt lat="27.76328000" lon="87.16256000">
        <ele>3659.0000</ele>
        <time>2010-01-01T01:25:40Z</time>
      </trkpt>
      <trkpt lat="27.76353000" lon="87.16234000">
        <ele>3662.0000</ele>
        <time>2010-01-01T01:26:05Z</time>
      </trkpt>
      <trkpt lat="27.76373000" lon="87.16221000">
        <ele>3665.0000</ele>
        <time>2010-01-01T01:26:24Z</time>
      </trkpt>
      <trkpt lat="27.76391000" lon="87.16204000">
        <ele>3669.0000</ele>
        <time>2010-01-01T01:26:43Z</time>
      </trkpt>
      <trkpt lat="27.76396000" lon="87.16196000">
        <ele>3670.0000</ele>
        <time>2010-01-01T01:26:50Z</time>
      </trkpt>
      <trkpt lat="27.76398000" lon="87.16188000">
        <ele>3669.0000</ele>
        <time>2010-01-01T01:26:56Z</time>
      </trkpt>
      <trkpt lat="27.76396000" lon="87.16167000">
        <ele>3667.0000</ele>
        <time>2010-01-01T01:27:11Z</time>
      </trkpt>
      <trkpt lat="27.76401000" lon="87.16152000">
        <ele>3665.0000</ele>
        <time>2010-01-01T01:27:22Z</time>
      </trkpt>
      <trkpt lat="27.76406000" lon="87.16145000">
        <ele>3664.0000</ele>
        <time>2010-01-01T01:27:28Z</time>
      </trkpt>
      <trkpt lat="27.76420000" lon="87.16136000">
        <ele>3665.0000</ele>
        <time>2010-01-01T01:27:41Z</time>
      </trkpt>
      <trkpt lat="27.76435000" lon="87.16122000">
        <ele>3670.0000</ele>
        <time>2010-01-01T01:27:57Z</time>
      </trkpt>
      <trkpt lat="27.76446000" lon="87.16109000">
        <ele>3673.0000</ele>
        <time>2010-01-01T01:28:09Z</time>
      </trkpt>
      <trkpt lat="27.76455000" lon="87.16103000">
        <ele>3674.0000</ele>
        <time>2010-01-01T01:28:18Z</time>
      </trkpt>
      <trkpt lat="27.76462000" lon="87.16072000">
        <ele>3674.0000</ele>
        <time>2010-01-01T01:28:41Z</time>
      </trkpt>
      <trkpt lat="27.76469000" lon="87.16059000">
        <ele>3675.0000</ele>
        <time>2010-01-01T01:28:51Z</time>
      </trkpt>
      <trkpt lat="27.76482000" lon="87.16051000">
        <ele>3678.0000</ele>
        <time>2010-01-01T01:29:03Z</time>
      </trkpt>
      <trkpt lat="27.76492000" lon="87.16047000">
        <ele>3680.0000</ele>
        <time>2010-01-01T01:29:12Z</time>
      </trkpt>
      <trkpt lat="27.76505000" lon="87.16044000">
        <ele>3681.0000</ele>
        <time>2010-01-01T01:29:22Z</time>
      </trkpt>
      <trkpt lat="27.76516000" lon="87.16042000">
        <ele>3680.0000</ele>
        <time>2010-01-01T01:29:31Z</time>
      </trkpt>
      <trkpt lat="27.76527000" lon="87.16044000">
        <ele>3679.0000</ele>
        <time>2010-01-01T01:29:40Z</time>
      </trkpt>
      <trkpt lat="27.76548000" lon="87.16034000">
        <ele>3680.0000</ele>
        <time>2010-01-01T01:29:58Z</time>
      </trkpt>
      <trkpt lat="27.76560000" lon="87.16020000">
        <ele>3681.0000</ele>
        <time>2010-01-01T01:30:12Z</time>
      </trkpt>
      <trkpt lat="27.76589000" lon="87.15997000">
        <ele>3685.0000</ele>
        <time>2010-01-01T01:30:41Z</time>
      </trkpt>
      <trkpt lat="27.76605000" lon="87.15994000">
        <ele>3688.0000</ele>
        <time>2010-01-01T01:30:53Z</time>
      </trkpt>
      <trkpt lat="27.76615000" lon="87.15990000">
        <ele>3689.0000</ele>
        <time>2010-01-01T01:31:02Z</time>
      </trkpt>
      <trkpt lat="27.76614000" lon="87.15981000">
        <ele>3690.0000</ele>
        <time>2010-01-01T01:31:08Z</time>
      </trkpt>
      <trkpt lat="27.76621000" lon="87.15974000">
        <ele>3691.0000</ele>
        <time>2010-01-01T01:31:16Z</time>
      </trkpt>
      <trkpt lat="27.76636000" lon="87.15977000">
        <ele>3692.0000</ele>
        <time>2010-01-01T01:31:28Z</time>
      </trkpt>
      <trkpt lat="27.76646000" lon="87.15975000">
        <ele>3693.0000</ele>
        <time>2010-01-01T01:31:36Z</time>
      </trkpt>
      <trkpt lat="27.76645000" lon="87.15972000">
        <ele>3693.0000</ele>
        <time>2010-01-01T01:31:39Z</time>
      </trkpt>
      <trkpt lat="27.76698000" lon="87.15958000">
        <ele>3704.0000</ele>
        <time>2010-01-01T01:32:22Z</time>
      </trkpt>
      <trkpt lat="27.76709000" lon="87.15935000">
        <ele>3700.0000</ele>
        <time>2010-01-01T01:32:41Z</time>
      </trkpt>
      <trkpt lat="27.76722000" lon="87.15922000">
        <ele>3694.0000</ele>
        <time>2010-01-01T01:32:54Z</time>
      </trkpt>
      <trkpt lat="27.76733000" lon="87.15917000">
        <ele>3692.0000</ele>
        <time>2010-01-01T01:33:04Z</time>
      </trkpt>
      <trkpt lat="27.76744000" lon="87.15909000">
        <ele>3693.0000</ele>
        <time>2010-01-01T01:33:14Z</time>
      </trkpt>
      <trkpt lat="27.76774000" lon="87.15880000">
        <ele>3705.0000</ele>
        <time>2010-01-01T01:33:46Z</time>
      </trkpt>
      <trkpt lat="27.76839000" lon="87.15840000">
        <ele>3709.0000</ele>
        <time>2010-01-01T01:34:45Z</time>
      </trkpt>
      <trkpt lat="27.76863000" lon="87.15817000">
        <ele>3710.0000</ele>
        <time>2010-01-01T01:35:11Z</time>
      </trkpt>
      <trkpt lat="27.76870000" lon="87.15813000">
        <ele>3710.0000</ele>
        <time>2010-01-01T01:35:17Z</time>
      </trkpt>
      <trkpt lat="27.76870000" lon="87.15814000">
        <ele>3710.0000</ele>
        <time>2010-01-01T01:35:18Z</time>
      </trkpt>
      <trkpt lat="27.76875000" lon="87.15811000">
        <ele>3710.0000</ele>
        <time>2010-01-01T01:35:22Z</time>
      </trkpt>
      <trkpt lat="27.76887000" lon="87.15800000">
        <ele>3710.0000</ele>
        <time>2010-01-01T01:35:34Z</time>
      </trkpt>
      <trkpt lat="27.76900000" lon="87.15785000">
        <ele>3712.0000</ele>
        <time>2010-01-01T01:35:49Z</time>
      </trkpt>
      <trkpt lat="27.76911000" lon="87.15778000">
        <ele>3714.0000</ele>
        <time>2010-01-01T01:35:59Z</time>
      </trkpt>
      <trkpt lat="27.76922000" lon="87.15765000">
        <ele>3715.0000</ele>
        <time>2010-01-01T01:36:12Z</time>
      </trkpt>
      <trkpt lat="27.76934000" lon="87.15759000">
        <ele>3716.0000</ele>
        <time>2010-01-01T01:36:23Z</time>
      </trkpt>
      <trkpt lat="27.76945000" lon="87.15757000">
        <ele>3718.0000</ele>
        <time>2010-01-01T01:36:32Z</time>
      </trkpt>
      <trkpt lat="27.76951000" lon="87.15753000">
        <ele>3719.0000</ele>
        <time>2010-01-01T01:36:37Z</time>
      </trkpt>
      <trkpt lat="27.76969000" lon="87.15752000">
        <ele>3723.0000</ele>
        <time>2010-01-01T01:36:52Z</time>
      </trkpt>
      <trkpt lat="27.76975000" lon="87.15752000">
        <ele>3724.0000</ele>
        <time>2010-01-01T01:36:56Z</time>
      </trkpt>
      <trkpt lat="27.76980000" lon="87.15756000">
        <ele>3725.0000</ele>
        <time>2010-01-01T01:37:01Z</time>
      </trkpt>
      <trkpt lat="27.76992000" lon="87.15753000">
        <ele>3726.0000</ele>
        <time>2010-01-01T01:37:11Z</time>
      </trkpt>
      <trkpt lat="27.76995000" lon="87.15749000">
        <ele>3726.0000</ele>
        <time>2010-01-01T01:37:15Z</time>
      </trkpt>
      <trkpt lat="27.77002000" lon="87.15749000">
        <ele>3726.0000</ele>
        <time>2010-01-01T01:37:20Z</time>
      </trkpt>
      <trkpt lat="27.77023000" lon="87.15741000">
        <ele>3723.0000</ele>
        <time>2010-01-01T01:37:38Z</time>
      </trkpt>
      <trkpt lat="27.77025000" lon="87.15737000">
        <ele>3722.0000</ele>
        <time>2010-01-01T01:37:41Z</time>
      </trkpt>
      <trkpt lat="27.77032000" lon="87.15731000">
        <ele>3722.0000</ele>
        <time>2010-01-01T01:37:48Z</time>
      </trkpt>
      <trkpt lat="27.77034000" lon="87.15725000">
        <ele>3722.0000</ele>
        <time>2010-01-01T01:37:53Z</time>
      </trkpt>
      <trkpt lat="27.77045000" lon="87.15712000">
        <ele>3726.0000</ele>
        <time>2010-01-01T01:38:06Z</time>
      </trkpt>
      <trkpt lat="27.77056000" lon="87.15711000">
        <ele>3731.0000</ele>
        <time>2010-01-01T01:38:15Z</time>
      </trkpt>
      <trkpt lat="27.77064000" lon="87.15701000">
        <ele>3735.0000</ele>
        <time>2010-01-01T01:38:24Z</time>
      </trkpt>
      <trkpt lat="27.77066000" lon="87.15685000">
        <ele>3733.0000</ele>
        <time>2010-01-01T01:38:36Z</time>
      </trkpt>
      <trkpt lat="27.77091000" lon="87.15660000">
        <ele>3735.0000</ele>
        <time>2010-01-01T01:39:02Z</time>
      </trkpt>
      <trkpt lat="27.77114000" lon="87.15654000">
        <ele>3741.0000</ele>
        <time>2010-01-01T01:39:21Z</time>
      </trkpt>
      <trkpt lat="27.77123000" lon="87.15642000">
        <ele>3742.0000</ele>
        <time>2010-01-01T01:39:32Z</time>
      </trkpt>
      <trkpt lat="27.77130000" lon="87.15613000">
        <ele>3742.0000</ele>
        <time>2010-01-01T01:39:54Z</time>
      </trkpt>
      <trkpt lat="27.77141000" lon="87.15584000">
        <ele>3741.0000</ele>
        <time>2010-01-01T01:40:16Z</time>
      </trkpt>
      <trkpt lat="27.77170000" lon="87.15569000">
        <ele>3748.0000</ele>
        <time>2010-01-01T01:40:42Z</time>
      </trkpt>
      <trkpt lat="27.77191000" lon="87.15549000">
        <ele>3751.0000</ele>
        <time>2010-01-01T01:41:04Z</time>
      </trkpt>
      <trkpt lat="27.77211000" lon="87.15540000">
        <ele>3752.0000</ele>
        <time>2010-01-01T01:41:21Z</time>
      </trkpt>
      <trkpt lat="27.77219000" lon="87.15532000">
        <ele>3752.0000</ele>
        <time>2010-01-01T01:41:29Z</time>
      </trkpt>
      <trkpt lat="27.77228000" lon="87.15531000">
        <ele>3753.0000</ele>
        <time>2010-01-01T01:41:37Z</time>
      </trkpt>
      <trkpt lat="27.77246000" lon="87.15502000">
        <ele>3752.0000</ele>
        <time>2010-01-01T01:42:02Z</time>
      </trkpt>
      <trkpt lat="27.77258000" lon="87.15495000">
        <ele>3753.0000</ele>
        <time>2010-01-01T01:42:12Z</time>
      </trkpt>
      <trkpt lat="27.77278000" lon="87.15487000">
        <ele>3756.0000</ele>
        <time>2010-01-01T01:42:29Z</time>
      </trkpt>
      <trkpt lat="27.77298000" lon="87.15475000">
        <ele>3758.0000</ele>
        <time>2010-01-01T01:42:48Z</time>
      </trkpt>
      <trkpt lat="27.77347000" lon="87.15465000">
        <ele>3766.0000</ele>
        <time>2010-01-01T01:43:27Z</time>
      </trkpt>
      <trkpt lat="27.77351000" lon="87.15470000">
        <ele>3767.0000</ele>
        <time>2010-01-01T01:43:32Z</time>
      </trkpt>
      <trkpt lat="27.77371000" lon="87.15469000">
        <ele>3770.0000</ele>
        <time>2010-01-01T01:43:48Z</time>
      </trkpt>
      <trkpt lat="27.77385000" lon="87.15472000">
        <ele>3773.0000</ele>
        <time>2010-01-01T01:44:00Z</time>
      </trkpt>
      <trkpt lat="27.77407000" lon="87.15470000">
        <ele>3770.0000</ele>
        <time>2010-01-01T01:44:17Z</time>
      </trkpt>
      <trkpt lat="27.77422000" lon="87.15482000">
        <ele>3775.0000</ele>
        <time>2010-01-01T01:44:32Z</time>
      </trkpt>
      <trkpt lat="27.77422000" lon="87.15481000">
        <ele>3774.0000</ele>
        <time>2010-01-01T01:44:33Z</time>
      </trkpt>
      <trkpt lat="27.77439000" lon="87.15495000">
        <ele>3784.0000</ele>
        <time>2010-01-01T01:44:50Z</time>
      </trkpt>
      <trkpt lat="27.77458000" lon="87.15501000">
        <ele>3780.0000</ele>
        <time>2010-01-01T01:45:05Z</time>
      </trkpt>
      <trkpt lat="27.77474000" lon="87.15509000">
        <ele>3775.0000</ele>
        <time>2010-01-01T01:45:19Z</time>
      </trkpt>
      <trkpt lat="27.77476000" lon="87.15513000">
        <ele>3777.0000</ele>
        <time>2010-01-01T01:45:23Z</time>
      </trkpt>
      <trkpt lat="27.77495000" lon="87.15524000">
        <ele>3777.0000</ele>
        <time>2010-01-01T01:45:40Z</time>
      </trkpt>
      <trkpt lat="27.77506000" lon="87.15523000">
        <ele>3776.0000</ele>
        <time>2010-01-01T01:45:49Z</time>
      </trkpt>
      <trkpt lat="27.77530000" lon="87.15528000">
        <ele>3780.0000</ele>
        <time>2010-01-01T01:46:08Z</time>
      </trkpt>
      <trkpt lat="27.77549000" lon="87.15535000">
        <ele>3785.0000</ele>
        <time>2010-01-01T01:46:24Z</time>
      </trkpt>
      <trkpt lat="27.77565000" lon="87.15536000">
        <ele>3789.0000</ele>
        <time>2010-01-01T01:46:37Z</time>
      </trkpt>
      <trkpt lat="27.77585000" lon="87.15544000">
        <ele>3800.0000</ele>
        <time>2010-01-01T01:46:54Z</time>
      </trkpt>
      <trkpt lat="27.77589000" lon="87.15534000">
        <ele>3795.0000</ele>
        <time>2010-01-01T01:47:02Z</time>
      </trkpt>
      <trkpt lat="27.77599000" lon="87.15529000">
        <ele>3791.0000</ele>
        <time>2010-01-01T01:47:10Z</time>
      </trkpt>
      <trkpt lat="27.77609000" lon="87.15536000">
        <ele>3795.0000</ele>
        <time>2010-01-01T01:47:20Z</time>
      </trkpt>
      <trkpt lat="27.77608000" lon="87.15540000">
        <ele>3798.0000</ele>
        <time>2010-01-01T01:47:23Z</time>
      </trkpt>
      <trkpt lat="27.77612000" lon="87.15547000">
        <ele>3804.0000</ele>
        <time>2010-01-01T01:47:29Z</time>
      </trkpt>
      <trkpt lat="27.77610000" lon="87.15553000">
        <ele>3809.0000</ele>
        <time>2010-01-01T01:47:33Z</time>
      </trkpt>
      <trkpt lat="27.77619000" lon="87.15554000">
        <ele>3808.0000</ele>
        <time>2010-01-01T01:47:40Z</time>
      </trkpt>
      <trkpt lat="27.77620000" lon="87.15562000">
        <ele>3813.0000</ele>
        <time>2010-01-01T01:47:46Z</time>
      </trkpt>
      <trkpt lat="27.77624000" lon="87.15562000">
        <ele>3813.0000</ele>
        <time>2010-01-01T01:47:49Z</time>
      </trkpt>
      <trkpt lat="27.77622000" lon="87.15567000">
        <ele>3817.0000</ele>
        <time>2010-01-01T01:47:53Z</time>
      </trkpt>
      <trkpt lat="27.77630000" lon="87.15575000">
        <ele>3821.0000</ele>
        <time>2010-01-01T01:48:02Z</time>
      </trkpt>
      <trkpt lat="27.77641000" lon="87.15596000">
        <ele>3834.0000</ele>
        <time>2010-01-01T01:48:19Z</time>
      </trkpt>
      <trkpt lat="27.77656000" lon="87.15614000">
        <ele>3846.0000</ele>
        <time>2010-01-01T01:48:37Z</time>
      </trkpt>
      <trkpt lat="27.77659000" lon="87.15611000">
        <ele>3846.0000</ele>
        <time>2010-01-01T01:48:40Z</time>
      </trkpt>
      <trkpt lat="27.77673000" lon="87.15623000">
        <ele>3853.0000</ele>
        <time>2010-01-01T01:48:54Z</time>
      </trkpt>
      <trkpt lat="27.77675000" lon="87.15636000">
        <ele>3857.0000</ele>
        <time>2010-01-01T01:49:03Z</time>
      </trkpt>
      <trkpt lat="27.77673000" lon="87.15639000">
        <ele>3857.0000</ele>
        <time>2010-01-01T01:49:06Z</time>
      </trkpt>
      <trkpt lat="27.77674000" lon="87.15644000">
        <ele>3860.0000</ele>
        <time>2010-01-01T01:49:10Z</time>
      </trkpt>
      <trkpt lat="27.77680000" lon="87.15645000">
        <ele>3862.0000</ele>
        <time>2010-01-01T01:49:14Z</time>
      </trkpt>
      <trkpt lat="27.77684000" lon="87.15654000">
        <ele>3866.0000</ele>
        <time>2010-01-01T01:49:22Z</time>
      </trkpt>
      <trkpt lat="27.77695000" lon="87.15656000">
        <ele>3869.0000</ele>
        <time>2010-01-01T01:49:30Z</time>
      </trkpt>
      <trkpt lat="27.77700000" lon="87.15663000">
        <ele>3872.0000</ele>
        <time>2010-01-01T01:49:37Z</time>
      </trkpt>
      <trkpt lat="27.77699000" lon="87.15663000">
        <ele>3872.0000</ele>
        <time>2010-01-01T01:49:38Z</time>
      </trkpt>
      <trkpt lat="27.77701000" lon="87.15665000">
        <ele>3873.0000</ele>
        <time>2010-01-01T01:49:40Z</time>
      </trkpt>
      <trkpt lat="27.77708000" lon="87.15664000">
        <ele>3874.0000</ele>
        <time>2010-01-01T01:49:45Z</time>
      </trkpt>
      <trkpt lat="27.77722000" lon="87.15683000">
        <ele>3881.0000</ele>
        <time>2010-01-01T01:50:03Z</time>
      </trkpt>
      <trkpt lat="27.77737000" lon="87.15691000">
        <ele>3881.0000</ele>
        <time>2010-01-01T01:50:16Z</time>
      </trkpt>
      <trkpt lat="27.77747000" lon="87.15694000">
        <ele>3881.0000</ele>
        <time>2010-01-01T01:50:24Z</time>
      </trkpt>
      <trkpt lat="27.77757000" lon="87.15692000">
        <ele>3880.0000</ele>
        <time>2010-01-01T01:50:33Z</time>
      </trkpt>
      <trkpt lat="27.77774000" lon="87.15685000">
        <ele>3879.0000</ele>
        <time>2010-01-01T01:50:47Z</time>
      </trkpt>
      <trkpt lat="27.77785000" lon="87.15686000">
        <ele>3879.0000</ele>
        <time>2010-01-01T01:50:56Z</time>
      </trkpt>
      <trkpt lat="27.77802000" lon="87.15683000">
        <ele>3881.0000</ele>
        <time>2010-01-01T01:51:10Z</time>
      </trkpt>
      <trkpt lat="27.77809000" lon="87.15685000">
        <ele>3881.0000</ele>
        <time>2010-01-01T01:51:16Z</time>
      </trkpt>
      <trkpt lat="27.77811000" lon="87.15693000">
        <ele>3881.0000</ele>
        <time>2010-01-01T01:51:21Z</time>
      </trkpt>
      <trkpt lat="27.77824000" lon="87.15680000">
        <ele>3884.0000</ele>
        <time>2010-01-01T01:51:35Z</time>
      </trkpt>
      <trkpt lat="27.77828000" lon="87.15668000">
        <ele>3885.0000</ele>
        <time>2010-01-01T01:51:44Z</time>
      </trkpt>
      <trkpt lat="27.77841000" lon="87.15665000">
        <ele>3888.0000</ele>
        <time>2010-01-01T01:51:55Z</time>
      </trkpt>
      <trkpt lat="27.77848000" lon="87.15659000">
        <ele>3890.0000</ele>
        <time>2010-01-01T01:52:02Z</time>
      </trkpt>
      <trkpt lat="27.77865000" lon="87.15660000">
        <ele>3895.0000</ele>
        <time>2010-01-01T01:52:16Z</time>
      </trkpt>
      <trkpt lat="27.77886000" lon="87.15670000">
        <ele>3898.0000</ele>
        <time>2010-01-01T01:52:34Z</time>
      </trkpt>
      <trkpt lat="27.77891000" lon="87.15677000">
        <ele>3899.0000</ele>
        <time>2010-01-01T01:52:40Z</time>
      </trkpt>
      <trkpt lat="27.77901000" lon="87.15685000">
        <ele>3898.0000</ele>
        <time>2010-01-01T01:52:50Z</time>
      </trkpt>
      <trkpt lat="27.77936000" lon="87.15700000">
        <ele>3895.0000</ele>
        <time>2010-01-01T01:53:20Z</time>
      </trkpt>
      <trkpt lat="27.77948000" lon="87.15700000">
        <ele>3892.0000</ele>
        <time>2010-01-01T01:53:30Z</time>
      </trkpt>
      <trkpt lat="27.77965000" lon="87.15706000">
        <ele>3887.0000</ele>
        <time>2010-01-01T01:53:44Z</time>
      </trkpt>
      <trkpt lat="27.77972000" lon="87.15712000">
        <ele>3888.0000</ele>
        <time>2010-01-01T01:53:51Z</time>
      </trkpt>
      <trkpt lat="27.77987000" lon="87.15719000">
        <ele>3892.0000</ele>
        <time>2010-01-01T01:54:04Z</time>
      </trkpt>
      <trkpt lat="27.77992000" lon="87.15726000">
        <ele>3894.0000</ele>
        <time>2010-01-01T01:54:10Z</time>
      </trkpt>
      <trkpt lat="27.77993000" lon="87.15733000">
        <ele>3896.0000</ele>
        <time>2010-01-01T01:54:15Z</time>
      </trkpt>
      <trkpt lat="27.77999000" lon="87.15728000">
        <ele>3895.0000</ele>
        <time>2010-01-01T01:54:21Z</time>
      </trkpt>
      <trkpt lat="27.78024000" lon="87.15737000">
        <ele>3896.0000</ele>
        <time>2010-01-01T01:54:42Z</time>
      </trkpt>
      <trkpt lat="27.78040000" lon="87.15740000">
        <ele>3896.0000</ele>
        <time>2010-01-01T01:54:55Z</time>
      </trkpt>
      <trkpt lat="27.78052000" lon="87.15738000">
        <ele>3896.0000</ele>
        <time>2010-01-01T01:55:05Z</time>
      </trkpt>
      <trkpt lat="27.78058000" lon="87.15733000">
        <ele>3896.0000</ele>
        <time>2010-01-01T01:55:11Z</time>
      </trkpt>
      <trkpt lat="27.78083000" lon="87.15721000">
        <ele>3900.0000</ele>
        <time>2010-01-01T01:55:33Z</time>
      </trkpt>
      <trkpt lat="27.78097000" lon="87.15722000">
        <ele>3901.0000</ele>
        <time>2010-01-01T01:55:44Z</time>
      </trkpt>
      <trkpt lat="27.78104000" lon="87.15719000">
        <ele>3902.0000</ele>
        <time>2010-01-01T01:55:50Z</time>
      </trkpt>
      <trkpt lat="27.78103000" lon="87.15719000">
        <ele>3902.0000</ele>
        <time>2010-01-01T01:55:51Z</time>
      </trkpt>
      <trkpt lat="27.78121000" lon="87.15720000">
        <ele>3903.0000</ele>
        <time>2010-01-01T01:56:05Z</time>
      </trkpt>
      <trkpt lat="27.78132000" lon="87.15717000">
        <ele>3903.0000</ele>
        <time>2010-01-01T01:56:14Z</time>
      </trkpt>
      <trkpt lat="27.78139000" lon="87.15721000">
        <ele>3904.0000</ele>
        <time>2010-01-01T01:56:21Z</time>
      </trkpt>
      <trkpt lat="27.78152000" lon="87.15722000">
        <ele>3904.0000</ele>
        <time>2010-01-01T01:56:31Z</time>
      </trkpt>
      <trkpt lat="27.78163000" lon="87.15717000">
        <ele>3905.0000</ele>
        <time>2010-01-01T01:56:40Z</time>
      </trkpt>
      <trkpt lat="27.78183000" lon="87.15729000">
        <ele>3905.0000</ele>
        <time>2010-01-01T01:56:59Z</time>
      </trkpt>
      <trkpt lat="27.78268000" lon="87.15735000">
        <ele>3901.0000</ele>
        <time>2010-01-01T01:58:07Z</time>
      </trkpt>
      <trkpt lat="27.78283000" lon="87.15730000">
        <ele>3902.0000</ele>
        <time>2010-01-01T01:58:19Z</time>
      </trkpt>
      <trkpt lat="27.78297000" lon="87.15721000">
        <ele>3904.0000</ele>
        <time>2010-01-01T01:58:32Z</time>
      </trkpt>
      <trkpt lat="27.78322000" lon="87.15707000">
        <ele>3908.0000</ele>
        <time>2010-01-01T01:58:55Z</time>
      </trkpt>
      <trkpt lat="27.78339000" lon="87.15693000">
        <ele>3909.0000</ele>
        <time>2010-01-01T01:59:11Z</time>
      </trkpt>
      <trkpt lat="27.78394000" lon="87.15657000">
        <ele>3910.0000</ele>
        <time>2010-01-01T02:00:02Z</time>
      </trkpt>
      <trkpt lat="27.78424000" lon="87.15631000">
        <ele>3915.0000</ele>
        <time>2010-01-01T02:00:32Z</time>
      </trkpt>
      <trkpt lat="27.78437000" lon="87.15625000">
        <ele>3916.0000</ele>
        <time>2010-01-01T02:00:44Z</time>
      </trkpt>
      <trkpt lat="27.78450000" lon="87.15622000">
        <ele>3916.0000</ele>
        <time>2010-01-01T02:00:54Z</time>
      </trkpt>
      <trkpt lat="27.78501000" lon="87.15600000">
        <ele>3924.0000</ele>
        <time>2010-01-01T02:01:38Z</time>
      </trkpt>
      <trkpt lat="27.78502000" lon="87.15603000">
        <ele>3924.0000</ele>
        <time>2010-01-01T02:01:40Z</time>
      </trkpt>
      <trkpt lat="27.78515000" lon="87.15600000">
        <ele>3928.0000</ele>
        <time>2010-01-01T02:01:51Z</time>
      </trkpt>
      <trkpt lat="27.78523000" lon="87.15592000">
        <ele>3931.0000</ele>
        <time>2010-01-01T02:02:00Z</time>
      </trkpt>
      <trkpt lat="27.78544000" lon="87.15588000">
        <ele>3929.0000</ele>
        <time>2010-01-01T02:02:17Z</time>
      </trkpt>
      <trkpt lat="27.78557000" lon="87.15589000">
        <ele>3926.0000</ele>
        <time>2010-01-01T02:02:27Z</time>
      </trkpt>
      <trkpt lat="27.78582000" lon="87.15593000">
        <ele>3926.0000</ele>
        <time>2010-01-01T02:02:47Z</time>
      </trkpt>
      <trkpt lat="27.78605000" lon="87.15585000">
        <ele>3929.0000</ele>
        <time>2010-01-01T02:03:06Z</time>
      </trkpt>
      <trkpt lat="27.78614000" lon="87.15584000">
        <ele>3931.0000</ele>
        <time>2010-01-01T02:03:14Z</time>
      </trkpt>
      <trkpt lat="27.78616000" lon="87.15580000">
        <ele>3932.0000</ele>
        <time>2010-01-01T02:03:17Z</time>
      </trkpt>
      <trkpt lat="27.78623000" lon="87.15585000">
        <ele>3934.0000</ele>
        <time>2010-01-01T02:03:24Z</time>
      </trkpt>
      <trkpt lat="27.78628000" lon="87.15580000">
        <ele>3935.0000</ele>
        <time>2010-01-01T02:03:29Z</time>
      </trkpt>
      <trkpt lat="27.78655000" lon="87.15584000">
        <ele>3941.0000</ele>
        <time>2010-01-01T02:03:51Z</time>
      </trkpt>
      <trkpt lat="27.78666000" lon="87.15591000">
        <ele>3942.0000</ele>
        <time>2010-01-01T02:04:01Z</time>
      </trkpt>
      <trkpt lat="27.78670000" lon="87.15587000">
        <ele>3943.0000</ele>
        <time>2010-01-01T02:04:05Z</time>
      </trkpt>
      <trkpt lat="27.78688000" lon="87.15591000">
        <ele>3946.0000</ele>
        <time>2010-01-01T02:04:20Z</time>
      </trkpt>
      <trkpt lat="27.78709000" lon="87.15593000">
        <ele>3949.0000</ele>
        <time>2010-01-01T02:04:37Z</time>
      </trkpt>
      <trkpt lat="27.78722000" lon="87.15590000">
        <ele>3951.0000</ele>
        <time>2010-01-01T02:04:47Z</time>
      </trkpt>
      <trkpt lat="27.78729000" lon="87.15582000">
        <ele>3952.0000</ele>
        <time>2010-01-01T02:04:55Z</time>
      </trkpt>
      <trkpt lat="27.78733000" lon="87.15583000">
        <ele>3953.0000</ele>
        <time>2010-01-01T02:04:59Z</time>
      </trkpt>
      <trkpt lat="27.78746000" lon="87.15593000">
        <ele>3957.0000</ele>
        <time>2010-01-01T02:05:11Z</time>
      </trkpt>
      <trkpt lat="27.78752000" lon="87.15589000">
        <ele>3958.0000</ele>
        <time>2010-01-01T02:05:17Z</time>
      </trkpt>
      <trkpt lat="27.78787000" lon="87.15588000">
        <ele>3961.0000</ele>
        <time>2010-01-01T02:05:45Z</time>
      </trkpt>
      <trkpt lat="27.78815000" lon="87.15582000">
        <ele>3961.0000</ele>
        <time>2010-01-01T02:06:08Z</time>
      </trkpt>
      <trkpt lat="27.78851000" lon="87.15552000">
        <ele>3975.0000</ele>
        <time>2010-01-01T02:06:43Z</time>
      </trkpt>
      <trkpt lat="27.78872000" lon="87.15530000">
        <ele>3980.0000</ele>
        <time>2010-01-01T02:07:06Z</time>
      </trkpt>
      <trkpt lat="27.78894000" lon="87.15529000">
        <ele>3987.0000</ele>
        <time>2010-01-01T02:07:24Z</time>
      </trkpt>
      <trkpt lat="27.78906000" lon="87.15522000">
        <ele>3988.0000</ele>
        <time>2010-01-01T02:07:35Z</time>
      </trkpt>
      <trkpt lat="27.78916000" lon="87.15524000">
        <ele>3990.0000</ele>
        <time>2010-01-01T02:07:43Z</time>
      </trkpt>
      <trkpt lat="27.78930000" lon="87.15517000">
        <ele>3992.0000</ele>
        <time>2010-01-01T02:07:55Z</time>
      </trkpt>
      <trkpt lat="27.78939000" lon="87.15503000">
        <ele>3993.0000</ele>
        <time>2010-01-01T02:08:07Z</time>
      </trkpt>
      <trkpt lat="27.78955000" lon="87.15503000">
        <ele>3995.0000</ele>
        <time>2010-01-01T02:08:20Z</time>
      </trkpt>
      <trkpt lat="27.78970000" lon="87.15491000">
        <ele>3996.0000</ele>
        <time>2010-01-01T02:08:35Z</time>
      </trkpt>
      <trkpt lat="27.78981000" lon="87.15473000">
        <ele>3996.0000</ele>
        <time>2010-01-01T02:08:50Z</time>
      </trkpt>
      <trkpt lat="27.79049000" lon="87.15406000">
        <ele>4006.0000</ele>
        <time>2010-01-01T02:10:03Z</time>
      </trkpt>
      <trkpt lat="27.79065000" lon="87.15373000">
        <ele>4002.0000</ele>
        <time>2010-01-01T02:10:29Z</time>
      </trkpt>
      <trkpt lat="27.79075000" lon="87.15356000">
        <ele>4001.0000</ele>
        <time>2010-01-01T02:10:44Z</time>
      </trkpt>
      <trkpt lat="27.79090000" lon="87.15344000">
        <ele>4003.0000</ele>
        <time>2010-01-01T02:10:58Z</time>
      </trkpt>
      <trkpt lat="27.79102000" lon="87.15330000">
        <ele>4006.0000</ele>
        <time>2010-01-01T02:11:12Z</time>
      </trkpt>
      <trkpt lat="27.79113000" lon="87.15314000">
        <ele>4010.0000</ele>
        <time>2010-01-01T02:11:27Z</time>
      </trkpt>
      <trkpt lat="27.79120000" lon="87.15277000">
        <ele>4013.0000</ele>
        <time>2010-01-01T02:11:53Z</time>
      </trkpt>
      <trkpt lat="27.79123000" lon="87.15247000">
        <ele>4011.0000</ele>
        <time>2010-01-01T02:12:15Z</time>
      </trkpt>
      <trkpt lat="27.79143000" lon="87.15197000">
        <ele>4013.0000</ele>
        <time>2010-01-01T02:12:54Z</time>
      </trkpt>
      <trkpt lat="27.79153000" lon="87.15167000">
        <ele>4016.0000</ele>
        <time>2010-01-01T02:13:16Z</time>
      </trkpt>
      <trkpt lat="27.79178000" lon="87.15050000">
        <ele>4028.0000</ele>
        <time>2010-01-01T02:14:42Z</time>
      </trkpt>
      <trkpt lat="27.79173000" lon="87.15050000">
        <ele>4028.0000</ele>
        <time>2010-01-01T02:14:46Z</time>
      </trkpt>
      <trkpt lat="27.79172000" lon="87.15043000">
        <ele>4028.0000</ele>
        <time>2010-01-01T02:14:51Z</time>
      </trkpt>
      <trkpt lat="27.79169000" lon="87.15038000">
        <ele>4028.0000</ele>
        <time>2010-01-01T02:14:55Z</time>
      </trkpt>
      <trkpt lat="27.79171000" lon="87.15030000">
        <ele>4028.0000</ele>
        <time>2010-01-01T02:15:01Z</time>
      </trkpt>
      <trkpt lat="27.79177000" lon="87.14966000">
        <ele>4036.0000</ele>
        <time>2010-01-01T02:15:46Z</time>
      </trkpt>
      <trkpt lat="27.79172000" lon="87.14955000">
        <ele>4038.0000</ele>
        <time>2010-01-01T02:15:55Z</time>
      </trkpt>
      <trkpt lat="27.79185000" lon="87.14921000">
        <ele>4049.0000</ele>
        <time>2010-01-01T02:16:21Z</time>
      </trkpt>
      <trkpt lat="27.79173000" lon="87.14897000">
        <ele>4048.0000</ele>
        <time>2010-01-01T02:16:41Z</time>
      </trkpt>
      <trkpt lat="27.79173000" lon="87.14877000">
        <ele>4048.0000</ele>
        <time>2010-01-01T02:16:55Z</time>
      </trkpt>
      <trkpt lat="27.79166000" lon="87.14861000">
        <ele>4047.0000</ele>
        <time>2010-01-01T02:17:08Z</time>
      </trkpt>
      <trkpt lat="27.79160000" lon="87.14836000">
        <ele>4049.0000</ele>
        <time>2010-01-01T02:17:26Z</time>
      </trkpt>
      <trkpt lat="27.79163000" lon="87.14799000">
        <ele>4057.0000</ele>
        <time>2010-01-01T02:17:52Z</time>
      </trkpt>
      <trkpt lat="27.79164000" lon="87.14773000">
        <ele>4063.0000</ele>
        <time>2010-01-01T02:18:11Z</time>
      </trkpt>
      <trkpt lat="27.79159000" lon="87.14769000">
        <ele>4062.0000</ele>
        <time>2010-01-01T02:18:16Z</time>
      </trkpt>
      <trkpt lat="27.79165000" lon="87.14745000">
        <ele>4067.0000</ele>
        <time>2010-01-01T02:18:33Z</time>
      </trkpt>
      <trkpt lat="27.79166000" lon="87.14719000">
        <ele>4071.0000</ele>
        <time>2010-01-01T02:18:52Z</time>
      </trkpt>
      <trkpt lat="27.79161000" lon="87.14712000">
        <ele>4070.0000</ele>
        <time>2010-01-01T02:18:58Z</time>
      </trkpt>
      <trkpt lat="27.79160000" lon="87.14705000">
        <ele>4070.0000</ele>
        <time>2010-01-01T02:19:03Z</time>
      </trkpt>
      <trkpt lat="27.79173000" lon="87.14659000">
        <ele>4069.0000</ele>
        <time>2010-01-01T02:19:37Z</time>
      </trkpt>
      <trkpt lat="27.79179000" lon="87.14613000">
        <ele>4073.0000</ele>
        <time>2010-01-01T02:20:10Z</time>
      </trkpt>
      <trkpt lat="27.79191000" lon="87.14585000">
        <ele>4078.0000</ele>
        <time>2010-01-01T02:20:32Z</time>
      </trkpt>
      <trkpt lat="27.79205000" lon="87.14572000">
        <ele>4083.0000</ele>
        <time>2010-01-01T02:20:47Z</time>
      </trkpt>
      <trkpt lat="27.79216000" lon="87.14549000">
        <ele>4087.0000</ele>
        <time>2010-01-01T02:21:05Z</time>
      </trkpt>
      <trkpt lat="27.79233000" lon="87.14485000">
        <ele>4097.0000</ele>
        <time>2010-01-01T02:21:53Z</time>
      </trkpt>
      <trkpt lat="27.79241000" lon="87.14423000">
        <ele>4105.0000</ele>
        <time>2010-01-01T02:22:37Z</time>
      </trkpt>
      <trkpt lat="27.79242000" lon="87.14406000">
        <ele>4105.0000</ele>
        <time>2010-01-01T02:22:49Z</time>
      </trkpt>
      <trkpt lat="27.79241000" lon="87.14392000">
        <ele>4105.0000</ele>
        <time>2010-01-01T02:22:59Z</time>
      </trkpt>
      <trkpt lat="27.79243000" lon="87.14375000">
        <ele>4105.0000</ele>
        <time>2010-01-01T02:23:11Z</time>
      </trkpt>
      <trkpt lat="27.79238000" lon="87.14357000">
        <ele>4105.0000</ele>
        <time>2010-01-01T02:23:25Z</time>
      </trkpt>
      <trkpt lat="27.79230000" lon="87.14338000">
        <ele>4107.0000</ele>
        <time>2010-01-01T02:23:40Z</time>
      </trkpt>
      <trkpt lat="27.79229000" lon="87.14305000">
        <ele>4110.0000</ele>
        <time>2010-01-01T02:24:03Z</time>
      </trkpt>
      <trkpt lat="27.79235000" lon="87.14285000">
        <ele>4111.0000</ele>
        <time>2010-01-01T02:24:18Z</time>
      </trkpt>
      <trkpt lat="27.79231000" lon="87.14263000">
        <ele>4114.0000</ele>
        <time>2010-01-01T02:24:34Z</time>
      </trkpt>
      <trkpt lat="27.79222000" lon="87.14234000">
        <ele>4116.0000</ele>
        <time>2010-01-01T02:24:56Z</time>
      </trkpt>
      <trkpt lat="27.79229000" lon="87.14181000">
        <ele>4123.0000</ele>
        <time>2010-01-01T02:25:33Z</time>
      </trkpt>
      <trkpt lat="27.79228000" lon="87.14168000">
        <ele>4123.0000</ele>
        <time>2010-01-01T02:25:43Z</time>
      </trkpt>
      <trkpt lat="27.79234000" lon="87.14153000">
        <ele>4129.0000</ele>
        <time>2010-01-01T02:25:54Z</time>
      </trkpt>
      <trkpt lat="27.79247000" lon="87.14130000">
        <ele>4139.0000</ele>
        <time>2010-01-01T02:26:14Z</time>
      </trkpt>
      <trkpt lat="27.79267000" lon="87.14104000">
        <ele>4148.0000</ele>
        <time>2010-01-01T02:26:38Z</time>
      </trkpt>
      <trkpt lat="27.79280000" lon="87.14071000">
        <ele>4154.0000</ele>
        <time>2010-01-01T02:27:04Z</time>
      </trkpt>
      <trkpt lat="27.79298000" lon="87.14016000">
        <ele>4155.0000</ele>
        <time>2010-01-01T02:27:45Z</time>
      </trkpt>
      <trkpt lat="27.79301000" lon="87.13968000">
        <ele>4161.0000</ele>
        <time>2010-01-01T02:28:19Z</time>
      </trkpt>
      <trkpt lat="27.79306000" lon="87.13947000">
        <ele>4164.0000</ele>
        <time>2010-01-01T02:28:35Z</time>
      </trkpt>
      <trkpt lat="27.79314000" lon="87.13929000">
        <ele>4169.0000</ele>
        <time>2010-01-01T02:28:49Z</time>
      </trkpt>
      <trkpt lat="27.79322000" lon="87.13887000">
        <ele>4180.0000</ele>
        <time>2010-01-01T02:29:19Z</time>
      </trkpt>
      <trkpt lat="27.79340000" lon="87.13861000">
        <ele>4187.0000</ele>
        <time>2010-01-01T02:29:43Z</time>
      </trkpt>
      <trkpt lat="27.79342000" lon="87.13847000">
        <ele>4191.0000</ele>
        <time>2010-01-01T02:29:53Z</time>
      </trkpt>
      <trkpt lat="27.79344000" lon="87.13837000">
        <ele>4194.0000</ele>
        <time>2010-01-01T02:30:00Z</time>
      </trkpt>
      <trkpt lat="27.79345000" lon="87.13823000">
        <ele>4197.0000</ele>
        <time>2010-01-01T02:30:10Z</time>
      </trkpt>
      <trkpt lat="27.79349000" lon="87.13806000">
        <ele>4201.0000</ele>
        <time>2010-01-01T02:30:22Z</time>
      </trkpt>
      <trkpt lat="27.79377000" lon="87.13796000">
        <ele>4204.0000</ele>
        <time>2010-01-01T02:30:46Z</time>
      </trkpt>
      <trkpt lat="27.79385000" lon="87.13776000">
        <ele>4211.0000</ele>
        <time>2010-01-01T02:31:02Z</time>
      </trkpt>
      <trkpt lat="27.79387000" lon="87.13755000">
        <ele>4216.0000</ele>
        <time>2010-01-01T02:31:17Z</time>
      </trkpt>
      <trkpt lat="27.79382000" lon="87.13731000">
        <ele>4222.0000</ele>
        <time>2010-01-01T02:31:34Z</time>
      </trkpt>
      <trkpt lat="27.79380000" lon="87.13701000">
        <ele>4229.0000</ele>
        <time>2010-01-01T02:31:55Z</time>
      </trkpt>
      <trkpt lat="27.79381000" lon="87.13671000">
        <ele>4239.0000</ele>
        <time>2010-01-01T02:32:17Z</time>
      </trkpt>
      <trkpt lat="27.79413000" lon="87.13609000">
        <ele>4256.0000</ele>
        <time>2010-01-01T02:33:07Z</time>
      </trkpt>
      <trkpt lat="27.79416000" lon="87.13585000">
        <ele>4257.0000</ele>
        <time>2010-01-01T02:33:25Z</time>
      </trkpt>
      <trkpt lat="27.79422000" lon="87.13540000">
        <ele>4263.0000</ele>
        <time>2010-01-01T02:33:57Z</time>
      </trkpt>
      <trkpt lat="27.79422000" lon="87.13476000">
        <ele>4267.0000</ele>
        <time>2010-01-01T02:34:42Z</time>
      </trkpt>
      <trkpt lat="27.79430000" lon="87.13460000">
        <ele>4274.0000</ele>
        <time>2010-01-01T02:34:55Z</time>
      </trkpt>
      <trkpt lat="27.79440000" lon="87.13448000">
        <ele>4280.0000</ele>
        <time>2010-01-01T02:35:07Z</time>
      </trkpt>
      <trkpt lat="27.79459000" lon="87.13431000">
        <ele>4285.0000</ele>
        <time>2010-01-01T02:35:26Z</time>
      </trkpt>
      <trkpt lat="27.79460000" lon="87.13404000">
        <ele>4291.0000</ele>
        <time>2010-01-01T02:35:45Z</time>
      </trkpt>
      <trkpt lat="27.79475000" lon="87.13361000">
        <ele>4301.0000</ele>
        <time>2010-01-01T02:36:18Z</time>
      </trkpt>
      <trkpt lat="27.79477000" lon="87.13342000">
        <ele>4304.0000</ele>
        <time>2010-01-01T02:36:32Z</time>
      </trkpt>
      <trkpt lat="27.79482000" lon="87.13326000">
        <ele>4308.0000</ele>
        <time>2010-01-01T02:36:44Z</time>
      </trkpt>
      <trkpt lat="27.79481000" lon="87.13307000">
        <ele>4313.0000</ele>
        <time>2010-01-01T02:36:57Z</time>
      </trkpt>
      <trkpt lat="27.79485000" lon="87.13287000">
        <ele>4317.0000</ele>
        <time>2010-01-01T02:37:12Z</time>
      </trkpt>
      <trkpt lat="27.79482000" lon="87.13268000">
        <ele>4319.0000</ele>
        <time>2010-01-01T02:37:25Z</time>
      </trkpt>
      <trkpt lat="27.79487000" lon="87.13261000">
        <ele>4318.0000</ele>
        <time>2010-01-01T02:37:32Z</time>
      </trkpt>
      <trkpt lat="27.79491000" lon="87.13227000">
        <ele>4319.0000</ele>
        <time>2010-01-01T02:37:56Z</time>
      </trkpt>
      <trkpt lat="27.79480000" lon="87.13205000">
        <ele>4322.0000</ele>
        <time>2010-01-01T02:38:14Z</time>
      </trkpt>
      <trkpt lat="27.79458000" lon="87.13189000">
        <ele>4323.0000</ele>
        <time>2010-01-01T02:38:35Z</time>
      </trkpt>
      <trkpt lat="27.79450000" lon="87.13174000">
        <ele>4323.0000</ele>
        <time>2010-01-01T02:38:47Z</time>
      </trkpt>
      <trkpt lat="27.79448000" lon="87.13154000">
        <ele>4322.0000</ele>
        <time>2010-01-01T02:39:01Z</time>
      </trkpt>
      <trkpt lat="27.79440000" lon="87.13143000">
        <ele>4320.0000</ele>
        <time>2010-01-01T02:39:12Z</time>
      </trkpt>
      <trkpt lat="27.79440000" lon="87.13116000">
        <ele>4319.0000</ele>
        <time>2010-01-01T02:39:31Z</time>
      </trkpt>
      <trkpt lat="27.79447000" lon="87.13073000">
        <ele>4327.0000</ele>
        <time>2010-01-01T02:40:02Z</time>
      </trkpt>
      <trkpt lat="27.79463000" lon="87.13036000">
        <ele>4345.0000</ele>
        <time>2010-01-01T02:40:31Z</time>
      </trkpt>
      <trkpt lat="27.79526000" lon="87.13007000">
        <ele>4358.0000</ele>
        <time>2010-01-01T02:41:25Z</time>
      </trkpt>
      <trkpt lat="27.79574000" lon="87.12981000">
        <ele>4369.0000</ele>
        <time>2010-01-01T02:42:08Z</time>
      </trkpt>
      <trkpt lat="27.79583000" lon="87.12961000">
        <ele>4372.0000</ele>
        <time>2010-01-01T02:42:24Z</time>
      </trkpt>
      <trkpt lat="27.79594000" lon="87.12954000">
        <ele>4374.0000</ele>
        <time>2010-01-01T02:42:34Z</time>
      </trkpt>
      <trkpt lat="27.79615029" lon="87.12965011">
        <ele>4374.0000</ele>
        <time>2010-01-01T00:00:00Z</time>
      </trkpt>
      <trkpt lat="27.79598000" lon="87.12949000">
        <ele>4376.0000</ele>
        <time>2010-01-01T00:00:08Z</time>
      </trkpt>
      <trkpt lat="27.79610000" lon="87.12933000">
        <ele>4381.0000</ele>
        <time>2010-01-01T00:00:16Z</time>
      </trkpt>
      <trkpt lat="27.79615000" lon="87.12913000">
        <ele>4387.0000</ele>
        <time>2010-01-01T00:00:23Z</time>
      </trkpt>
      <trkpt lat="27.79627000" lon="87.12898000">
        <ele>4390.0000</ele>
        <time>2010-01-01T00:00:30Z</time>
      </trkpt>
      <trkpt lat="27.79629000" lon="87.12880000">
        <ele>4393.0000</ele>
        <time>2010-01-01T00:00:37Z</time>
      </trkpt>
      <trkpt lat="27.79638000" lon="87.12841000">
        <ele>4399.0000</ele>
        <time>2010-01-01T00:00:51Z</time>
      </trkpt>
      <trkpt lat="27.79687000" lon="87.12770000">
        <ele>4422.0000</ele>
        <time>2010-01-01T00:01:23Z</time>
      </trkpt>
      <trkpt lat="27.79724000" lon="87.12712000">
        <ele>4429.0000</ele>
        <time>2010-01-01T00:01:48Z</time>
      </trkpt>
      <trkpt lat="27.79732000" lon="87.12615000">
        <ele>4446.0000</ele>
        <time>2010-01-01T00:02:23Z</time>
      </trkpt>
      <trkpt lat="27.79734000" lon="87.12541000">
        <ele>4458.0000</ele>
        <time>2010-01-01T00:02:49Z</time>
      </trkpt>
      <trkpt lat="27.79730000" lon="87.12506000">
        <ele>4463.0000</ele>
        <time>2010-01-01T00:03:01Z</time>
      </trkpt>
      <trkpt lat="27.79730000" lon="87.12477000">
        <ele>4467.0000</ele>
        <time>2010-01-01T00:03:12Z</time>
      </trkpt>
      <trkpt lat="27.79736000" lon="87.12461000">
        <ele>4471.0000</ele>
        <time>2010-01-01T00:03:18Z</time>
      </trkpt>
      <trkpt lat="27.79733000" lon="87.12415000">
        <ele>4473.0000</ele>
        <time>2010-01-01T00:03:34Z</time>
      </trkpt>
      <trkpt lat="27.79720000" lon="87.12393000">
        <ele>4470.0000</ele>
        <time>2010-01-01T00:03:44Z</time>
      </trkpt>
      <trkpt lat="27.79720000" lon="87.12373000">
        <ele>4475.0000</ele>
        <time>2010-01-01T00:03:51Z</time>
      </trkpt>
      <trkpt lat="27.79751000" lon="87.12293000">
        <ele>4491.0000</ele>
        <time>2010-01-01T00:04:22Z</time>
      </trkpt>
      <trkpt lat="27.79774000" lon="87.12218000">
        <ele>4500.0000</ele>
        <time>2010-01-01T00:04:50Z</time>
      </trkpt>
      <trkpt lat="27.79801000" lon="87.12170000">
        <ele>4511.0000</ele>
        <time>2010-01-01T00:05:10Z</time>
      </trkpt>
      <trkpt lat="27.79803000" lon="87.12151000">
        <ele>4514.0000</ele>
        <time>2010-01-01T00:05:17Z</time>
      </trkpt>
      <trkpt lat="27.79820000" lon="87.12118000">
        <ele>4524.0000</ele>
        <time>2010-01-01T00:05:30Z</time>
      </trkpt>
      <trkpt lat="27.79826000" lon="87.12092000">
        <ele>4523.0000</ele>
        <time>2010-01-01T00:05:40Z</time>
      </trkpt>
      <trkpt lat="27.79843000" lon="87.12054000">
        <ele>4526.0000</ele>
        <time>2010-01-01T00:05:55Z</time>
      </trkpt>
      <trkpt lat="27.79856000" lon="87.12042000">
        <ele>4537.0000</ele>
        <time>2010-01-01T00:06:01Z</time>
      </trkpt>
      <trkpt lat="27.79862000" lon="87.12032000">
        <ele>4543.0000</ele>
        <time>2010-01-01T00:06:06Z</time>
      </trkpt>
      <trkpt lat="27.79869000" lon="87.12026000">
        <ele>4547.0000</ele>
        <time>2010-01-01T00:06:09Z</time>
      </trkpt>
      <trkpt lat="27.79872000" lon="87.12012000">
        <ele>4547.0000</ele>
        <time>2010-01-01T00:06:14Z</time>
      </trkpt>
      <trkpt lat="27.79881000" lon="87.11996000">
        <ele>4550.0000</ele>
        <time>2010-01-01T00:06:21Z</time>
      </trkpt>
      <trkpt lat="27.79889000" lon="87.11974000">
        <ele>4549.0000</ele>
        <time>2010-01-01T00:06:29Z</time>
      </trkpt>
      <trkpt lat="27.79886000" lon="87.11955000">
        <ele>4544.0000</ele>
        <time>2010-01-01T00:06:36Z</time>
      </trkpt>
      <trkpt lat="27.79889000" lon="87.11940000">
        <ele>4543.0000</ele>
        <time>2010-01-01T00:06:42Z</time>
      </trkpt>
      <trkpt lat="27.79888000" lon="87.11922000">
        <ele>4542.0000</ele>
        <time>2010-01-01T00:06:48Z</time>
      </trkpt>
      <trkpt lat="27.79890000" lon="87.11909000">
        <ele>4543.0000</ele>
        <time>2010-01-01T00:06:53Z</time>
      </trkpt>
      <trkpt lat="27.79900000" lon="87.11897000">
        <ele>4549.0000</ele>
        <time>2010-01-01T00:06:59Z</time>
      </trkpt>
      <trkpt lat="27.79905000" lon="87.11881000">
        <ele>4552.0000</ele>
        <time>2010-01-01T00:07:05Z</time>
      </trkpt>
      <trkpt lat="27.79915000" lon="87.11861000">
        <ele>4554.0000</ele>
        <time>2010-01-01T00:07:13Z</time>
      </trkpt>
      <trkpt lat="27.79926000" lon="87.11831000">
        <ele>4560.0000</ele>
        <time>2010-01-01T00:07:24Z</time>
      </trkpt>
      <trkpt lat="27.79930000" lon="87.11816000">
        <ele>4561.0000</ele>
        <time>2010-01-01T00:07:30Z</time>
      </trkpt>
      <trkpt lat="27.79936000" lon="87.11808000">
        <ele>4564.0000</ele>
        <time>2010-01-01T00:07:34Z</time>
      </trkpt>
      <trkpt lat="27.79944000" lon="87.11783000">
        <ele>4561.0000</ele>
        <time>2010-01-01T00:07:43Z</time>
      </trkpt>
      <trkpt lat="27.79961000" lon="87.11742000">
        <ele>4551.0000</ele>
        <time>2010-01-01T00:07:59Z</time>
      </trkpt>
      <trkpt lat="27.79969000" lon="87.11731000">
        <ele>4552.0000</ele>
        <time>2010-01-01T00:08:04Z</time>
      </trkpt>
      <trkpt lat="27.79974000" lon="87.11714000">
        <ele>4552.0000</ele>
        <time>2010-01-01T00:08:10Z</time>
      </trkpt>
      <trkpt lat="27.79987000" lon="87.11704000">
        <ele>4553.0000</ele>
        <time>2010-01-01T00:08:17Z</time>
      </trkpt>
      <trkpt lat="27.79999000" lon="87.11674000">
        <ele>4553.0000</ele>
        <time>2010-01-01T00:08:28Z</time>
      </trkpt>
      <trkpt lat="27.80007000" lon="87.11646000">
        <ele>4551.0000</ele>
        <time>2010-01-01T00:08:39Z</time>
      </trkpt>
      <trkpt lat="27.80015000" lon="87.11637000">
        <ele>4552.0000</ele>
        <time>2010-01-01T00:08:43Z</time>
      </trkpt>
      <trkpt lat="27.80022000" lon="87.11616000">
        <ele>4556.0000</ele>
        <time>2010-01-01T00:08:51Z</time>
      </trkpt>
      <trkpt lat="27.80019000" lon="87.11602000">
        <ele>4555.0000</ele>
        <time>2010-01-01T00:08:56Z</time>
      </trkpt>
      <trkpt lat="27.80024000" lon="87.11592000">
        <ele>4558.0000</ele>
        <time>2010-01-01T00:09:00Z</time>
      </trkpt>
      <trkpt lat="27.80023000" lon="87.11583000">
        <ele>4558.0000</ele>
        <time>2010-01-01T00:09:04Z</time>
      </trkpt>
      <trkpt lat="27.80033000" lon="87.11570000">
        <ele>4561.0000</ele>
        <time>2010-01-01T00:09:10Z</time>
      </trkpt>
      <trkpt lat="27.80039000" lon="87.11530000">
        <ele>4558.0000</ele>
        <time>2010-01-01T00:09:24Z</time>
      </trkpt>
      <trkpt lat="27.80050000" lon="87.11483000">
        <ele>4555.0000</ele>
        <time>2010-01-01T00:09:41Z</time>
      </trkpt>
      <trkpt lat="27.80082000" lon="87.11423000">
        <ele>4566.0000</ele>
        <time>2010-01-01T00:10:06Z</time>
      </trkpt>
      <trkpt lat="27.80098000" lon="87.11373000">
        <ele>4563.0000</ele>
        <time>2010-01-01T00:10:25Z</time>
      </trkpt>
      <trkpt lat="27.80097000" lon="87.11337000">
        <ele>4564.0000</ele>
        <time>2010-01-01T00:10:38Z</time>
      </trkpt>
      <trkpt lat="27.80086000" lon="87.11318000">
        <ele>4565.0000</ele>
        <time>2010-01-01T00:10:46Z</time>
      </trkpt>
      <trkpt lat="27.80092000" lon="87.11289000">
        <ele>4570.0000</ele>
        <time>2010-01-01T00:10:56Z</time>
      </trkpt>
      <trkpt lat="27.80132000" lon="87.11223000">
        <ele>4575.0000</ele>
        <time>2010-01-01T00:11:25Z</time>
      </trkpt>
      <trkpt lat="27.80175000" lon="87.11135000">
        <ele>4573.0000</ele>
        <time>2010-01-01T00:12:00Z</time>
      </trkpt>
      <trkpt lat="27.80200000" lon="87.11115000">
        <ele>4577.0000</ele>
        <time>2010-01-01T00:12:12Z</time>
      </trkpt>
      <trkpt lat="27.80234000" lon="87.11077000">
        <ele>4580.0000</ele>
        <time>2010-01-01T00:12:32Z</time>
      </trkpt>
      <trkpt lat="27.80342000" lon="87.10859000">
        <ele>4583.0000</ele>
        <time>2010-01-01T00:14:00Z</time>
      </trkpt>
      <trkpt lat="27.80434000" lon="87.10671000">
        <ele>4586.0000</ele>
        <time>2010-01-01T00:15:16Z</time>
      </trkpt>
      <trkpt lat="27.80465000" lon="87.10647000">
        <ele>4594.0000</ele>
        <time>2010-01-01T00:15:31Z</time>
      </trkpt>
      <trkpt lat="27.80502000" lon="87.10585000">
        <ele>4600.0000</ele>
        <time>2010-01-01T00:15:58Z</time>
      </trkpt>
      <trkpt lat="27.80552000" lon="87.10463000">
        <ele>4604.0000</ele>
        <time>2010-01-01T00:16:45Z</time>
      </trkpt>
      <trkpt lat="27.80580000" lon="87.10333000">
        <ele>4599.0000</ele>
        <time>2010-01-01T00:17:33Z</time>
      </trkpt>
      <trkpt lat="27.80579000" lon="87.10211000">
        <ele>4609.0000</ele>
        <time>2010-01-01T00:18:16Z</time>
      </trkpt>
      <trkpt lat="27.80568000" lon="87.10197000">
        <ele>4609.0000</ele>
        <time>2010-01-01T00:18:22Z</time>
      </trkpt>
      <trkpt lat="27.80560000" lon="87.10170000">
        <ele>4613.0000</ele>
        <time>2010-01-01T00:18:33Z</time>
      </trkpt>
      <trkpt lat="27.80546000" lon="87.10147000">
        <ele>4614.0000</ele>
        <time>2010-01-01T00:18:42Z</time>
      </trkpt>
      <trkpt lat="27.80526000" lon="87.10095000">
        <ele>4614.0000</ele>
        <time>2010-01-01T00:19:03Z</time>
      </trkpt>
      <trkpt lat="27.80515000" lon="87.10058000">
        <ele>4615.0000</ele>
        <time>2010-01-01T00:19:16Z</time>
      </trkpt>
      <trkpt lat="27.80500000" lon="87.10022000">
        <ele>4617.0000</ele>
        <time>2010-01-01T00:19:30Z</time>
      </trkpt>
      <trkpt lat="27.80494000" lon="87.09990000">
        <ele>4620.0000</ele>
        <time>2010-01-01T00:19:42Z</time>
      </trkpt>
      <trkpt lat="27.80494000" lon="87.09956000">
        <ele>4624.0000</ele>
        <time>2010-01-01T00:19:54Z</time>
      </trkpt>
      <trkpt lat="27.80429000" lon="87.09815000">
        <ele>4635.0000</ele>
        <time>2010-01-01T00:20:50Z</time>
      </trkpt>
      <trkpt lat="27.80429000" lon="87.09786000">
        <ele>4637.0000</ele>
        <time>2010-01-01T00:21:01Z</time>
      </trkpt>
      <trkpt lat="27.80424000" lon="87.09757000">
        <ele>4638.0000</ele>
        <time>2010-01-01T00:21:11Z</time>
      </trkpt>
      <trkpt lat="27.80424000" lon="87.09756000">
        <ele>4638.0000</ele>
        <time>2010-01-01T00:21:11Z</time>
      </trkpt>
      <trkpt lat="27.80418000" lon="87.09720000">
        <ele>4642.0000</ele>
        <time>2010-01-01T00:21:24Z</time>
      </trkpt>
      <trkpt lat="27.80400000" lon="87.09699000">
        <ele>4638.0000</ele>
        <time>2010-01-01T00:21:35Z</time>
      </trkpt>
      <trkpt lat="27.80390000" lon="87.09644000">
        <ele>4652.0000</ele>
        <time>2010-01-01T00:21:55Z</time>
      </trkpt>
      <trkpt lat="27.80393000" lon="87.09616000">
        <ele>4656.0000</ele>
        <time>2010-01-01T00:22:05Z</time>
      </trkpt>
      <trkpt lat="27.80385000" lon="87.09583000">
        <ele>4649.0000</ele>
        <time>2010-01-01T00:22:17Z</time>
      </trkpt>
      <trkpt lat="27.80382000" lon="87.09563000">
        <ele>4648.0000</ele>
        <time>2010-01-01T00:22:24Z</time>
      </trkpt>
      <trkpt lat="27.80384000" lon="87.09550000">
        <ele>4648.0000</ele>
        <time>2010-01-01T00:22:29Z</time>
      </trkpt>
      <trkpt lat="27.80382000" lon="87.09535000">
        <ele>4645.0000</ele>
        <time>2010-01-01T00:22:34Z</time>
      </trkpt>
      <trkpt lat="27.80382000" lon="87.09508000">
        <ele>4641.0000</ele>
        <time>2010-01-01T00:22:44Z</time>
      </trkpt>
      <trkpt lat="27.80375000" lon="87.09481000">
        <ele>4639.0000</ele>
        <time>2010-01-01T00:22:53Z</time>
      </trkpt>
      <trkpt lat="27.80381000" lon="87.09458000">
        <ele>4642.0000</ele>
        <time>2010-01-01T00:23:02Z</time>
      </trkpt>
      <trkpt lat="27.80387000" lon="87.09352000">
        <ele>4657.0000</ele>
        <time>2010-01-01T00:23:40Z</time>
      </trkpt>
      <trkpt lat="27.80399000" lon="87.09314000">
        <ele>4655.0000</ele>
        <time>2010-01-01T00:23:54Z</time>
      </trkpt>
      <trkpt lat="27.80397000" lon="87.09235000">
        <ele>4657.0000</ele>
        <time>2010-01-01T00:24:22Z</time>
      </trkpt>
      <trkpt lat="27.80403000" lon="87.09209000">
        <ele>4661.0000</ele>
        <time>2010-01-01T00:24:31Z</time>
      </trkpt>
      <trkpt lat="27.80412000" lon="87.09203000">
        <ele>4663.0000</ele>
        <time>2010-01-01T00:24:36Z</time>
      </trkpt>
      <trkpt lat="27.80419000" lon="87.09177000">
        <ele>4662.0000</ele>
        <time>2010-01-01T00:24:45Z</time>
      </trkpt>
      <trkpt lat="27.80433000" lon="87.09143000">
        <ele>4662.0000</ele>
        <time>2010-01-01T00:24:58Z</time>
      </trkpt>
      <trkpt lat="27.80449000" lon="87.09083000">
        <ele>4671.0000</ele>
        <time>2010-01-01T00:25:21Z</time>
      </trkpt>
      <trkpt lat="27.80448000" lon="87.09050000">
        <ele>4669.0000</ele>
        <time>2010-01-01T00:25:32Z</time>
      </trkpt>
      <trkpt lat="27.80444000" lon="87.09028000">
        <ele>4668.0000</ele>
        <time>2010-01-01T00:25:40Z</time>
      </trkpt>
      <trkpt lat="27.80454000" lon="87.08999000">
        <ele>4669.0000</ele>
        <time>2010-01-01T00:25:51Z</time>
      </trkpt>
      <trkpt lat="27.80454000" lon="87.08979000">
        <ele>4665.0000</ele>
        <time>2010-01-01T00:25:58Z</time>
      </trkpt>
      <trkpt lat="27.80449000" lon="87.08914000">
        <ele>4657.0000</ele>
        <time>2010-01-01T00:26:21Z</time>
      </trkpt>
      <trkpt lat="27.80457000" lon="87.08896000">
        <ele>4660.0000</ele>
        <time>2010-01-01T00:26:29Z</time>
      </trkpt>
      <trkpt lat="27.80458000" lon="87.08861000">
        <ele>4656.0000</ele>
        <time>2010-01-01T00:26:41Z</time>
      </trkpt>
      <trkpt lat="27.80457000" lon="87.08823000">
        <ele>4658.0000</ele>
        <time>2010-01-01T00:26:54Z</time>
      </trkpt>
      <trkpt lat="27.80467000" lon="87.08783000">
        <ele>4662.0000</ele>
        <time>2010-01-01T00:27:09Z</time>
      </trkpt>
      <trkpt lat="27.80473000" lon="87.08753000">
        <ele>4662.0000</ele>
        <time>2010-01-01T00:27:20Z</time>
      </trkpt>
      <trkpt lat="27.80471000" lon="87.08734000">
        <ele>4658.0000</ele>
        <time>2010-01-01T00:27:27Z</time>
      </trkpt>
      <trkpt lat="27.80490000" lon="87.08626000">
        <ele>4663.0000</ele>
        <time>2010-01-01T00:28:06Z</time>
      </trkpt>
      <trkpt lat="27.80514000" lon="87.08543000">
        <ele>4664.0000</ele>
        <time>2010-01-01T00:28:37Z</time>
      </trkpt>
      <trkpt lat="27.80553000" lon="87.08441000">
        <ele>4667.0000</ele>
        <time>2010-01-01T00:29:16Z</time>
      </trkpt>
      <trkpt lat="27.80613000" lon="87.08360000">
        <ele>4673.0000</ele>
        <time>2010-01-01T00:29:54Z</time>
      </trkpt>
      <trkpt lat="27.80655000" lon="87.08309000">
        <ele>4677.0000</ele>
        <time>2010-01-01T00:30:18Z</time>
      </trkpt>
      <trkpt lat="27.80744000" lon="87.08242000">
        <ele>4696.0000</ele>
        <time>2010-01-01T00:31:01Z</time>
      </trkpt>
      <trkpt lat="27.80840000" lon="87.08180000">
        <ele>4704.0000</ele>
        <time>2010-01-01T00:31:45Z</time>
      </trkpt>
      <trkpt lat="27.80920000" lon="87.08129000">
        <ele>4704.0000</ele>
        <time>2010-01-01T00:32:22Z</time>
      </trkpt>
      <trkpt lat="27.80995000" lon="87.08092000">
        <ele>4711.0000</ele>
        <time>2010-01-01T00:32:55Z</time>
      </trkpt>
      <trkpt lat="27.81047000" lon="87.08045000">
        <ele>4710.0000</ele>
        <time>2010-01-01T00:33:21Z</time>
      </trkpt>
      <trkpt lat="27.81129000" lon="87.07987000">
        <ele>4721.0000</ele>
        <time>2010-01-01T00:34:00Z</time>
      </trkpt>
      <trkpt lat="27.81165000" lon="87.07999000">
        <ele>4725.0000</ele>
        <time>2010-01-01T00:34:15Z</time>
      </trkpt>
      <trkpt lat="27.81236000" lon="87.07974000">
        <ele>4736.0000</ele>
        <time>2010-01-01T00:34:45Z</time>
      </trkpt>
      <trkpt lat="27.81301000" lon="87.07954000">
        <ele>4739.0000</ele>
        <time>2010-01-01T00:35:12Z</time>
      </trkpt>
      <trkpt lat="27.81390000" lon="87.07921000">
        <ele>4763.0000</ele>
        <time>2010-01-01T00:35:49Z</time>
      </trkpt>
      <trkpt lat="27.81414000" lon="87.07899000">
        <ele>4765.0000</ele>
        <time>2010-01-01T00:36:02Z</time>
      </trkpt>
      <trkpt lat="27.81491000" lon="87.07865000">
        <ele>4785.0000</ele>
        <time>2010-01-01T00:36:35Z</time>
      </trkpt>
      <trkpt lat="27.81528000" lon="87.07858000">
        <ele>4790.0000</ele>
        <time>2010-01-01T00:36:50Z</time>
      </trkpt>
      <trkpt lat="27.81660000" lon="87.07799000">
        <ele>4804.0000</ele>
        <time>2010-01-01T00:37:47Z</time>
      </trkpt>
      <trkpt lat="27.81676000" lon="87.07792000">
        <ele>4806.0000</ele>
        <time>2010-01-01T00:37:54Z</time>
      </trkpt>
      <trkpt lat="27.81710000" lon="87.07785000">
        <ele>4812.0000</ele>
        <time>2010-01-01T00:38:07Z</time>
      </trkpt>
      <trkpt lat="27.81764000" lon="87.07764000">
        <ele>4817.0000</ele>
        <time>2010-01-01T00:38:30Z</time>
      </trkpt>
      <trkpt lat="27.81851000" lon="87.07718000">
        <ele>4823.0000</ele>
        <time>2010-01-01T00:39:09Z</time>
      </trkpt>
      <trkpt lat="27.81937000" lon="87.07693000">
        <ele>4835.0000</ele>
        <time>2010-01-01T00:39:44Z</time>
      </trkpt>
      <trkpt lat="27.82033000" lon="87.07661000">
        <ele>4833.0000</ele>
        <time>2010-01-01T00:40:24Z</time>
      </trkpt>
      <trkpt lat="27.82091000" lon="87.07629000">
        <ele>4842.0000</ele>
        <time>2010-01-01T00:40:50Z</time>
      </trkpt>
      <trkpt lat="27.82126000" lon="87.07622000">
        <ele>4843.0000</ele>
        <time>2010-01-01T00:41:04Z</time>
      </trkpt>
      <trkpt lat="27.82164000" lon="87.07609000">
        <ele>4841.0000</ele>
        <time>2010-01-01T00:41:20Z</time>
      </trkpt>
      <trkpt lat="27.82209000" lon="87.07589000">
        <ele>4848.0000</ele>
        <time>2010-01-01T00:41:40Z</time>
      </trkpt>
      <trkpt lat="27.82229000" lon="87.07584000">
        <ele>4850.0000</ele>
        <time>2010-01-01T00:41:48Z</time>
      </trkpt>
      <trkpt lat="27.82256000" lon="87.07565000">
        <ele>4856.0000</ele>
        <time>2010-01-01T00:42:01Z</time>
      </trkpt>
      <trkpt lat="27.82286000" lon="87.07540000">
        <ele>4860.0000</ele>
        <time>2010-01-01T00:42:15Z</time>
      </trkpt>
      <trkpt lat="27.82312000" lon="87.07526000">
        <ele>4860.0000</ele>
        <time>2010-01-01T00:42:27Z</time>
      </trkpt>
      <trkpt lat="27.82323000" lon="87.07513000">
        <ele>4860.0000</ele>
        <time>2010-01-01T00:42:33Z</time>
      </trkpt>
      <trkpt lat="27.82344000" lon="87.07498000">
        <ele>4864.0000</ele>
        <time>2010-01-01T00:42:43Z</time>
      </trkpt>
      <trkpt lat="27.82375000" lon="87.07493000">
        <ele>4872.0000</ele>
        <time>2010-01-01T00:42:56Z</time>
      </trkpt>
      <trkpt lat="27.82393000" lon="87.07489000">
        <ele>4874.0000</ele>
        <time>2010-01-01T00:43:03Z</time>
      </trkpt>
      <trkpt lat="27.82431000" lon="87.07487000">
        <ele>4872.0000</ele>
        <time>2010-01-01T00:43:18Z</time>
      </trkpt>
      <trkpt lat="27.82460000" lon="87.07490000">
        <ele>4877.0000</ele>
        <time>2010-01-01T00:43:30Z</time>
      </trkpt>
      <trkpt lat="27.82484000" lon="87.07484000">
        <ele>4883.0000</ele>
        <time>2010-01-01T00:43:40Z</time>
      </trkpt>
      <trkpt lat="27.82502000" lon="87.07477000">
        <ele>4884.0000</ele>
        <time>2010-01-01T00:43:48Z</time>
      </trkpt>
      <trkpt lat="27.82540000" lon="87.07458000">
        <ele>4867.0000</ele>
        <time>2010-01-01T00:44:04Z</time>
      </trkpt>
      <trkpt lat="27.82603000" lon="87.07458000">
        <ele>4878.0000</ele>
        <time>2010-01-01T00:44:29Z</time>
      </trkpt>
      <trkpt lat="27.82668000" lon="87.07465000">
        <ele>4866.0000</ele>
        <time>2010-01-01T00:44:56Z</time>
      </trkpt>
      <trkpt lat="27.82717000" lon="87.07476000">
        <ele>4854.0000</ele>
        <time>2010-01-01T00:45:16Z</time>
      </trkpt>
      <trkpt lat="27.82763000" lon="87.07494000">
        <ele>4855.0000</ele>
        <time>2010-01-01T00:45:35Z</time>
      </trkpt>
      <trkpt lat="27.82789000" lon="87.07509000">
        <ele>4852.0000</ele>
        <time>2010-01-01T00:45:47Z</time>
      </trkpt>
      <trkpt lat="27.82823000" lon="87.07524000">
        <ele>4860.0000</ele>
        <time>2010-01-01T00:46:01Z</time>
      </trkpt>
      <trkpt lat="27.82847000" lon="87.07541000">
        <ele>4889.0000</ele>
        <time>2010-01-01T00:46:13Z</time>
      </trkpt>
      <trkpt lat="27.82862000" lon="87.07545000">
        <ele>4894.0000</ele>
        <time>2010-01-01T00:46:19Z</time>
      </trkpt>
      <trkpt lat="27.82913000" lon="87.07576000">
        <ele>4897.0000</ele>
        <time>2010-01-01T00:46:42Z</time>
      </trkpt>
      <trkpt lat="27.82938000" lon="87.07587000">
        <ele>4891.0000</ele>
        <time>2010-01-01T00:46:53Z</time>
      </trkpt>
      <trkpt lat="27.82974000" lon="87.07610000">
        <ele>4891.0000</ele>
        <time>2010-01-01T00:47:09Z</time>
      </trkpt>
      <trkpt lat="27.83000000" lon="87.07617000">
        <ele>4888.0000</ele>
        <time>2010-01-01T00:47:20Z</time>
      </trkpt>
      <trkpt lat="27.83023000" lon="87.07621000">
        <ele>4883.0000</ele>
        <time>2010-01-01T00:47:29Z</time>
      </trkpt>
      <trkpt lat="27.83054000" lon="87.07622000">
        <ele>4874.0000</ele>
        <time>2010-01-01T00:47:42Z</time>
      </trkpt>
      <trkpt lat="27.83114000" lon="87.07635000">
        <ele>4859.0000</ele>
        <time>2010-01-01T00:48:06Z</time>
      </trkpt>
      <trkpt lat="27.83141000" lon="87.07649000">
        <ele>4852.0000</ele>
        <time>2010-01-01T00:48:18Z</time>
      </trkpt>
      <trkpt lat="27.83178000" lon="87.07680000">
        <ele>4856.0000</ele>
        <time>2010-01-01T00:48:36Z</time>
      </trkpt>
      <trkpt lat="27.83197000" lon="87.07704000">
        <ele>4857.0000</ele>
        <time>2010-01-01T00:48:48Z</time>
      </trkpt>
      <trkpt lat="27.83211000" lon="87.07713000">
        <ele>4856.0000</ele>
        <time>2010-01-01T00:48:54Z</time>
      </trkpt>
      <trkpt lat="27.83240000" lon="87.07727000">
        <ele>4851.0000</ele>
        <time>2010-01-01T00:49:07Z</time>
      </trkpt>
      <trkpt lat="27.83250000" lon="87.07734000">
        <ele>4854.0000</ele>
        <time>2010-01-01T00:49:12Z</time>
      </trkpt>
      <trkpt lat="27.83291000" lon="87.07740000">
        <ele>4853.0000</ele>
        <time>2010-01-01T00:49:28Z</time>
      </trkpt>
      <trkpt lat="27.83307000" lon="87.07744000">
        <ele>4855.0000</ele>
        <time>2010-01-01T00:49:35Z</time>
      </trkpt>
      <trkpt lat="27.83332000" lon="87.07758000">
        <ele>4861.0000</ele>
        <time>2010-01-01T00:49:46Z</time>
      </trkpt>
      <trkpt lat="27.83353000" lon="87.07774000">
        <ele>4865.0000</ele>
        <time>2010-01-01T00:49:56Z</time>
      </trkpt>
      <trkpt lat="27.83378000" lon="87.07793000">
        <ele>4850.0000</ele>
        <time>2010-01-01T00:50:08Z</time>
      </trkpt>
      <trkpt lat="27.83393000" lon="87.07808000">
        <ele>4845.0000</ele>
        <time>2010-01-01T00:50:16Z</time>
      </trkpt>
      <trkpt lat="27.83407000" lon="87.07804000">
        <ele>4839.0000</ele>
        <time>2010-01-01T00:50:22Z</time>
      </trkpt>
      <trkpt lat="27.83428000" lon="87.07811000">
        <ele>4835.0000</ele>
        <time>2010-01-01T00:50:31Z</time>
      </trkpt>
      <trkpt lat="27.83440000" lon="87.07812000">
        <ele>4831.0000</ele>
        <time>2010-01-01T00:50:36Z</time>
      </trkpt>
      <trkpt lat="27.83451000" lon="87.07816000">
        <ele>4831.0000</ele>
        <time>2010-01-01T00:50:40Z</time>
      </trkpt>
      <trkpt lat="27.83481000" lon="87.07769000">
        <ele>4831.0000</ele>
        <time>2010-01-01T00:51:01Z</time>
      </trkpt>
      <trkpt lat="27.83494000" lon="87.07742000">
        <ele>4833.0000</ele>
        <time>2010-01-01T00:51:12Z</time>
      </trkpt>
      <trkpt lat="27.83506000" lon="87.07710000">
        <ele>4836.0000</ele>
        <time>2010-01-01T00:51:24Z</time>
      </trkpt>
      <trkpt lat="27.83517000" lon="87.07702000">
        <ele>4838.0000</ele>
        <time>2010-01-01T00:51:29Z</time>
      </trkpt>
      <trkpt lat="27.83545000" lon="87.07703000">
        <ele>4845.0000</ele>
        <time>2010-01-01T00:51:40Z</time>
      </trkpt>
      <trkpt lat="27.83547000" lon="87.07700000">
        <ele>4845.0000</ele>
        <time>2010-01-01T00:51:42Z</time>
      </trkpt>
      <trkpt lat="27.83553000" lon="87.07672000">
        <ele>4842.0000</ele>
        <time>2010-01-01T00:51:52Z</time>
      </trkpt>
      <trkpt lat="27.83556000" lon="87.07591000">
        <ele>4833.0000</ele>
        <time>2010-01-01T00:52:21Z</time>
      </trkpt>
      <trkpt lat="27.83559000" lon="87.07585000">
        <ele>4833.0000</ele>
        <time>2010-01-01T00:52:23Z</time>
      </trkpt>
      <trkpt lat="27.83570000" lon="87.07585000">
        <ele>4836.0000</ele>
        <time>2010-01-01T00:52:27Z</time>
      </trkpt>
      <trkpt lat="27.83583000" lon="87.07592000">
        <ele>4838.0000</ele>
        <time>2010-01-01T00:52:33Z</time>
      </trkpt>
      <trkpt lat="27.83583264" lon="87.07592010">
        <ele>4838.0000</ele>
        <time>2010-01-01T00:00:00Z</time>
      </trkpt>
      <trkpt lat="27.83583000" lon="87.07592000">
        <ele>4838.0000</ele>
        <time>2010-01-01T00:00:00Z</time>
      </trkpt>
      <trkpt lat="27.83604000" lon="87.07589000">
        <ele>4839.0000</ele>
        <time>2010-01-01T00:00:17Z</time>
      </trkpt>
      <trkpt lat="27.83621000" lon="87.07589000">
        <ele>4841.0000</ele>
        <time>2010-01-01T00:00:30Z</time>
      </trkpt>
      <trkpt lat="27.83633000" lon="87.07598000">
        <ele>4840.0000</ele>
        <time>2010-01-01T00:00:42Z</time>
      </trkpt>
      <trkpt lat="27.83645000" lon="87.07601000">
        <ele>4842.0000</ele>
        <time>2010-01-01T00:00:52Z</time>
      </trkpt>
      <trkpt lat="27.83665000" lon="87.07613000">
        <ele>4848.0000</ele>
        <time>2010-01-01T00:01:10Z</time>
      </trkpt>
      <trkpt lat="27.83690000" lon="87.07612000">
        <ele>4855.0000</ele>
        <time>2010-01-01T00:01:30Z</time>
      </trkpt>
      <trkpt lat="27.83712000" lon="87.07622000">
        <ele>4857.0000</ele>
        <time>2010-01-01T00:01:49Z</time>
      </trkpt>
      <trkpt lat="27.83721000" lon="87.07623000">
        <ele>4857.0000</ele>
        <time>2010-01-01T00:01:56Z</time>
      </trkpt>
      <trkpt lat="27.83731000" lon="87.07631000">
        <ele>4858.0000</ele>
        <time>2010-01-01T00:02:06Z</time>
      </trkpt>
      <trkpt lat="27.83737000" lon="87.07638000">
        <ele>4859.0000</ele>
        <time>2010-01-01T00:02:13Z</time>
      </trkpt>
      <trkpt lat="27.83746000" lon="87.07642000">
        <ele>4859.0000</ele>
        <time>2010-01-01T00:02:20Z</time>
      </trkpt>
      <trkpt lat="27.83764000" lon="87.07665000">
        <ele>4864.0000</ele>
        <time>2010-01-01T00:02:42Z</time>
      </trkpt>
      <trkpt lat="27.83770000" lon="87.07666000">
        <ele>4865.0000</ele>
        <time>2010-01-01T00:02:47Z</time>
      </trkpt>
      <trkpt lat="27.83779000" lon="87.07677000">
        <ele>4867.0000</ele>
        <time>2010-01-01T00:02:58Z</time>
      </trkpt>
      <trkpt lat="27.83788000" lon="87.07681000">
        <ele>4869.0000</ele>
        <time>2010-01-01T00:03:05Z</time>
      </trkpt>
      <trkpt lat="27.83793000" lon="87.07692000">
        <ele>4869.0000</ele>
        <time>2010-01-01T00:03:14Z</time>
      </trkpt>
      <trkpt lat="27.83804000" lon="87.07701000">
        <ele>4869.0000</ele>
        <time>2010-01-01T00:03:25Z</time>
      </trkpt>
      <trkpt lat="27.83815000" lon="87.07700000">
        <ele>4870.0000</ele>
        <time>2010-01-01T00:03:34Z</time>
      </trkpt>
      <trkpt lat="27.83826000" lon="87.07696000">
        <ele>4872.0000</ele>
        <time>2010-01-01T00:03:43Z</time>
      </trkpt>
      <trkpt lat="27.83835000" lon="87.07699000">
        <ele>4872.0000</ele>
        <time>2010-01-01T00:03:51Z</time>
      </trkpt>
      <trkpt lat="27.83857000" lon="87.07699000">
        <ele>4875.0000</ele>
        <time>2010-01-01T00:04:08Z</time>
      </trkpt>
      <trkpt lat="27.83864000" lon="87.07702000">
        <ele>4876.0000</ele>
        <time>2010-01-01T00:04:14Z</time>
      </trkpt>
      <trkpt lat="27.83875000" lon="87.07696000">
        <ele>4881.0000</ele>
        <time>2010-01-01T00:04:24Z</time>
      </trkpt>
      <trkpt lat="27.83907000" lon="87.07708000">
        <ele>4886.0000</ele>
        <time>2010-01-01T00:04:51Z</time>
      </trkpt>
      <trkpt lat="27.83918000" lon="87.07718000">
        <ele>4884.0000</ele>
        <time>2010-01-01T00:05:02Z</time>
      </trkpt>
      <trkpt lat="27.83937000" lon="87.07729000">
        <ele>4883.0000</ele>
        <time>2010-01-01T00:05:19Z</time>
      </trkpt>
      <trkpt lat="27.83963000" lon="87.07741000">
        <ele>4881.0000</ele>
        <time>2010-01-01T00:05:42Z</time>
      </trkpt>
      <trkpt lat="27.83989000" lon="87.07751000">
        <ele>4881.0000</ele>
        <time>2010-01-01T00:06:04Z</time>
      </trkpt>
      <trkpt lat="27.84024000" lon="87.07768000">
        <ele>4883.0000</ele>
        <time>2010-01-01T00:06:34Z</time>
      </trkpt>
      <trkpt lat="27.84034000" lon="87.07768000">
        <ele>4886.0000</ele>
        <time>2010-01-01T00:06:42Z</time>
      </trkpt>
      <trkpt lat="27.84055000" lon="87.07772000">
        <ele>4890.0000</ele>
        <time>2010-01-01T00:06:59Z</time>
      </trkpt>
      <trkpt lat="27.84104000" lon="87.07789000">
        <ele>4894.0000</ele>
        <time>2010-01-01T00:07:40Z</time>
      </trkpt>
      <trkpt lat="27.84124000" lon="87.07791000">
        <ele>4897.0000</ele>
        <time>2010-01-01T00:07:57Z</time>
      </trkpt>
      <trkpt lat="27.84143000" lon="87.07788000">
        <ele>4903.0000</ele>
        <time>2010-01-01T00:08:12Z</time>
      </trkpt>
      <trkpt lat="27.84161000" lon="87.07787000">
        <ele>4907.0000</ele>
        <time>2010-01-01T00:08:26Z</time>
      </trkpt>
      <trkpt lat="27.84168000" lon="87.07785000">
        <ele>4909.0000</ele>
        <time>2010-01-01T00:08:32Z</time>
      </trkpt>
      <trkpt lat="27.84216000" lon="87.07793000">
        <ele>4915.0000</ele>
        <time>2010-01-01T00:09:11Z</time>
      </trkpt>
      <trkpt lat="27.84266000" lon="87.07794000">
        <ele>4930.0000</ele>
        <time>2010-01-01T00:09:51Z</time>
      </trkpt>
      <trkpt lat="27.84274000" lon="87.07794000">
        <ele>4931.0000</ele>
        <time>2010-01-01T00:09:57Z</time>
      </trkpt>
      <trkpt lat="27.84284000" lon="87.07792000">
        <ele>4933.0000</ele>
        <time>2010-01-01T00:10:05Z</time>
      </trkpt>
      <trkpt lat="27.84300000" lon="87.07793000">
        <ele>4933.0000</ele>
        <time>2010-01-01T00:10:18Z</time>
      </trkpt>
      <trkpt lat="27.84327000" lon="87.07792000">
        <ele>4935.0000</ele>
        <time>2010-01-01T00:10:40Z</time>
      </trkpt>
      <trkpt lat="27.84363000" lon="87.07787000">
        <ele>4942.0000</ele>
        <time>2010-01-01T00:11:09Z</time>
      </trkpt>
      <trkpt lat="27.84404000" lon="87.07772000">
        <ele>4949.0000</ele>
        <time>2010-01-01T00:11:43Z</time>
      </trkpt>
      <trkpt lat="27.84421000" lon="87.07773000">
        <ele>4949.0000</ele>
        <time>2010-01-01T00:11:57Z</time>
      </trkpt>
      <trkpt lat="27.84452000" lon="87.07781000">
        <ele>4948.0000</ele>
        <time>2010-01-01T00:12:23Z</time>
      </trkpt>
      <trkpt lat="27.84469000" lon="87.07775000">
        <ele>4950.0000</ele>
        <time>2010-01-01T00:12:37Z</time>
      </trkpt>
      <trkpt lat="27.84488000" lon="87.07757000">
        <ele>4954.0000</ele>
        <time>2010-01-01T00:12:57Z</time>
      </trkpt>
      <trkpt lat="27.84503000" lon="87.07754000">
        <ele>4953.0000</ele>
        <time>2010-01-01T00:13:09Z</time>
      </trkpt>
      <trkpt lat="27.84510000" lon="87.07750000">
        <ele>4954.0000</ele>
        <time>2010-01-01T00:13:15Z</time>
      </trkpt>
      <trkpt lat="27.84526000" lon="87.07749000">
        <ele>4953.0000</ele>
        <time>2010-01-01T00:13:28Z</time>
      </trkpt>
      <trkpt lat="27.84536000" lon="87.07745000">
        <ele>4956.0000</ele>
        <time>2010-01-01T00:13:36Z</time>
      </trkpt>
      <trkpt lat="27.84547000" lon="87.07743000">
        <ele>4959.0000</ele>
        <time>2010-01-01T00:13:45Z</time>
      </trkpt>
      <trkpt lat="27.84584000" lon="87.07729000">
        <ele>4961.0000</ele>
        <time>2010-01-01T00:14:17Z</time>
      </trkpt>
      <trkpt lat="27.84596000" lon="87.07722000">
        <ele>4962.0000</ele>
        <time>2010-01-01T00:14:27Z</time>
      </trkpt>
      <trkpt lat="27.84603000" lon="87.07716000">
        <ele>4963.0000</ele>
        <time>2010-01-01T00:14:34Z</time>
      </trkpt>
      <trkpt lat="27.84604000" lon="87.07711000">
        <ele>4964.0000</ele>
        <time>2010-01-01T00:14:38Z</time>
      </trkpt>
      <trkpt lat="27.84611000" lon="87.07709000">
        <ele>4965.0000</ele>
        <time>2010-01-01T00:14:44Z</time>
      </trkpt>
      <trkpt lat="27.84620000" lon="87.07697000">
        <ele>4969.0000</ele>
        <time>2010-01-01T00:14:55Z</time>
      </trkpt>
      <trkpt lat="27.84632000" lon="87.07691000">
        <ele>4971.0000</ele>
        <time>2010-01-01T00:15:06Z</time>
      </trkpt>
      <trkpt lat="27.84638000" lon="87.07679000">
        <ele>4973.0000</ele>
        <time>2010-01-01T00:15:15Z</time>
      </trkpt>
      <trkpt lat="27.84642000" lon="87.07662000">
        <ele>4974.0000</ele>
        <time>2010-01-01T00:15:28Z</time>
      </trkpt>
      <trkpt lat="27.84652000" lon="87.07644000">
        <ele>4974.0000</ele>
        <time>2010-01-01T00:15:43Z</time>
      </trkpt>
      <trkpt lat="27.84668000" lon="87.07627000">
        <ele>4973.0000</ele>
        <time>2010-01-01T00:16:00Z</time>
      </trkpt>
      <trkpt lat="27.84681000" lon="87.07606000">
        <ele>4973.0000</ele>
        <time>2010-01-01T00:16:19Z</time>
      </trkpt>
      <trkpt lat="27.84688000" lon="87.07600000">
        <ele>4972.0000</ele>
        <time>2010-01-01T00:16:26Z</time>
      </trkpt>
      <trkpt lat="27.84698000" lon="87.07576000">
        <ele>4974.0000</ele>
        <time>2010-01-01T00:16:44Z</time>
      </trkpt>
      <trkpt lat="27.84708000" lon="87.07578000">
        <ele>4974.0000</ele>
        <time>2010-01-01T00:16:52Z</time>
      </trkpt>
      <trkpt lat="27.84713000" lon="87.07581000">
        <ele>4973.0000</ele>
        <time>2010-01-01T00:16:57Z</time>
      </trkpt>
      <trkpt lat="27.84729000" lon="87.07560000">
        <ele>4976.0000</ele>
        <time>2010-01-01T00:17:17Z</time>
      </trkpt>
      <trkpt lat="27.84732000" lon="87.07549000">
        <ele>4978.0000</ele>
        <time>2010-01-01T00:17:25Z</time>
      </trkpt>
      <trkpt lat="27.84742000" lon="87.07528000">
        <ele>4985.0000</ele>
        <time>2010-01-01T00:17:42Z</time>
      </trkpt>
      <trkpt lat="27.84746000" lon="87.07512000">
        <ele>4987.0000</ele>
        <time>2010-01-01T00:17:53Z</time>
      </trkpt>
      <trkpt lat="27.84747000" lon="87.07496000">
        <ele>4990.0000</ele>
        <time>2010-01-01T00:18:05Z</time>
      </trkpt>
      <trkpt lat="27.84741000" lon="87.07479000">
        <ele>4991.0000</ele>
        <time>2010-01-01T00:18:18Z</time>
      </trkpt>
      <trkpt lat="27.84742000" lon="87.07466000">
        <ele>4992.0000</ele>
        <time>2010-01-01T00:18:27Z</time>
      </trkpt>
      <trkpt lat="27.84771000" lon="87.07407000">
        <ele>4996.0000</ele>
        <time>2010-01-01T00:19:15Z</time>
      </trkpt>
      <trkpt lat="27.84781000" lon="87.07398000">
        <ele>4996.0000</ele>
        <time>2010-01-01T00:19:25Z</time>
      </trkpt>
      <trkpt lat="27.84785000" lon="87.07384000">
        <ele>4996.0000</ele>
        <time>2010-01-01T00:19:35Z</time>
      </trkpt>
      <trkpt lat="27.84789000" lon="87.07375000">
        <ele>4996.0000</ele>
        <time>2010-01-01T00:19:43Z</time>
      </trkpt>
      <trkpt lat="27.84802000" lon="87.07357000">
        <ele>4995.0000</ele>
        <time>2010-01-01T00:19:59Z</time>
      </trkpt>
      <trkpt lat="27.84819000" lon="87.07318000">
        <ele>4997.0000</ele>
        <time>2010-01-01T00:20:30Z</time>
      </trkpt>
      <trkpt lat="27.84826000" lon="87.07298000">
        <ele>4998.0000</ele>
        <time>2010-01-01T00:20:45Z</time>
      </trkpt>
      <trkpt lat="27.84837000" lon="87.07279000">
        <ele>4998.0000</ele>
        <time>2010-01-01T00:21:01Z</time>
      </trkpt>
      <trkpt lat="27.84849000" lon="87.07264000">
        <ele>4997.0000</ele>
        <time>2010-01-01T00:21:15Z</time>
      </trkpt>
      <trkpt lat="27.84883000" lon="87.07233000">
        <ele>4999.0000</ele>
        <time>2010-01-01T00:21:50Z</time>
      </trkpt>
      <trkpt lat="27.84908000" lon="87.07203000">
        <ele>5004.0000</ele>
        <time>2010-01-01T00:22:20Z</time>
      </trkpt>
      <trkpt lat="27.84964000" lon="87.07151000">
        <ele>5003.0000</ele>
        <time>2010-01-01T00:23:18Z</time>
      </trkpt>
      <trkpt lat="27.85013000" lon="87.07090000">
        <ele>5016.0000</ele>
        <time>2010-01-01T00:24:16Z</time>
      </trkpt>
      <trkpt lat="27.85032000" lon="87.07067000">
        <ele>5020.0000</ele>
        <time>2010-01-01T00:24:38Z</time>
      </trkpt>
      <trkpt lat="27.85055000" lon="87.07032000">
        <ele>5023.0000</ele>
        <time>2010-01-01T00:25:09Z</time>
      </trkpt>
      <trkpt lat="27.85081000" lon="87.07000000">
        <ele>5013.0000</ele>
        <time>2010-01-01T00:25:40Z</time>
      </trkpt>
      <trkpt lat="27.85112000" lon="87.06942000">
        <ele>5023.0000</ele>
        <time>2010-01-01T00:26:28Z</time>
      </trkpt>
      <trkpt lat="27.85128000" lon="87.06928000">
        <ele>5024.0000</ele>
        <time>2010-01-01T00:26:44Z</time>
      </trkpt>
      <trkpt lat="27.85146000" lon="87.06901000">
        <ele>5030.0000</ele>
        <time>2010-01-01T00:27:08Z</time>
      </trkpt>
      <trkpt lat="27.85180000" lon="87.06859000">
        <ele>5038.0000</ele>
        <time>2010-01-01T00:27:48Z</time>
      </trkpt>
      <trkpt lat="27.85207000" lon="87.06818000">
        <ele>5038.0000</ele>
        <time>2010-01-01T00:28:24Z</time>
      </trkpt>
      <trkpt lat="27.85221000" lon="87.06810000">
        <ele>5038.0000</ele>
        <time>2010-01-01T00:28:37Z</time>
      </trkpt>
      <trkpt lat="27.85238000" lon="87.06791000">
        <ele>5045.0000</ele>
        <time>2010-01-01T00:28:56Z</time>
      </trkpt>
      <trkpt lat="27.85242000" lon="87.06769000">
        <ele>5051.0000</ele>
        <time>2010-01-01T00:29:12Z</time>
      </trkpt>
      <trkpt lat="27.85255000" lon="87.06755000">
        <ele>5053.0000</ele>
        <time>2010-01-01T00:29:26Z</time>
      </trkpt>
      <trkpt lat="27.85269000" lon="87.06750000">
        <ele>5052.0000</ele>
        <time>2010-01-01T00:29:38Z</time>
      </trkpt>
      <trkpt lat="27.85283000" lon="87.06739000">
        <ele>5051.0000</ele>
        <time>2010-01-01T00:29:52Z</time>
      </trkpt>
      <trkpt lat="27.85336000" lon="87.06676000">
        <ele>5052.0000</ele>
        <time>2010-01-01T00:30:53Z</time>
      </trkpt>
      <trkpt lat="27.85343000" lon="87.06653000">
        <ele>5054.0000</ele>
        <time>2010-01-01T00:31:11Z</time>
      </trkpt>
      <trkpt lat="27.85352000" lon="87.06606000">
        <ele>5059.0000</ele>
        <time>2010-01-01T00:31:45Z</time>
      </trkpt>
      <trkpt lat="27.85377000" lon="87.06566000">
        <ele>5068.0000</ele>
        <time>2010-01-01T00:32:19Z</time>
      </trkpt>
      <trkpt lat="27.85391000" lon="87.06555000">
        <ele>5069.0000</ele>
        <time>2010-01-01T00:32:33Z</time>
      </trkpt>
      <trkpt lat="27.85397000" lon="87.06547000">
        <ele>5069.0000</ele>
        <time>2010-01-01T00:32:40Z</time>
      </trkpt>
      <trkpt lat="27.85397000" lon="87.06532000">
        <ele>5073.0000</ele>
        <time>2010-01-01T00:32:51Z</time>
      </trkpt>
      <trkpt lat="27.85401000" lon="87.06520000">
        <ele>5075.0000</ele>
        <time>2010-01-01T00:33:00Z</time>
      </trkpt>
      <trkpt lat="27.85403000" lon="87.06490000">
        <ele>5081.0000</ele>
        <time>2010-01-01T00:33:21Z</time>
      </trkpt>
      <trkpt lat="27.85406000" lon="87.06474000">
        <ele>5084.0000</ele>
        <time>2010-01-01T00:33:33Z</time>
      </trkpt>
      <trkpt lat="27.85410000" lon="87.06467000">
        <ele>5084.0000</ele>
        <time>2010-01-01T00:33:39Z</time>
      </trkpt>
      <trkpt lat="27.85423000" lon="87.06454000">
        <ele>5082.0000</ele>
        <time>2010-01-01T00:33:53Z</time>
      </trkpt>
      <trkpt lat="27.85433000" lon="87.06438000">
        <ele>5083.0000</ele>
        <time>2010-01-01T00:34:07Z</time>
      </trkpt>
      <trkpt lat="27.85434000" lon="87.06427000">
        <ele>5084.0000</ele>
        <time>2010-01-01T00:34:14Z</time>
      </trkpt>
      <trkpt lat="27.85442000" lon="87.06415000">
        <ele>5084.0000</ele>
        <time>2010-01-01T00:34:25Z</time>
      </trkpt>
      <trkpt lat="27.85448000" lon="87.06395000">
        <ele>5086.0000</ele>
        <time>2010-01-01T00:34:40Z</time>
      </trkpt>
      <trkpt lat="27.85462000" lon="87.06379000">
        <ele>5087.0000</ele>
        <time>2010-01-01T00:34:56Z</time>
      </trkpt>
      <trkpt lat="27.85464000" lon="87.06360000">
        <ele>5090.0000</ele>
        <time>2010-01-01T00:35:09Z</time>
      </trkpt>
      <trkpt lat="27.85471000" lon="87.06345000">
        <ele>5091.0000</ele>
        <time>2010-01-01T00:35:21Z</time>
      </trkpt>
      <trkpt lat="27.85496000" lon="87.06280000">
        <ele>5108.0000</ele>
        <time>2010-01-01T00:36:12Z</time>
      </trkpt>
      <trkpt lat="27.85512000" lon="87.06251000">
        <ele>5104.0000</ele>
        <time>2010-01-01T00:36:36Z</time>
      </trkpt>
      <trkpt lat="27.85520000" lon="87.06253000">
        <ele>5099.0000</ele>
        <time>2010-01-01T00:36:42Z</time>
      </trkpt>
      <trkpt lat="27.85522000" lon="87.06242000">
        <ele>5100.0000</ele>
        <time>2010-01-01T00:36:50Z</time>
      </trkpt>
      <trkpt lat="27.85535000" lon="87.06214000">
        <ele>5105.0000</ele>
        <time>2010-01-01T00:37:13Z</time>
      </trkpt>
      <trkpt lat="27.85551000" lon="87.06189000">
        <ele>5111.0000</ele>
        <time>2010-01-01T00:37:35Z</time>
      </trkpt>
      <trkpt lat="27.85559000" lon="87.06159000">
        <ele>5114.0000</ele>
        <time>2010-01-01T00:37:57Z</time>
      </trkpt>
      <trkpt lat="27.85566000" lon="87.06139000">
        <ele>5117.0000</ele>
        <time>2010-01-01T00:38:12Z</time>
      </trkpt>
      <trkpt lat="27.85573000" lon="87.06111000">
        <ele>5121.0000</ele>
        <time>2010-01-01T00:38:33Z</time>
      </trkpt>
      <trkpt lat="27.85576000" lon="87.06089000">
        <ele>5123.0000</ele>
        <time>2010-01-01T00:38:48Z</time>
      </trkpt>
      <trkpt lat="27.85568000" lon="87.06087000">
        <ele>5126.0000</ele>
        <time>2010-01-01T00:38:55Z</time>
      </trkpt>
      <trkpt lat="27.85559000" lon="87.06066000">
        <ele>5131.0000</ele>
        <time>2010-01-01T00:39:11Z</time>
      </trkpt>
      <trkpt lat="27.85562000" lon="87.06049000">
        <ele>5133.0000</ele>
        <time>2010-01-01T00:39:24Z</time>
      </trkpt>
      <trkpt lat="27.85567000" lon="87.06033000">
        <ele>5136.0000</ele>
        <time>2010-01-01T00:39:36Z</time>
      </trkpt>
      <trkpt lat="27.85571000" lon="87.06012000">
        <ele>5139.0000</ele>
        <time>2010-01-01T00:39:51Z</time>
      </trkpt>
      <trkpt lat="27.85577000" lon="87.05989000">
        <ele>5144.0000</ele>
        <time>2010-01-01T00:40:08Z</time>
      </trkpt>
      <trkpt lat="27.85570000" lon="87.05982000">
        <ele>5148.0000</ele>
        <time>2010-01-01T00:40:15Z</time>
      </trkpt>
      <trkpt lat="27.85563000" lon="87.05980000">
        <ele>5150.0000</ele>
        <time>2010-01-01T00:40:21Z</time>
      </trkpt>
      <trkpt lat="27.85557000" lon="87.05968000">
        <ele>5155.0000</ele>
        <time>2010-01-01T00:40:31Z</time>
      </trkpt>
      <trkpt lat="27.85560000" lon="87.05965000">
        <ele>5155.0000</ele>
        <time>2010-01-01T00:40:34Z</time>
      </trkpt>
      <trkpt lat="27.85556000" lon="87.05964000">
        <ele>5156.0000</ele>
        <time>2010-01-01T00:40:37Z</time>
      </trkpt>
      <trkpt lat="27.85550000" lon="87.05957000">
        <ele>5160.0000</ele>
        <time>2010-01-01T00:40:44Z</time>
      </trkpt>
      <trkpt lat="27.85546000" lon="87.05955000">
        <ele>5161.0000</ele>
        <time>2010-01-01T00:40:48Z</time>
      </trkpt>
      <trkpt lat="27.85550000" lon="87.05944000">
        <ele>5163.0000</ele>
        <time>2010-01-01T00:40:56Z</time>
      </trkpt>
      <trkpt lat="27.85548000" lon="87.05934000">
        <ele>5166.0000</ele>
        <time>2010-01-01T00:41:03Z</time>
      </trkpt>
      <trkpt lat="27.85548000" lon="87.05926000">
        <ele>5167.0000</ele>
        <time>2010-01-01T00:41:09Z</time>
      </trkpt>
      <trkpt lat="27.85551000" lon="87.05921000">
        <ele>5168.0000</ele>
        <time>2010-01-01T00:41:13Z</time>
      </trkpt>
      <trkpt lat="27.85551000" lon="87.05915000">
        <ele>5169.0000</ele>
        <time>2010-01-01T00:41:18Z</time>
      </trkpt>
      <trkpt lat="27.85557000" lon="87.05909000">
        <ele>5169.0000</ele>
        <time>2010-01-01T00:41:24Z</time>
      </trkpt>
      <trkpt lat="27.85558000" lon="87.05904000">
        <ele>5170.0000</ele>
        <time>2010-01-01T00:41:28Z</time>
      </trkpt>
      <trkpt lat="27.85565000" lon="87.05894000">
        <ele>5171.0000</ele>
        <time>2010-01-01T00:41:37Z</time>
      </trkpt>
      <trkpt lat="27.85566000" lon="87.05888000">
        <ele>5171.0000</ele>
        <time>2010-01-01T00:41:41Z</time>
      </trkpt>
      <trkpt lat="27.85579000" lon="87.05886000">
        <ele>5169.0000</ele>
        <time>2010-01-01T00:41:52Z</time>
      </trkpt>
      <trkpt lat="27.85580000" lon="87.05882000">
        <ele>5169.0000</ele>
        <time>2010-01-01T00:41:54Z</time>
      </trkpt>
      <trkpt lat="27.85585000" lon="87.05883000">
        <ele>5168.0000</ele>
        <time>2010-01-01T00:41:59Z</time>
      </trkpt>
      <trkpt lat="27.85597000" lon="87.05874000">
        <ele>5165.0000</ele>
        <time>2010-01-01T00:42:10Z</time>
      </trkpt>
      <trkpt lat="27.85608000" lon="87.05869000">
        <ele>5163.0000</ele>
        <time>2010-01-01T00:42:20Z</time>
      </trkpt>
      <trkpt lat="27.85608000" lon="87.05852000">
        <ele>5167.0000</ele>
        <time>2010-01-01T00:42:32Z</time>
      </trkpt>
      <trkpt lat="27.85616162" lon="87.05836772">
        <ele>5169.0000</ele>
        <time>2010-01-01T00:00:00Z</time>
      </trkpt>
      <trkpt lat="27.85615000" lon="87.05836000">
        <ele>5169.0000</ele>
        <time>2010-01-01T00:00:01Z</time>
      </trkpt>
      <trkpt lat="27.85614000" lon="87.05829000">
        <ele>5171.0000</ele>
        <time>2010-01-01T00:00:06Z</time>
      </trkpt>
      <trkpt lat="27.85608000" lon="87.05821000">
        <ele>5174.0000</ele>
        <time>2010-01-01T00:00:13Z</time>
      </trkpt>
      <trkpt lat="27.85613000" lon="87.05814000">
        <ele>5175.0000</ele>
        <time>2010-01-01T00:00:19Z</time>
      </trkpt>
      <trkpt lat="27.85607000" lon="87.05811000">
        <ele>5177.0000</ele>
        <time>2010-01-01T00:00:25Z</time>
      </trkpt>
      <trkpt lat="27.85608000" lon="87.05804000">
        <ele>5179.0000</ele>
        <time>2010-01-01T00:00:30Z</time>
      </trkpt>
      <trkpt lat="27.85600000" lon="87.05799000">
        <ele>5182.0000</ele>
        <time>2010-01-01T00:00:37Z</time>
      </trkpt>
      <trkpt lat="27.85601000" lon="87.05791000">
        <ele>5184.0000</ele>
        <time>2010-01-01T00:00:43Z</time>
      </trkpt>
      <trkpt lat="27.85595000" lon="87.05786000">
        <ele>5187.0000</ele>
        <time>2010-01-01T00:00:49Z</time>
      </trkpt>
      <trkpt lat="27.85597000" lon="87.05764000">
        <ele>5191.0000</ele>
        <time>2010-01-01T00:01:04Z</time>
      </trkpt>
      <trkpt lat="27.85589000" lon="87.05738000">
        <ele>5197.0000</ele>
        <time>2010-01-01T00:01:24Z</time>
      </trkpt>
      <trkpt lat="27.85591000" lon="87.05729000">
        <ele>5197.0000</ele>
        <time>2010-01-01T00:01:30Z</time>
      </trkpt>
      <trkpt lat="27.85591000" lon="87.05723000">
        <ele>5198.0000</ele>
        <time>2010-01-01T00:01:35Z</time>
      </trkpt>
      <trkpt lat="27.85593000" lon="87.05710000">
        <ele>5198.0000</ele>
        <time>2010-01-01T00:01:44Z</time>
      </trkpt>
      <trkpt lat="27.85588000" lon="87.05703000">
        <ele>5199.0000</ele>
        <time>2010-01-01T00:01:50Z</time>
      </trkpt>
      <trkpt lat="27.85587000" lon="87.05690000">
        <ele>5200.0000</ele>
        <time>2010-01-01T00:02:00Z</time>
      </trkpt>
      <trkpt lat="27.85601000" lon="87.05677000">
        <ele>5199.0000</ele>
        <time>2010-01-01T00:02:14Z</time>
      </trkpt>
      <trkpt lat="27.85606000" lon="87.05676000">
        <ele>5199.0000</ele>
        <time>2010-01-01T00:02:18Z</time>
      </trkpt>
      <trkpt lat="27.85611000" lon="87.05671000">
        <ele>5199.0000</ele>
        <time>2010-01-01T00:02:23Z</time>
      </trkpt>
      <trkpt lat="27.85610000" lon="87.05660000">
        <ele>5199.0000</ele>
        <time>2010-01-01T00:02:31Z</time>
      </trkpt>
      <trkpt lat="27.85621000" lon="87.05649000">
        <ele>5196.0000</ele>
        <time>2010-01-01T00:02:43Z</time>
      </trkpt>
      <trkpt lat="27.85641000" lon="87.05633000">
        <ele>5193.0000</ele>
        <time>2010-01-01T00:03:03Z</time>
      </trkpt>
      <trkpt lat="27.85656000" lon="87.05595000">
        <ele>5191.0000</ele>
        <time>2010-01-01T00:03:32Z</time>
      </trkpt>
      <trkpt lat="27.85653000" lon="87.05580000">
        <ele>5192.0000</ele>
        <time>2010-01-01T00:03:43Z</time>
      </trkpt>
      <trkpt lat="27.85654000" lon="87.05566000">
        <ele>5192.0000</ele>
        <time>2010-01-01T00:03:53Z</time>
      </trkpt>
      <trkpt lat="27.85649000" lon="87.05543000">
        <ele>5193.0000</ele>
        <time>2010-01-01T00:04:10Z</time>
      </trkpt>
      <trkpt lat="27.85653000" lon="87.05530000">
        <ele>5192.0000</ele>
        <time>2010-01-01T00:04:19Z</time>
      </trkpt>
      <trkpt lat="27.85655000" lon="87.05505000">
        <ele>5193.0000</ele>
        <time>2010-01-01T00:04:37Z</time>
      </trkpt>
      <trkpt lat="27.85660000" lon="87.05463000">
        <ele>5205.0000</ele>
        <time>2010-01-01T00:05:07Z</time>
      </trkpt>
      <trkpt lat="27.85661000" lon="87.05442000">
        <ele>5213.0000</ele>
        <time>2010-01-01T00:05:22Z</time>
      </trkpt>
      <trkpt lat="27.85667000" lon="87.05437000">
        <ele>5210.0000</ele>
        <time>2010-01-01T00:05:28Z</time>
      </trkpt>
      <trkpt lat="27.85673000" lon="87.05425000">
        <ele>5211.0000</ele>
        <time>2010-01-01T00:05:38Z</time>
      </trkpt>
      <trkpt lat="27.85677000" lon="87.05403000">
        <ele>5218.0000</ele>
        <time>2010-01-01T00:05:54Z</time>
      </trkpt>
      <trkpt lat="27.85684000" lon="87.05394000">
        <ele>5218.0000</ele>
        <time>2010-01-01T00:06:02Z</time>
      </trkpt>
      <trkpt lat="27.85692000" lon="87.05376000">
        <ele>5225.0000</ele>
        <time>2010-01-01T00:06:16Z</time>
      </trkpt>
      <trkpt lat="27.85705000" lon="87.05366000">
        <ele>5224.0000</ele>
        <time>2010-01-01T00:06:29Z</time>
      </trkpt>
      <trkpt lat="27.85720000" lon="87.05346000">
        <ele>5223.0000</ele>
        <time>2010-01-01T00:06:48Z</time>
      </trkpt>
      <trkpt lat="27.85744000" lon="87.05322000">
        <ele>5219.0000</ele>
        <time>2010-01-01T00:07:13Z</time>
      </trkpt>
      <trkpt lat="27.85750000" lon="87.05312000">
        <ele>5219.0000</ele>
        <time>2010-01-01T00:07:22Z</time>
      </trkpt>
      <trkpt lat="27.85751000" lon="87.05303000">
        <ele>5222.0000</ele>
        <time>2010-01-01T00:07:28Z</time>
      </trkpt>
      <trkpt lat="27.85756000" lon="87.05289000">
        <ele>5223.0000</ele>
        <time>2010-01-01T00:07:39Z</time>
      </trkpt>
      <trkpt lat="27.85761000" lon="87.05283000">
        <ele>5221.0000</ele>
        <time>2010-01-01T00:07:45Z</time>
      </trkpt>
      <trkpt lat="27.85769000" lon="87.05268000">
        <ele>5219.0000</ele>
        <time>2010-01-01T00:07:57Z</time>
      </trkpt>
      <trkpt lat="27.85776000" lon="87.05243000">
        <ele>5218.0000</ele>
        <time>2010-01-01T00:08:16Z</time>
      </trkpt>
      <trkpt lat="27.85781000" lon="87.05235000">
        <ele>5215.0000</ele>
        <time>2010-01-01T00:08:23Z</time>
      </trkpt>
      <trkpt lat="27.85785000" lon="87.05214000">
        <ele>5213.0000</ele>
        <time>2010-01-01T00:08:38Z</time>
      </trkpt>
      <trkpt lat="27.85790000" lon="87.05202000">
        <ele>5210.0000</ele>
        <time>2010-01-01T00:08:47Z</time>
      </trkpt>
      <trkpt lat="27.85795000" lon="87.05196000">
        <ele>5207.0000</ele>
        <time>2010-01-01T00:08:53Z</time>
      </trkpt>
      <trkpt lat="27.85801000" lon="87.05190000">
        <ele>5205.0000</ele>
        <time>2010-01-01T00:09:00Z</time>
      </trkpt>
      <trkpt lat="27.85820000" lon="87.05158000">
        <ele>5200.0000</ele>
        <time>2010-01-01T00:09:27Z</time>
      </trkpt>
      <trkpt lat="27.85810000" lon="87.05133000">
        <ele>5206.0000</ele>
        <time>2010-01-01T00:09:46Z</time>
      </trkpt>
      <trkpt lat="27.85807000" lon="87.05111000">
        <ele>5201.0000</ele>
        <time>2010-01-01T00:10:02Z</time>
      </trkpt>
      <trkpt lat="27.85808000" lon="87.05104000">
        <ele>5201.0000</ele>
        <time>2010-01-01T00:10:07Z</time>
      </trkpt>
      <trkpt lat="27.85805000" lon="87.05095000">
        <ele>5201.0000</ele>
        <time>2010-01-01T00:10:14Z</time>
      </trkpt>
      <trkpt lat="27.85803000" lon="87.05084000">
        <ele>5201.0000</ele>
        <time>2010-01-01T00:10:22Z</time>
      </trkpt>
      <trkpt lat="27.85804000" lon="87.05076000">
        <ele>5202.0000</ele>
        <time>2010-01-01T00:10:27Z</time>
      </trkpt>
      <trkpt lat="27.85817000" lon="87.05057000">
        <ele>5201.0000</ele>
        <time>2010-01-01T00:10:44Z</time>
      </trkpt>
      <trkpt lat="27.85827000" lon="87.05047000">
        <ele>5200.0000</ele>
        <time>2010-01-01T00:10:55Z</time>
      </trkpt>
      <trkpt lat="27.85838000" lon="87.05040000">
        <ele>5199.0000</ele>
        <time>2010-01-01T00:11:05Z</time>
      </trkpt>
      <trkpt lat="27.85840000" lon="87.05033000">
        <ele>5199.0000</ele>
        <time>2010-01-01T00:11:10Z</time>
      </trkpt>
      <trkpt lat="27.85848000" lon="87.05031000">
        <ele>5198.0000</ele>
        <time>2010-01-01T00:11:17Z</time>
      </trkpt>
      <trkpt lat="27.85849000" lon="87.05021000">
        <ele>5201.0000</ele>
        <time>2010-01-01T00:11:24Z</time>
      </trkpt>
      <trkpt lat="27.85856000" lon="87.05007000">
        <ele>5204.0000</ele>
        <time>2010-01-01T00:11:36Z</time>
      </trkpt>
      <trkpt lat="27.85858000" lon="87.04998000">
        <ele>5207.0000</ele>
        <time>2010-01-01T00:11:42Z</time>
      </trkpt>
      <trkpt lat="27.85866000" lon="87.04991000">
        <ele>5208.0000</ele>
        <time>2010-01-01T00:11:50Z</time>
      </trkpt>
      <trkpt lat="27.85882000" lon="87.04984000">
        <ele>5208.0000</ele>
        <time>2010-01-01T00:12:04Z</time>
      </trkpt>
      <trkpt lat="27.85887000" lon="87.04978000">
        <ele>5209.0000</ele>
        <time>2010-01-01T00:12:10Z</time>
      </trkpt>
      <trkpt lat="27.85895000" lon="87.04973000">
        <ele>5209.0000</ele>
        <time>2010-01-01T00:12:17Z</time>
      </trkpt>
      <trkpt lat="27.85901000" lon="87.04967000">
        <ele>5210.0000</ele>
        <time>2010-01-01T00:12:24Z</time>
      </trkpt>
      <trkpt lat="27.85909000" lon="87.04963000">
        <ele>5209.0000</ele>
        <time>2010-01-01T00:12:31Z</time>
      </trkpt>
      <trkpt lat="27.85910000" lon="87.04958000">
        <ele>5209.0000</ele>
        <time>2010-01-01T00:12:34Z</time>
      </trkpt>
      <trkpt lat="27.85916000" lon="87.04956000">
        <ele>5208.0000</ele>
        <time>2010-01-01T00:12:39Z</time>
      </trkpt>
      <trkpt lat="27.85922000" lon="87.04940000">
        <ele>5208.0000</ele>
        <time>2010-01-01T00:12:51Z</time>
      </trkpt>
      <trkpt lat="27.85926000" lon="87.04939000">
        <ele>5206.0000</ele>
        <time>2010-01-01T00:12:55Z</time>
      </trkpt>
      <trkpt lat="27.85927000" lon="87.04933000">
        <ele>5207.0000</ele>
        <time>2010-01-01T00:12:59Z</time>
      </trkpt>
      <trkpt lat="27.85940000" lon="87.04920000">
        <ele>5204.0000</ele>
        <time>2010-01-01T00:13:13Z</time>
      </trkpt>
      <trkpt lat="27.85941000" lon="87.04914000">
        <ele>5204.0000</ele>
        <time>2010-01-01T00:13:17Z</time>
      </trkpt>
      <trkpt lat="27.85951000" lon="87.04902000">
        <ele>5201.0000</ele>
        <time>2010-01-01T00:13:29Z</time>
      </trkpt>
      <trkpt lat="27.85957000" lon="87.04888000">
        <ele>5200.0000</ele>
        <time>2010-01-01T00:13:40Z</time>
      </trkpt>
      <trkpt lat="27.85956000" lon="87.04877000">
        <ele>5201.0000</ele>
        <time>2010-01-01T00:13:48Z</time>
      </trkpt>
      <trkpt lat="27.85961000" lon="87.04865000">
        <ele>5200.0000</ele>
        <time>2010-01-01T00:13:57Z</time>
      </trkpt>
      <trkpt lat="27.85975000" lon="87.04852000">
        <ele>5196.0000</ele>
        <time>2010-01-01T00:14:12Z</time>
      </trkpt>
      <trkpt lat="27.85991000" lon="87.04830000">
        <ele>5196.0000</ele>
        <time>2010-01-01T00:14:32Z</time>
      </trkpt>
      <trkpt lat="27.85995000" lon="87.04830000">
        <ele>5195.0000</ele>
        <time>2010-01-01T00:14:35Z</time>
      </trkpt>
      <trkpt lat="27.85995000" lon="87.04823000">
        <ele>5196.0000</ele>
        <time>2010-01-01T00:14:40Z</time>
      </trkpt>
      <trkpt lat="27.86005000" lon="87.04809000">
        <ele>5197.0000</ele>
        <time>2010-01-01T00:14:53Z</time>
      </trkpt>
      <trkpt lat="27.86006000" lon="87.04792000">
        <ele>5197.0000</ele>
        <time>2010-01-01T00:15:05Z</time>
      </trkpt>
      <trkpt lat="27.86009000" lon="87.04784000">
        <ele>5196.0000</ele>
        <time>2010-01-01T00:15:11Z</time>
      </trkpt>
      <trkpt lat="27.86025000" lon="87.04772000">
        <ele>5193.0000</ele>
        <time>2010-01-01T00:15:26Z</time>
      </trkpt>
      <trkpt lat="27.86035000" lon="87.04749000">
        <ele>5191.0000</ele>
        <time>2010-01-01T00:15:44Z</time>
      </trkpt>
      <trkpt lat="27.86041000" lon="87.04741000">
        <ele>5190.0000</ele>
        <time>2010-01-01T00:15:52Z</time>
      </trkpt>
      <trkpt lat="27.86046000" lon="87.04724000">
        <ele>5189.0000</ele>
        <time>2010-01-01T00:16:05Z</time>
      </trkpt>
      <trkpt lat="27.86042000" lon="87.04711000">
        <ele>5191.0000</ele>
        <time>2010-01-01T00:16:14Z</time>
      </trkpt>
      <trkpt lat="27.86045000" lon="87.04692000">
        <ele>5192.0000</ele>
        <time>2010-01-01T00:16:28Z</time>
      </trkpt>
      <trkpt lat="27.86054000" lon="87.04680000">
        <ele>5192.0000</ele>
        <time>2010-01-01T00:16:39Z</time>
      </trkpt>
      <trkpt lat="27.86066000" lon="87.04670000">
        <ele>5192.0000</ele>
        <time>2010-01-01T00:16:51Z</time>
      </trkpt>
      <trkpt lat="27.86081000" lon="87.04665000">
        <ele>5191.0000</ele>
        <time>2010-01-01T00:17:04Z</time>
      </trkpt>
      <trkpt lat="27.86087000" lon="87.04660000">
        <ele>5192.0000</ele>
        <time>2010-01-01T00:17:10Z</time>
      </trkpt>
      <trkpt lat="27.86084000" lon="87.04653000">
        <ele>5194.0000</ele>
        <time>2010-01-01T00:17:15Z</time>
      </trkpt>
      <trkpt lat="27.86108000" lon="87.04643000">
        <ele>5196.0000</ele>
        <time>2010-01-01T00:17:36Z</time>
      </trkpt>
      <trkpt lat="27.86114000" lon="87.04631000">
        <ele>5200.0000</ele>
        <time>2010-01-01T00:17:45Z</time>
      </trkpt>
      <trkpt lat="27.86136000" lon="87.04606000">
        <ele>5211.0000</ele>
        <time>2010-01-01T00:18:10Z</time>
      </trkpt>
      <trkpt lat="27.86139000" lon="87.04592000">
        <ele>5218.0000</ele>
        <time>2010-01-01T00:18:20Z</time>
      </trkpt>
      <trkpt lat="27.86136000" lon="87.04589000">
        <ele>5219.0000</ele>
        <time>2010-01-01T00:18:24Z</time>
      </trkpt>
      <trkpt lat="27.86143000" lon="87.04582000">
        <ele>5223.0000</ele>
        <time>2010-01-01T00:18:31Z</time>
      </trkpt>
      <trkpt lat="27.86136000" lon="87.04578000">
        <ele>5225.0000</ele>
        <time>2010-01-01T00:18:37Z</time>
      </trkpt>
      <trkpt lat="27.86139000" lon="87.04570000">
        <ele>5229.0000</ele>
        <time>2010-01-01T00:18:44Z</time>
      </trkpt>
      <trkpt lat="27.86138000" lon="87.04561000">
        <ele>5234.0000</ele>
        <time>2010-01-01T00:18:50Z</time>
      </trkpt>
      <trkpt lat="27.86144000" lon="87.04557000">
        <ele>5236.0000</ele>
        <time>2010-01-01T00:18:56Z</time>
      </trkpt>
      <trkpt lat="27.86140000" lon="87.04552000">
        <ele>5238.0000</ele>
        <time>2010-01-01T00:19:00Z</time>
      </trkpt>
      <trkpt lat="27.86143000" lon="87.04547000">
        <ele>5240.0000</ele>
        <time>2010-01-01T00:19:05Z</time>
      </trkpt>
      <trkpt lat="27.86151000" lon="87.04544000">
        <ele>5240.0000</ele>
        <time>2010-01-01T00:19:11Z</time>
      </trkpt>
      <trkpt lat="27.86150000" lon="87.04540000">
        <ele>5242.0000</ele>
        <time>2010-01-01T00:19:14Z</time>
      </trkpt>
      <trkpt lat="27.86157000" lon="87.04540000">
        <ele>5241.0000</ele>
        <time>2010-01-01T00:19:20Z</time>
      </trkpt>
      <trkpt lat="27.86159000" lon="87.04532000">
        <ele>5244.0000</ele>
        <time>2010-01-01T00:19:26Z</time>
      </trkpt>
      <trkpt lat="27.86157000" lon="87.04523000">
        <ele>5248.0000</ele>
        <time>2010-01-01T00:19:32Z</time>
      </trkpt>
      <trkpt lat="27.86145000" lon="87.04513000">
        <ele>5253.0000</ele>
        <time>2010-01-01T00:19:44Z</time>
      </trkpt>
      <trkpt lat="27.86151000" lon="87.04510000">
        <ele>5254.0000</ele>
        <time>2010-01-01T00:19:50Z</time>
      </trkpt>
      <trkpt lat="27.86152000" lon="87.04501000">
        <ele>5257.0000</ele>
        <time>2010-01-01T00:19:56Z</time>
      </trkpt>
      <trkpt lat="27.86146000" lon="87.04495000">
        <ele>5261.0000</ele>
        <time>2010-01-01T00:20:02Z</time>
      </trkpt>
      <trkpt lat="27.86143000" lon="87.04484000">
        <ele>5267.0000</ele>
        <time>2010-01-01T00:20:11Z</time>
      </trkpt>
      <trkpt lat="27.86144000" lon="87.04474000">
        <ele>5272.0000</ele>
        <time>2010-01-01T00:20:18Z</time>
      </trkpt>
      <trkpt lat="27.86139000" lon="87.04469000">
        <ele>5274.0000</ele>
        <time>2010-01-01T00:20:23Z</time>
      </trkpt>
      <trkpt lat="27.86142000" lon="87.04461000">
        <ele>5279.0000</ele>
        <time>2010-01-01T00:20:29Z</time>
      </trkpt>
      <trkpt lat="27.86136000" lon="87.04460000">
        <ele>5279.0000</ele>
        <time>2010-01-01T00:20:34Z</time>
      </trkpt>
      <trkpt lat="27.86139000" lon="87.04448000">
        <ele>5286.0000</ele>
        <time>2010-01-01T00:20:43Z</time>
      </trkpt>
      <trkpt lat="27.86133000" lon="87.04446000">
        <ele>5287.0000</ele>
        <time>2010-01-01T00:20:48Z</time>
      </trkpt>
      <trkpt lat="27.86134000" lon="87.04439000">
        <ele>5292.0000</ele>
        <time>2010-01-01T00:20:53Z</time>
      </trkpt>
      <trkpt lat="27.86127000" lon="87.04436000">
        <ele>5294.0000</ele>
        <time>2010-01-01T00:20:59Z</time>
      </trkpt>
      <trkpt lat="27.86129000" lon="87.04426000">
        <ele>5301.0000</ele>
        <time>2010-01-01T00:21:06Z</time>
      </trkpt>
      <trkpt lat="27.86126000" lon="87.04423000">
        <ele>5302.0000</ele>
        <time>2010-01-01T00:21:09Z</time>
      </trkpt>
      <trkpt lat="27.86128000" lon="87.04420000">
        <ele>5305.0000</ele>
        <time>2010-01-01T00:21:12Z</time>
      </trkpt>
      <trkpt lat="27.86124000" lon="87.04418000">
        <ele>5305.0000</ele>
        <time>2010-01-01T00:21:15Z</time>
      </trkpt>
      <trkpt lat="27.86124000" lon="87.04409000">
        <ele>5309.0000</ele>
        <time>2010-01-01T00:21:22Z</time>
      </trkpt>
      <trkpt lat="27.86124000" lon="87.04403000">
        <ele>5312.0000</ele>
        <time>2010-01-01T00:21:26Z</time>
      </trkpt>
      <trkpt lat="27.86121000" lon="87.04400000">
        <ele>5313.0000</ele>
        <time>2010-01-01T00:21:29Z</time>
      </trkpt>
      <trkpt lat="27.86123000" lon="87.04388000">
        <ele>5320.0000</ele>
        <time>2010-01-01T00:21:38Z</time>
      </trkpt>
      <trkpt lat="27.86131000" lon="87.04373000">
        <ele>5324.0000</ele>
        <time>2010-01-01T00:21:50Z</time>
      </trkpt>
      <trkpt lat="27.86142000" lon="87.04360000">
        <ele>5326.0000</ele>
        <time>2010-01-01T00:22:03Z</time>
      </trkpt>
      <trkpt lat="27.86148000" lon="87.04333000">
        <ele>5333.0000</ele>
        <time>2010-01-01T00:22:23Z</time>
      </trkpt>
      <trkpt lat="27.86157000" lon="87.04323000">
        <ele>5333.0000</ele>
        <time>2010-01-01T00:22:33Z</time>
      </trkpt>
      <trkpt lat="27.86161000" lon="87.04306000">
        <ele>5338.0000</ele>
        <time>2010-01-01T00:22:45Z</time>
      </trkpt>
      <trkpt lat="27.86171000" lon="87.04287000">
        <ele>5341.0000</ele>
        <time>2010-01-01T00:23:01Z</time>
      </trkpt>
      <trkpt lat="27.86184000" lon="87.04274000">
        <ele>5342.0000</ele>
        <time>2010-01-01T00:23:15Z</time>
      </trkpt>
      <trkpt lat="27.86186000" lon="87.04262000">
        <ele>5347.0000</ele>
        <time>2010-01-01T00:23:23Z</time>
      </trkpt>
      <trkpt lat="27.86185000" lon="87.04249000">
        <ele>5352.0000</ele>
        <time>2010-01-01T00:23:33Z</time>
      </trkpt>
      <trkpt lat="27.86187000" lon="87.04234000">
        <ele>5356.0000</ele>
        <time>2010-01-01T00:23:43Z</time>
      </trkpt>
      <trkpt lat="27.86183000" lon="87.04231000">
        <ele>5358.0000</ele>
        <time>2010-01-01T00:23:47Z</time>
      </trkpt>
      <trkpt lat="27.86185000" lon="87.04224000">
        <ele>5360.0000</ele>
        <time>2010-01-01T00:23:53Z</time>
      </trkpt>
      <trkpt lat="27.86182000" lon="87.04218000">
        <ele>5362.0000</ele>
        <time>2010-01-01T00:23:57Z</time>
      </trkpt>
      <trkpt lat="27.86183000" lon="87.04209000">
        <ele>5364.0000</ele>
        <time>2010-01-01T00:24:04Z</time>
      </trkpt>
      <trkpt lat="27.86193000" lon="87.04189000">
        <ele>5364.0000</ele>
        <time>2010-01-01T00:24:20Z</time>
      </trkpt>
      <trkpt lat="27.86193000" lon="87.04183000">
        <ele>5366.0000</ele>
        <time>2010-01-01T00:24:24Z</time>
      </trkpt>
      <trkpt lat="27.86194000" lon="87.04164000">
        <ele>5371.0000</ele>
        <time>2010-01-01T00:24:38Z</time>
      </trkpt>
      <trkpt lat="27.86191000" lon="87.04149000">
        <ele>5378.0000</ele>
        <time>2010-01-01T00:24:49Z</time>
      </trkpt>
      <trkpt lat="27.86198000" lon="87.04124000">
        <ele>5384.0000</ele>
        <time>2010-01-01T00:25:07Z</time>
      </trkpt>
      <trkpt lat="27.86211000" lon="87.04101000">
        <ele>5385.0000</ele>
        <time>2010-01-01T00:25:27Z</time>
      </trkpt>
      <trkpt lat="27.86218000" lon="87.04076000">
        <ele>5390.0000</ele>
        <time>2010-01-01T00:25:45Z</time>
      </trkpt>
      <trkpt lat="27.86220000" lon="87.04068000">
        <ele>5392.0000</ele>
        <time>2010-01-01T00:25:51Z</time>
      </trkpt>
      <trkpt lat="27.86230000" lon="87.04053000">
        <ele>5396.0000</ele>
        <time>2010-01-01T00:26:04Z</time>
      </trkpt>
      <trkpt lat="27.86233000" lon="87.04042000">
        <ele>5402.0000</ele>
        <time>2010-01-01T00:26:12Z</time>
      </trkpt>
      <trkpt lat="27.86243000" lon="87.04020000">
        <ele>5411.0000</ele>
        <time>2010-01-01T00:26:30Z</time>
      </trkpt>
      <trkpt lat="27.86245000" lon="87.04014000">
        <ele>5413.0000</ele>
        <time>2010-01-01T00:26:34Z</time>
      </trkpt>
      <trkpt lat="27.86251000" lon="87.04007000">
        <ele>5413.0000</ele>
        <time>2010-01-01T00:26:41Z</time>
      </trkpt>
      <trkpt lat="27.86257000" lon="87.03999000">
        <ele>5412.0000</ele>
        <time>2010-01-01T00:26:49Z</time>
      </trkpt>
      <trkpt lat="27.86261000" lon="87.03986000">
        <ele>5413.0000</ele>
        <time>2010-01-01T00:26:59Z</time>
      </trkpt>
      <trkpt lat="27.86267000" lon="87.03976000">
        <ele>5413.0000</ele>
        <time>2010-01-01T00:27:07Z</time>
      </trkpt>
      <trkpt lat="27.86270000" lon="87.03957000">
        <ele>5418.0000</ele>
        <time>2010-01-01T00:27:21Z</time>
      </trkpt>
      <trkpt lat="27.86278000" lon="87.03948000">
        <ele>5419.0000</ele>
        <time>2010-01-01T00:27:30Z</time>
      </trkpt>
      <trkpt lat="27.86285000" lon="87.03922000">
        <ele>5423.0000</ele>
        <time>2010-01-01T00:27:49Z</time>
      </trkpt>
      <trkpt lat="27.86299000" lon="87.03901000">
        <ele>5424.0000</ele>
        <time>2010-01-01T00:28:08Z</time>
      </trkpt>
      <trkpt lat="27.86302000" lon="87.03888000">
        <ele>5428.0000</ele>
        <time>2010-01-01T00:28:17Z</time>
      </trkpt>
      <trkpt lat="27.86308000" lon="87.03880000">
        <ele>5427.0000</ele>
        <time>2010-01-01T00:28:25Z</time>
      </trkpt>
      <trkpt lat="27.86309000" lon="87.03862000">
        <ele>5429.0000</ele>
        <time>2010-01-01T00:28:37Z</time>
      </trkpt>
      <trkpt lat="27.86314000" lon="87.03857000">
        <ele>5429.0000</ele>
        <time>2010-01-01T00:28:43Z</time>
      </trkpt>
      <trkpt lat="27.86314000" lon="87.03850000">
        <ele>5429.0000</ele>
        <time>2010-01-01T00:28:48Z</time>
      </trkpt>
      <trkpt lat="27.86321000" lon="87.03848000">
        <ele>5428.0000</ele>
        <time>2010-01-01T00:28:53Z</time>
      </trkpt>
      <trkpt lat="27.86335000" lon="87.03816000">
        <ele>5431.0000</ele>
        <time>2010-01-01T00:29:19Z</time>
      </trkpt>
      <trkpt lat="27.86339000" lon="87.03811000">
        <ele>5429.0000</ele>
        <time>2010-01-01T00:29:23Z</time>
      </trkpt>
      <trkpt lat="27.86340000" lon="87.03798000">
        <ele>5432.0000</ele>
        <time>2010-01-01T00:29:33Z</time>
      </trkpt>
      <trkpt lat="27.86353000" lon="87.03766000">
        <ele>5424.0000</ele>
        <time>2010-01-01T00:29:58Z</time>
      </trkpt>
      <trkpt lat="27.86360000" lon="87.03756000">
        <ele>5417.0000</ele>
        <time>2010-01-01T00:30:07Z</time>
      </trkpt>
      <trkpt lat="27.86360000" lon="87.03741000">
        <ele>5416.0000</ele>
        <time>2010-01-01T00:30:17Z</time>
      </trkpt>
      <trkpt lat="27.86364000" lon="87.03730000">
        <ele>5411.0000</ele>
        <time>2010-01-01T00:30:26Z</time>
      </trkpt>
      <trkpt lat="27.86365000" lon="87.03709000">
        <ele>5408.0000</ele>
        <time>2010-01-01T00:30:41Z</time>
      </trkpt>
      <trkpt lat="27.86362000" lon="87.03702000">
        <ele>5409.0000</ele>
        <time>2010-01-01T00:30:46Z</time>
      </trkpt>
      <trkpt lat="27.86351000" lon="87.03686000">
        <ele>5414.0000</ele>
        <time>2010-01-01T00:31:00Z</time>
      </trkpt>
      <trkpt lat="27.86347000" lon="87.03678000">
        <ele>5415.0000</ele>
        <time>2010-01-01T00:31:07Z</time>
      </trkpt>
      <trkpt lat="27.86345000" lon="87.03655000">
        <ele>5408.0000</ele>
        <time>2010-01-01T00:31:23Z</time>
      </trkpt>
      <trkpt lat="27.86351000" lon="87.03642000">
        <ele>5398.0000</ele>
        <time>2010-01-01T00:31:34Z</time>
      </trkpt>
      <trkpt lat="27.86356000" lon="87.03639000">
        <ele>5394.0000</ele>
        <time>2010-01-01T00:31:38Z</time>
      </trkpt>
      <trkpt lat="27.86361000" lon="87.03644000">
        <ele>5393.0000</ele>
        <time>2010-01-01T00:31:44Z</time>
      </trkpt>
      <trkpt lat="27.86359000" lon="87.03629000">
        <ele>5388.0000</ele>
        <time>2010-01-01T00:31:54Z</time>
      </trkpt>
      <trkpt lat="27.86365000" lon="87.03620000">
        <ele>5382.0000</ele>
        <time>2010-01-01T00:32:02Z</time>
      </trkpt>
      <trkpt lat="27.86360000" lon="87.03612000">
        <ele>5381.0000</ele>
        <time>2010-01-01T00:32:09Z</time>
      </trkpt>
      <trkpt lat="27.86362000" lon="87.03605000">
        <ele>5381.0000</ele>
        <time>2010-01-01T00:32:14Z</time>
      </trkpt>
      <trkpt lat="27.86376000" lon="87.03606000">
        <ele>5377.0000</ele>
        <time>2010-01-01T00:32:26Z</time>
      </trkpt>
      <trkpt lat="27.86379000" lon="87.03602000">
        <ele>5376.0000</ele>
        <time>2010-01-01T00:32:29Z</time>
      </trkpt>
      <trkpt lat="27.86384000" lon="87.03591000">
        <ele>5376.0000</ele>
        <time>2010-01-01T00:32:38Z</time>
      </trkpt>
      <trkpt lat="27.86383000" lon="87.03585000">
        <ele>5377.0000</ele>
        <time>2010-01-01T00:32:42Z</time>
      </trkpt>
      <trkpt lat="27.86366000" lon="87.03567000">
        <ele>5385.0000</ele>
        <time>2010-01-01T00:33:01Z</time>
      </trkpt>
      <trkpt lat="27.86359000" lon="87.03544000">
        <ele>5389.0000</ele>
        <time>2010-01-01T00:33:18Z</time>
      </trkpt>
      <trkpt lat="27.86354000" lon="87.03536000">
        <ele>5392.0000</ele>
        <time>2010-01-01T00:33:25Z</time>
      </trkpt>
      <trkpt lat="27.86353000" lon="87.03527000">
        <ele>5393.0000</ele>
        <time>2010-01-01T00:33:32Z</time>
      </trkpt>
      <trkpt lat="27.86345000" lon="87.03527000">
        <ele>5396.0000</ele>
        <time>2010-01-01T00:33:38Z</time>
      </trkpt>
      <trkpt lat="27.86341000" lon="87.03512000">
        <ele>5398.0000</ele>
        <time>2010-01-01T00:33:49Z</time>
      </trkpt>
      <trkpt lat="27.86335000" lon="87.03508000">
        <ele>5401.0000</ele>
        <time>2010-01-01T00:33:55Z</time>
      </trkpt>
      <trkpt lat="27.86325000" lon="87.03498000">
        <ele>5404.0000</ele>
        <time>2010-01-01T00:34:05Z</time>
      </trkpt>
      <trkpt lat="27.86324000" lon="87.03486000">
        <ele>5405.0000</ele>
        <time>2010-01-01T00:34:14Z</time>
      </trkpt>
      <trkpt lat="27.86309000" lon="87.03489000">
        <ele>5409.0000</ele>
        <time>2010-01-01T00:34:26Z</time>
      </trkpt>
      <trkpt lat="27.86305000" lon="87.03464000">
        <ele>5414.0000</ele>
        <time>2010-01-01T00:34:44Z</time>
      </trkpt>
      <trkpt lat="27.86306000" lon="87.03452000">
        <ele>5412.0000</ele>
        <time>2010-01-01T00:34:53Z</time>
      </trkpt>
      <trkpt lat="27.86301000" lon="87.03446000">
        <ele>5413.0000</ele>
        <time>2010-01-01T00:34:58Z</time>
      </trkpt>
      <trkpt lat="27.86284000" lon="87.03385000">
        <ele>5414.0000</ele>
        <time>2010-01-01T00:35:44Z</time>
      </trkpt>
      <trkpt lat="27.86286000" lon="87.03372000">
        <ele>5416.0000</ele>
        <time>2010-01-01T00:35:53Z</time>
      </trkpt>
      <trkpt lat="27.86268000" lon="87.03356000">
        <ele>5423.0000</ele>
        <time>2010-01-01T00:36:11Z</time>
      </trkpt>
      <trkpt lat="27.86246000" lon="87.03317000">
        <ele>5432.0000</ele>
        <time>2010-01-01T00:36:44Z</time>
      </trkpt>
      <trkpt lat="27.86223000" lon="87.03301000">
        <ele>5438.0000</ele>
        <time>2010-01-01T00:37:06Z</time>
      </trkpt>
      <trkpt lat="27.86213000" lon="87.03289000">
        <ele>5443.0000</ele>
        <time>2010-01-01T00:37:17Z</time>
      </trkpt>
      <trkpt lat="27.86209000" lon="87.03239000">
        <ele>5448.0000</ele>
        <time>2010-01-01T00:37:53Z</time>
      </trkpt>
      <trkpt lat="27.86217000" lon="87.03233000">
        <ele>5446.0000</ele>
        <time>2010-01-01T00:38:01Z</time>
      </trkpt>
      <trkpt lat="27.86216000" lon="87.03203000">
        <ele>5450.0000</ele>
        <time>2010-01-01T00:38:22Z</time>
      </trkpt>
      <trkpt lat="27.86205000" lon="87.03177000">
        <ele>5454.0000</ele>
        <time>2010-01-01T00:38:42Z</time>
      </trkpt>
      <trkpt lat="27.86185000" lon="87.03163000">
        <ele>5458.0000</ele>
        <time>2010-01-01T00:39:01Z</time>
      </trkpt>
      <trkpt lat="27.86173000" lon="87.03144000">
        <ele>5461.0000</ele>
        <time>2010-01-01T00:39:18Z</time>
      </trkpt>
      <trkpt lat="27.86172000" lon="87.03133000">
        <ele>5462.0000</ele>
        <time>2010-01-01T00:39:26Z</time>
      </trkpt>
      <trkpt lat="27.86157000" lon="87.03118000">
        <ele>5468.0000</ele>
        <time>2010-01-01T00:39:42Z</time>
      </trkpt>
      <trkpt lat="27.86151000" lon="87.03105000">
        <ele>5470.0000</ele>
        <time>2010-01-01T00:39:52Z</time>
      </trkpt>
      <trkpt lat="27.86159000" lon="87.03100000">
        <ele>5468.0000</ele>
        <time>2010-01-01T00:39:59Z</time>
      </trkpt>
      <trkpt lat="27.86149000" lon="87.03089000">
        <ele>5472.0000</ele>
        <time>2010-01-01T00:40:10Z</time>
      </trkpt>
      <trkpt lat="27.86149000" lon="87.03079000">
        <ele>5473.0000</ele>
        <time>2010-01-01T00:40:17Z</time>
      </trkpt>
      <trkpt lat="27.86141000" lon="87.03066000">
        <ele>5476.0000</ele>
        <time>2010-01-01T00:40:29Z</time>
      </trkpt>
      <trkpt lat="27.86128000" lon="87.03050000">
        <ele>5484.0000</ele>
        <time>2010-01-01T00:40:44Z</time>
      </trkpt>
      <trkpt lat="27.86107000" lon="87.03037000">
        <ele>5492.0000</ele>
        <time>2010-01-01T00:41:03Z</time>
      </trkpt>
      <trkpt lat="27.86096000" lon="87.03024000">
        <ele>5498.0000</ele>
        <time>2010-01-01T00:41:16Z</time>
      </trkpt>
      <trkpt lat="27.86079000" lon="87.03012000">
        <ele>5506.0000</ele>
        <time>2010-01-01T00:41:32Z</time>
      </trkpt>
      <trkpt lat="27.86065000" lon="87.03008000">
        <ele>5509.0000</ele>
        <time>2010-01-01T00:41:44Z</time>
      </trkpt>
      <trkpt lat="27.86049000" lon="87.02959000">
        <ele>5533.0000</ele>
        <time>2010-01-01T00:42:21Z</time>
      </trkpt>
      <trkpt lat="27.86033000" lon="87.02953000">
        <ele>5538.0000</ele>
        <time>2010-01-01T00:42:34Z</time>
      </trkpt>
      <trkpt lat="27.86028000" lon="87.02948000">
        <ele>5541.0000</ele>
        <time>2010-01-01T00:42:39Z</time>
      </trkpt>
      <trkpt lat="27.85981411" lon="87.02630996">
        <ele>5659.0000</ele>
        <time>2010-01-01T00:00:00Z</time>
      </trkpt>
      <trkpt lat="27.85983000" lon="87.02630000">
        <ele>5660.0000</ele>
        <time>2010-01-01T00:00:01Z</time>
      </trkpt>
      <trkpt lat="27.85982000" lon="87.02620000">
        <ele>5661.0000</ele>
        <time>2010-01-01T00:00:08Z</time>
      </trkpt>
      <trkpt lat="27.85992000" lon="87.02605000">
        <ele>5668.0000</ele>
        <time>2010-01-01T00:00:21Z</time>
      </trkpt>
      <trkpt lat="27.85991000" lon="87.02596000">
        <ele>5668.0000</ele>
        <time>2010-01-01T00:00:28Z</time>
      </trkpt>
      <trkpt lat="27.86002000" lon="87.02564000">
        <ele>5674.0000</ele>
        <time>2010-01-01T00:00:52Z</time>
      </trkpt>
      <trkpt lat="27.86000000" lon="87.02551000">
        <ele>5674.0000</ele>
        <time>2010-01-01T00:01:01Z</time>
      </trkpt>
      <trkpt lat="27.86014000" lon="87.02501000">
        <ele>5683.0000</ele>
        <time>2010-01-01T00:01:39Z</time>
      </trkpt>
      <trkpt lat="27.86014000" lon="87.02479000">
        <ele>5682.0000</ele>
        <time>2010-01-01T00:01:54Z</time>
      </trkpt>
      <trkpt lat="27.86023000" lon="87.02450000">
        <ele>5686.0000</ele>
        <time>2010-01-01T00:02:16Z</time>
      </trkpt>
      <trkpt lat="27.86021000" lon="87.02440000">
        <ele>5687.0000</ele>
        <time>2010-01-01T00:02:23Z</time>
      </trkpt>
      <trkpt lat="27.86026000" lon="87.02432000">
        <ele>5689.0000</ele>
        <time>2010-01-01T00:02:30Z</time>
      </trkpt>
      <trkpt lat="27.86036000" lon="87.02396000">
        <ele>5696.0000</ele>
        <time>2010-01-01T00:02:57Z</time>
      </trkpt>
      <trkpt lat="27.86037000" lon="87.02375000">
        <ele>5696.0000</ele>
        <time>2010-01-01T00:03:12Z</time>
      </trkpt>
      <trkpt lat="27.86036000" lon="87.02353000">
        <ele>5696.0000</ele>
        <time>2010-01-01T00:03:27Z</time>
      </trkpt>
      <trkpt lat="27.86005000" lon="87.02343000">
        <ele>5698.0000</ele>
        <time>2010-01-01T00:03:53Z</time>
      </trkpt>
      <trkpt lat="27.85995000" lon="87.02360000">
        <ele>5696.0000</ele>
        <time>2010-01-01T00:04:08Z</time>
      </trkpt>
      <trkpt lat="27.85981000" lon="87.02350000">
        <ele>5702.0000</ele>
        <time>2010-01-01T00:04:21Z</time>
      </trkpt>
      <trkpt lat="27.85978000" lon="87.02335000">
        <ele>5706.0000</ele>
        <time>2010-01-01T00:04:32Z</time>
      </trkpt>
      <trkpt lat="27.85968000" lon="87.02338000">
        <ele>5707.0000</ele>
        <time>2010-01-01T00:04:40Z</time>
      </trkpt>
      <trkpt lat="27.85961000" lon="87.02332000">
        <ele>5709.0000</ele>
        <time>2010-01-01T00:04:47Z</time>
      </trkpt>
      <trkpt lat="27.85963000" lon="87.02323000">
        <ele>5711.0000</ele>
        <time>2010-01-01T00:04:54Z</time>
      </trkpt>
      <trkpt lat="27.85958000" lon="87.02326000">
        <ele>5711.0000</ele>
        <time>2010-01-01T00:04:58Z</time>
      </trkpt>
      <trkpt lat="27.85959000" lon="87.02317000">
        <ele>5713.0000</ele>
        <time>2010-01-01T00:05:04Z</time>
      </trkpt>
      <trkpt lat="27.85941000" lon="87.02319000">
        <ele>5714.0000</ele>
        <time>2010-01-01T00:05:19Z</time>
      </trkpt>
      <trkpt lat="27.85923000" lon="87.02296000">
        <ele>5720.0000</ele>
        <time>2010-01-01T00:05:41Z</time>
      </trkpt>
      <trkpt lat="27.85915000" lon="87.02298000">
        <ele>5720.0000</ele>
        <time>2010-01-01T00:05:47Z</time>
      </trkpt>
      <trkpt lat="27.85903000" lon="87.02283000">
        <ele>5721.0000</ele>
        <time>2010-01-01T00:06:02Z</time>
      </trkpt>
      <trkpt lat="27.85897000" lon="87.02282000">
        <ele>5721.0000</ele>
        <time>2010-01-01T00:06:06Z</time>
      </trkpt>
      <trkpt lat="27.85895000" lon="87.02267000">
        <ele>5723.0000</ele>
        <time>2010-01-01T00:06:17Z</time>
      </trkpt>
      <trkpt lat="27.85898000" lon="87.02253000">
        <ele>5725.0000</ele>
        <time>2010-01-01T00:06:27Z</time>
      </trkpt>
      <trkpt lat="27.85905000" lon="87.02239000">
        <ele>5729.0000</ele>
        <time>2010-01-01T00:06:39Z</time>
      </trkpt>
      <trkpt lat="27.85896000" lon="87.02230000">
        <ele>5730.0000</ele>
        <time>2010-01-01T00:06:48Z</time>
      </trkpt>
      <trkpt lat="27.85894000" lon="87.02233000">
        <ele>5730.0000</ele>
        <time>2010-01-01T00:06:51Z</time>
      </trkpt>
      <trkpt lat="27.85884000" lon="87.02220000">
        <ele>5733.0000</ele>
        <time>2010-01-01T00:07:03Z</time>
      </trkpt>
      <trkpt lat="27.85879000" lon="87.02205000">
        <ele>5738.0000</ele>
        <time>2010-01-01T00:07:15Z</time>
      </trkpt>
      <trkpt lat="27.85881000" lon="87.02186000">
        <ele>5746.0000</ele>
        <time>2010-01-01T00:07:28Z</time>
      </trkpt>
      <trkpt lat="27.85889000" lon="87.02179000">
        <ele>5751.0000</ele>
        <time>2010-01-01T00:07:36Z</time>
      </trkpt>
      <trkpt lat="27.85882000" lon="87.02174000">
        <ele>5752.0000</ele>
        <time>2010-01-01T00:07:43Z</time>
      </trkpt>
      <trkpt lat="27.85887000" lon="87.02166000">
        <ele>5758.0000</ele>
        <time>2010-01-01T00:07:50Z</time>
      </trkpt>
      <trkpt lat="27.85888000" lon="87.02151000">
        <ele>5763.0000</ele>
        <time>2010-01-01T00:08:00Z</time>
      </trkpt>
      <trkpt lat="27.85891000" lon="87.02148000">
        <ele>5765.0000</ele>
        <time>2010-01-01T00:08:04Z</time>
      </trkpt>
      <trkpt lat="27.85888000" lon="87.02135000">
        <ele>5767.0000</ele>
        <time>2010-01-01T00:08:13Z</time>
      </trkpt>
      <trkpt lat="27.85887000" lon="87.02117000">
        <ele>5769.0000</ele>
        <time>2010-01-01T00:08:26Z</time>
      </trkpt>
      <trkpt lat="27.85889000" lon="87.02068000">
        <ele>5770.0000</ele>
        <time>2010-01-01T00:09:01Z</time>
      </trkpt>
      <trkpt lat="27.85885000" lon="87.02049000">
        <ele>5773.0000</ele>
        <time>2010-01-01T00:09:14Z</time>
      </trkpt>
      <trkpt lat="27.85883000" lon="87.02024000">
        <ele>5777.0000</ele>
        <time>2010-01-01T00:09:32Z</time>
      </trkpt>
      <trkpt lat="27.85866000" lon="87.01999000">
        <ele>5785.0000</ele>
        <time>2010-01-01T00:09:55Z</time>
      </trkpt>
      <trkpt lat="27.85855000" lon="87.01955000">
        <ele>5800.0000</ele>
        <time>2010-01-01T00:10:27Z</time>
      </trkpt>
      <trkpt lat="27.85845000" lon="87.01933000">
        <ele>5804.0000</ele>
        <time>2010-01-01T00:10:44Z</time>
      </trkpt>
      <trkpt lat="27.85843000" lon="87.01913000">
        <ele>5805.0000</ele>
        <time>2010-01-01T00:10:59Z</time>
      </trkpt>
      <trkpt lat="27.85846000" lon="87.01901000">
        <ele>5806.0000</ele>
        <time>2010-01-01T00:11:08Z</time>
      </trkpt>
      <trkpt lat="27.85855000" lon="87.01886000">
        <ele>5807.0000</ele>
        <time>2010-01-01T00:11:20Z</time>
      </trkpt>
      <trkpt lat="27.85859000" lon="87.01875000">
        <ele>5808.0000</ele>
        <time>2010-01-01T00:11:29Z</time>
      </trkpt>
      <trkpt lat="27.85863000" lon="87.01862000">
        <ele>5809.0000</ele>
        <time>2010-01-01T00:11:39Z</time>
      </trkpt>
      <trkpt lat="27.85864000" lon="87.01841000">
        <ele>5809.0000</ele>
        <time>2010-01-01T00:11:53Z</time>
      </trkpt>
      <trkpt lat="27.85868000" lon="87.01839000">
        <ele>5809.0000</ele>
        <time>2010-01-01T00:11:57Z</time>
      </trkpt>
      <trkpt lat="27.85897000" lon="87.01839000">
        <ele>5806.0000</ele>
        <time>2010-01-01T00:12:20Z</time>
      </trkpt>
      <trkpt lat="27.85912000" lon="87.01828000">
        <ele>5805.0000</ele>
        <time>2010-01-01T00:12:34Z</time>
      </trkpt>
      <trkpt lat="27.85925000" lon="87.01812000">
        <ele>5805.0000</ele>
        <time>2010-01-01T00:12:50Z</time>
      </trkpt>
      <trkpt lat="27.85934000" lon="87.01796000">
        <ele>5806.0000</ele>
        <time>2010-01-01T00:13:03Z</time>
      </trkpt>
      <trkpt lat="27.85943000" lon="87.01785000">
        <ele>5807.0000</ele>
        <time>2010-01-01T00:13:14Z</time>
      </trkpt>
      <trkpt lat="27.85946000" lon="87.01768000">
        <ele>5809.0000</ele>
        <time>2010-01-01T00:13:26Z</time>
      </trkpt>
      <trkpt lat="27.85981000" lon="87.01723000">
        <ele>5826.0000</ele>
        <time>2010-01-01T00:14:09Z</time>
      </trkpt>
      <trkpt lat="27.86000000" lon="87.01689000">
        <ele>5837.0000</ele>
        <time>2010-01-01T00:14:37Z</time>
      </trkpt>
      <trkpt lat="27.86005000" lon="87.01684000">
        <ele>5838.0000</ele>
        <time>2010-01-01T00:14:42Z</time>
      </trkpt>
      <trkpt lat="27.86000000" lon="87.01655000">
        <ele>5842.0000</ele>
        <time>2010-01-01T00:15:03Z</time>
      </trkpt>
      <trkpt lat="27.85991000" lon="87.01642000">
        <ele>5842.0000</ele>
        <time>2010-01-01T00:15:15Z</time>
      </trkpt>
      <trkpt lat="27.85978000" lon="87.01629000">
        <ele>5842.0000</ele>
        <time>2010-01-01T00:15:29Z</time>
      </trkpt>
      <trkpt lat="27.85966000" lon="87.01612000">
        <ele>5842.0000</ele>
        <time>2010-01-01T00:15:44Z</time>
      </trkpt>
      <trkpt lat="27.85949000" lon="87.01595000">
        <ele>5848.0000</ele>
        <time>2010-01-01T00:16:02Z</time>
      </trkpt>
      <trkpt lat="27.85934000" lon="87.01581000">
        <ele>5856.0000</ele>
        <time>2010-01-01T00:16:18Z</time>
      </trkpt>
      <trkpt lat="27.85895000" lon="87.01540000">
        <ele>5864.0000</ele>
        <time>2010-01-01T00:17:01Z</time>
      </trkpt>
      <trkpt lat="27.85882000" lon="87.01530000">
        <ele>5864.0000</ele>
        <time>2010-01-01T00:17:13Z</time>
      </trkpt>
      <trkpt lat="27.85871000" lon="87.01525000">
        <ele>5864.0000</ele>
        <time>2010-01-01T00:17:23Z</time>
      </trkpt>
      <trkpt lat="27.85843000" lon="87.01520000">
        <ele>5870.0000</ele>
        <time>2010-01-01T00:17:45Z</time>
      </trkpt>
      <trkpt lat="27.85829000" lon="87.01522000">
        <ele>5873.0000</ele>
        <time>2010-01-01T00:17:57Z</time>
      </trkpt>
      <trkpt lat="27.85818000" lon="87.01518000">
        <ele>5874.0000</ele>
        <time>2010-01-01T00:18:06Z</time>
      </trkpt>
      <trkpt lat="27.85801000" lon="87.01508000">
        <ele>5876.0000</ele>
        <time>2010-01-01T00:18:21Z</time>
      </trkpt>
      <trkpt lat="27.85800000" lon="87.01508000">
        <ele>5876.0000</ele>
        <time>2010-01-01T00:18:22Z</time>
      </trkpt>
      <trkpt lat="27.85785000" lon="87.01504000">
        <ele>5877.0000</ele>
        <time>2010-01-01T00:18:34Z</time>
      </trkpt>
      <trkpt lat="27.85773000" lon="87.01493000">
        <ele>5880.0000</ele>
        <time>2010-01-01T00:18:47Z</time>
      </trkpt>
      <trkpt lat="27.85762000" lon="87.01476000">
        <ele>5886.0000</ele>
        <time>2010-01-01T00:19:02Z</time>
      </trkpt>
      <trkpt lat="27.85752000" lon="87.01459000">
        <ele>5892.0000</ele>
        <time>2010-01-01T00:19:16Z</time>
      </trkpt>
      <trkpt lat="27.85736000" lon="87.01438000">
        <ele>5896.0000</ele>
        <time>2010-01-01T00:19:36Z</time>
      </trkpt>
      <trkpt lat="27.85707000" lon="87.01405000">
        <ele>5900.0000</ele>
        <time>2010-01-01T00:20:09Z</time>
      </trkpt>
      <trkpt lat="27.85694000" lon="87.01399000">
        <ele>5901.0000</ele>
        <time>2010-01-01T00:20:20Z</time>
      </trkpt>
      <trkpt lat="27.85682000" lon="87.01381000">
        <ele>5903.0000</ele>
        <time>2010-01-01T00:20:36Z</time>
      </trkpt>
      <trkpt lat="27.85666000" lon="87.01353000">
        <ele>5907.0000</ele>
        <time>2010-01-01T00:20:59Z</time>
      </trkpt>
      <trkpt lat="27.85641000" lon="87.01303000">
        <ele>5926.0000</ele>
        <time>2010-01-01T00:21:40Z</time>
      </trkpt>
      <trkpt lat="27.85628000" lon="87.01278000">
        <ele>5932.0000</ele>
        <time>2010-01-01T00:22:01Z</time>
      </trkpt>
      <trkpt lat="27.85617000" lon="87.01251000">
        <ele>5943.0000</ele>
        <time>2010-01-01T00:22:22Z</time>
      </trkpt>
      <trkpt lat="27.85611000" lon="87.01227000">
        <ele>5949.0000</ele>
        <time>2010-01-01T00:22:39Z</time>
      </trkpt>
      <trkpt lat="27.85613000" lon="87.01222000">
        <ele>5949.0000</ele>
        <time>2010-01-01T00:22:43Z</time>
      </trkpt>
      <trkpt lat="27.85608000" lon="87.01226000">
        <ele>5950.0000</ele>
        <time>2010-01-01T00:22:48Z</time>
      </trkpt>
      <trkpt lat="27.85604000" lon="87.01216000">
        <ele>5952.0000</ele>
        <time>2010-01-01T00:22:56Z</time>
      </trkpt>
      <trkpt lat="27.85605000" lon="87.01202000">
        <ele>5953.0000</ele>
        <time>2010-01-01T00:23:06Z</time>
      </trkpt>
      <trkpt lat="27.85604000" lon="87.01187000">
        <ele>5955.0000</ele>
        <time>2010-01-01T00:23:17Z</time>
      </trkpt>
      <trkpt lat="27.85599000" lon="87.01176000">
        <ele>5958.0000</ele>
        <time>2010-01-01T00:23:25Z</time>
      </trkpt>
      <trkpt lat="27.85596000" lon="87.01156000">
        <ele>5963.0000</ele>
        <time>2010-01-01T00:23:40Z</time>
      </trkpt>
      <trkpt lat="27.85593000" lon="87.01151000">
        <ele>5965.0000</ele>
        <time>2010-01-01T00:23:44Z</time>
      </trkpt>
      <trkpt lat="27.85592000" lon="87.01144000">
        <ele>5967.0000</ele>
        <time>2010-01-01T00:23:49Z</time>
      </trkpt>
      <trkpt lat="27.85590000" lon="87.01139000">
        <ele>5968.0000</ele>
        <time>2010-01-01T00:23:53Z</time>
      </trkpt>
      <trkpt lat="27.85586000" lon="87.01125000">
        <ele>5972.0000</ele>
        <time>2010-01-01T00:24:03Z</time>
      </trkpt>
      <trkpt lat="27.85584000" lon="87.01120000">
        <ele>5973.0000</ele>
        <time>2010-01-01T00:24:07Z</time>
      </trkpt>
      <trkpt lat="27.85585000" lon="87.01118000">
        <ele>5974.0000</ele>
        <time>2010-01-01T00:24:09Z</time>
      </trkpt>
      <trkpt lat="27.85582000" lon="87.01115000">
        <ele>5975.0000</ele>
        <time>2010-01-01T00:24:12Z</time>
      </trkpt>
      <trkpt lat="27.85582000" lon="87.01112000">
        <ele>5976.0000</ele>
        <time>2010-01-01T00:24:14Z</time>
      </trkpt>
      <trkpt lat="27.85580000" lon="87.01111000">
        <ele>5976.0000</ele>
        <time>2010-01-01T00:24:16Z</time>
      </trkpt>
      <trkpt lat="27.85580000" lon="87.01106000">
        <ele>5977.0000</ele>
        <time>2010-01-01T00:24:19Z</time>
      </trkpt>
      <trkpt lat="27.85578000" lon="87.01104000">
        <ele>5977.0000</ele>
        <time>2010-01-01T00:24:21Z</time>
      </trkpt>
      <trkpt lat="27.85580000" lon="87.01102000">
        <ele>5977.0000</ele>
        <time>2010-01-01T00:24:24Z</time>
      </trkpt>
      <trkpt lat="27.85577000" lon="87.01097000">
        <ele>5978.0000</ele>
        <time>2010-01-01T00:24:28Z</time>
      </trkpt>
      <trkpt lat="27.85578000" lon="87.01094000">
        <ele>5978.0000</ele>
        <time>2010-01-01T00:24:30Z</time>
      </trkpt>
      <trkpt lat="27.85577000" lon="87.01088000">
        <ele>5979.0000</ele>
        <time>2010-01-01T00:24:34Z</time>
      </trkpt>
      <trkpt lat="27.85577000" lon="87.01084000">
        <ele>5980.0000</ele>
        <time>2010-01-01T00:24:37Z</time>
      </trkpt>
      <trkpt lat="27.85573000" lon="87.01075000">
        <ele>5981.0000</ele>
        <time>2010-01-01T00:24:44Z</time>
      </trkpt>
      <trkpt lat="27.85575000" lon="87.01072000">
        <ele>5981.0000</ele>
        <time>2010-01-01T00:24:47Z</time>
      </trkpt>
      <trkpt lat="27.85572000" lon="87.01070000">
        <ele>5982.0000</ele>
        <time>2010-01-01T00:24:50Z</time>
      </trkpt>
      <trkpt lat="27.85573000" lon="87.01065000">
        <ele>5983.0000</ele>
        <time>2010-01-01T00:24:54Z</time>
      </trkpt>
      <trkpt lat="27.85571000" lon="87.01062000">
        <ele>5983.0000</ele>
        <time>2010-01-01T00:24:56Z</time>
      </trkpt>
      <trkpt lat="27.85572000" lon="87.01058000">
        <ele>5984.0000</ele>
        <time>2010-01-01T00:24:59Z</time>
      </trkpt>
      <trkpt lat="27.85568000" lon="87.01047000">
        <ele>5987.0000</ele>
        <time>2010-01-01T00:25:08Z</time>
      </trkpt>
      <trkpt lat="27.85570000" lon="87.01047000">
        <ele>5986.0000</ele>
        <time>2010-01-01T00:25:09Z</time>
      </trkpt>
      <trkpt lat="27.85567000" lon="87.01045000">
        <ele>5987.0000</ele>
        <time>2010-01-01T00:25:12Z</time>
      </trkpt>
      <trkpt lat="27.85568000" lon="87.01041000">
        <ele>5988.0000</ele>
        <time>2010-01-01T00:25:15Z</time>
      </trkpt>
      <trkpt lat="27.85567000" lon="87.01040000">
        <ele>5988.0000</ele>
        <time>2010-01-01T00:25:16Z</time>
      </trkpt>
      <trkpt lat="27.85567000" lon="87.01031000">
        <ele>5990.0000</ele>
        <time>2010-01-01T00:25:22Z</time>
      </trkpt>
      <trkpt lat="27.85564000" lon="87.01029000">
        <ele>5991.0000</ele>
        <time>2010-01-01T00:25:25Z</time>
      </trkpt>
      <trkpt lat="27.85561000" lon="87.01024000">
        <ele>5993.0000</ele>
        <time>2010-01-01T00:25:29Z</time>
      </trkpt>
      <trkpt lat="27.85560000" lon="87.01016000">
        <ele>5995.0000</ele>
        <time>2010-01-01T00:25:35Z</time>
      </trkpt>
      <trkpt lat="27.85561000" lon="87.01014000">
        <ele>5995.0000</ele>
        <time>2010-01-01T00:25:37Z</time>
      </trkpt>
      <trkpt lat="27.85558000" lon="87.01009000">
        <ele>5997.0000</ele>
        <time>2010-01-01T00:25:41Z</time>
      </trkpt>
      <trkpt lat="27.85559000" lon="87.01000000">
        <ele>5999.0000</ele>
        <time>2010-01-01T00:25:47Z</time>
      </trkpt>
      <trkpt lat="27.85553000" lon="87.00991000">
        <ele>6001.0000</ele>
        <time>2010-01-01T00:25:55Z</time>
      </trkpt>
      <trkpt lat="27.85556000" lon="87.00988000">
        <ele>6001.0000</ele>
        <time>2010-01-01T00:25:59Z</time>
      </trkpt>
      <trkpt lat="27.85555000" lon="87.00976000">
        <ele>6002.0000</ele>
        <time>2010-01-01T00:26:07Z</time>
      </trkpt>
      <trkpt lat="27.85552000" lon="87.00969000">
        <ele>6004.0000</ele>
        <time>2010-01-01T00:26:13Z</time>
      </trkpt>
      <trkpt lat="27.85550000" lon="87.00970000">
        <ele>6004.0000</ele>
        <time>2010-01-01T00:26:14Z</time>
      </trkpt>
      <trkpt lat="27.85551000" lon="87.00952000">
        <ele>6007.0000</ele>
        <time>2010-01-01T00:26:27Z</time>
      </trkpt>
      <trkpt lat="27.85547000" lon="87.00953000">
        <ele>6007.0000</ele>
        <time>2010-01-01T00:26:30Z</time>
      </trkpt>
      <trkpt lat="27.85550000" lon="87.00948000">
        <ele>6007.0000</ele>
        <time>2010-01-01T00:26:35Z</time>
      </trkpt>
      <trkpt lat="27.85547000" lon="87.00944000">
        <ele>6008.0000</ele>
        <time>2010-01-01T00:26:38Z</time>
      </trkpt>
      <trkpt lat="27.85552000" lon="87.00926000">
        <ele>6012.0000</ele>
        <time>2010-01-01T00:26:52Z</time>
      </trkpt>
      <trkpt lat="27.85547000" lon="87.00922000">
        <ele>6013.0000</ele>
        <time>2010-01-01T00:26:57Z</time>
      </trkpt>
      <trkpt lat="27.85550000" lon="87.00911000">
        <ele>6015.0000</ele>
        <time>2010-01-01T00:27:05Z</time>
      </trkpt>
      <trkpt lat="27.85548000" lon="87.00906000">
        <ele>6016.0000</ele>
        <time>2010-01-01T00:27:09Z</time>
      </trkpt>
      <trkpt lat="27.85551000" lon="87.00903000">
        <ele>6016.0000</ele>
        <time>2010-01-01T00:27:12Z</time>
      </trkpt>
      <trkpt lat="27.85546000" lon="87.00899000">
        <ele>6018.0000</ele>
        <time>2010-01-01T00:27:17Z</time>
      </trkpt>
      <trkpt lat="27.85544000" lon="87.00887000">
        <ele>6020.0000</ele>
        <time>2010-01-01T00:27:25Z</time>
      </trkpt>
      <trkpt lat="27.85541000" lon="87.00886000">
        <ele>6021.0000</ele>
        <time>2010-01-01T00:27:28Z</time>
      </trkpt>
      <trkpt lat="27.85542000" lon="87.00882000">
        <ele>6022.0000</ele>
        <time>2010-01-01T00:27:31Z</time>
      </trkpt>
      <trkpt lat="27.85539000" lon="87.00883000">
        <ele>6022.0000</ele>
        <time>2010-01-01T00:27:33Z</time>
      </trkpt>
      <trkpt lat="27.85541000" lon="87.00874000">
        <ele>6023.0000</ele>
        <time>2010-01-01T00:27:40Z</time>
      </trkpt>
      <trkpt lat="27.85538000" lon="87.00869000">
        <ele>6025.0000</ele>
        <time>2010-01-01T00:27:44Z</time>
      </trkpt>
      <trkpt lat="27.85535000" lon="87.00870000">
        <ele>6026.0000</ele>
        <time>2010-01-01T00:27:47Z</time>
      </trkpt>
      <trkpt lat="27.85538000" lon="87.00864000">
        <ele>6026.0000</ele>
        <time>2010-01-01T00:27:52Z</time>
      </trkpt>
      <trkpt lat="27.85532000" lon="87.00863000">
        <ele>6028.0000</ele>
        <time>2010-01-01T00:27:57Z</time>
      </trkpt>
      <trkpt lat="27.85534000" lon="87.00858000">
        <ele>6028.0000</ele>
        <time>2010-01-01T00:28:00Z</time>
      </trkpt>
      <trkpt lat="27.85530000" lon="87.00859000">
        <ele>6029.0000</ele>
        <time>2010-01-01T00:28:04Z</time>
      </trkpt>
      <trkpt lat="27.85531000" lon="87.00855000">
        <ele>6030.0000</ele>
        <time>2010-01-01T00:28:07Z</time>
      </trkpt>
      <trkpt lat="27.85530000" lon="87.00852000">
        <ele>6032.0000</ele>
        <time>2010-01-01T00:28:09Z</time>
      </trkpt>
      <trkpt lat="27.85532000" lon="87.00849000">
        <ele>6032.0000</ele>
        <time>2010-01-01T00:28:12Z</time>
      </trkpt>
      <trkpt lat="27.85530000" lon="87.00847000">
        <ele>6033.0000</ele>
        <time>2010-01-01T00:28:14Z</time>
      </trkpt>
      <trkpt lat="27.85532000" lon="87.00843000">
        <ele>6034.0000</ele>
        <time>2010-01-01T00:28:17Z</time>
      </trkpt>
      <trkpt lat="27.85530000" lon="87.00842000">
        <ele>6035.0000</ele>
        <time>2010-01-01T00:28:19Z</time>
      </trkpt>
      <trkpt lat="27.85529000" lon="87.00834000">
        <ele>6038.0000</ele>
        <time>2010-01-01T00:28:24Z</time>
      </trkpt>
      <trkpt lat="27.85524000" lon="87.00826000">
        <ele>6043.0000</ele>
        <time>2010-01-01T00:28:31Z</time>
      </trkpt>
      <trkpt lat="27.85524000" lon="87.00820000">
        <ele>6045.0000</ele>
        <time>2010-01-01T00:28:36Z</time>
      </trkpt>
      <trkpt lat="27.85527000" lon="87.00813000">
        <ele>6046.0000</ele>
        <time>2010-01-01T00:28:41Z</time>
      </trkpt>
      <trkpt lat="27.85532000" lon="87.00813000">
        <ele>6045.0000</ele>
        <time>2010-01-01T00:28:45Z</time>
      </trkpt>
      <trkpt lat="27.85555000" lon="87.00818000">
        <ele>6038.0000</ele>
        <time>2010-01-01T00:29:04Z</time>
      </trkpt>
      <trkpt lat="27.85548000" lon="87.00809000">
        <ele>6043.0000</ele>
        <time>2010-01-01T00:29:12Z</time>
      </trkpt>
      <trkpt lat="27.85548000" lon="87.00794000">
        <ele>6049.0000</ele>
        <time>2010-01-01T00:29:23Z</time>
      </trkpt>
      <trkpt lat="27.85535000" lon="87.00787000">
        <ele>6054.0000</ele>
        <time>2010-01-01T00:29:34Z</time>
      </trkpt>
      <trkpt lat="27.85530000" lon="87.00775000">
        <ele>6059.0000</ele>
        <time>2010-01-01T00:29:44Z</time>
      </trkpt>
      <trkpt lat="27.85532000" lon="87.00744000">
        <ele>6065.0000</ele>
        <time>2010-01-01T00:30:06Z</time>
      </trkpt>
      <trkpt lat="27.85538000" lon="87.00713000">
        <ele>6071.0000</ele>
        <time>2010-01-01T00:30:28Z</time>
      </trkpt>
      <trkpt lat="27.85545000" lon="87.00698000">
        <ele>6075.0000</ele>
        <time>2010-01-01T00:30:40Z</time>
      </trkpt>
      <trkpt lat="27.85547000" lon="87.00672000">
        <ele>6081.0000</ele>
        <time>2010-01-01T00:30:59Z</time>
      </trkpt>
      <trkpt lat="27.85556000" lon="87.00658000">
        <ele>6080.0000</ele>
        <time>2010-01-01T00:31:11Z</time>
      </trkpt>
      <trkpt lat="27.85561000" lon="87.00647000">
        <ele>6082.0000</ele>
        <time>2010-01-01T00:31:20Z</time>
      </trkpt>
      <trkpt lat="27.85574000" lon="87.00633000">
        <ele>6083.0000</ele>
        <time>2010-01-01T00:31:34Z</time>
      </trkpt>
      <trkpt lat="27.85587000" lon="87.00613000">
        <ele>6088.0000</ele>
        <time>2010-01-01T00:31:52Z</time>
      </trkpt>
      <trkpt lat="27.85592000" lon="87.00602000">
        <ele>6092.0000</ele>
        <time>2010-01-01T00:32:01Z</time>
      </trkpt>
      <trkpt lat="27.85600000" lon="87.00579000">
        <ele>6100.0000</ele>
        <time>2010-01-01T00:32:18Z</time>
      </trkpt>
      <trkpt lat="27.85610000" lon="87.00558000">
        <ele>6106.0000</ele>
        <time>2010-01-01T00:32:35Z</time>
      </trkpt>
      <trkpt lat="27.85617000" lon="87.00548000">
        <ele>6109.0000</ele>
        <time>2010-01-01T00:32:44Z</time>
      </trkpt>
      <trkpt lat="27.85622000" lon="87.00545000">
        <ele>6110.0000</ele>
        <time>2010-01-01T00:32:48Z</time>
      </trkpt>
      <trkpt lat="27.85628000" lon="87.00536000">
        <ele>6112.0000</ele>
        <time>2010-01-01T00:32:56Z</time>
      </trkpt>
      <trkpt lat="27.85629000" lon="87.00524000">
        <ele>6116.0000</ele>
        <time>2010-01-01T00:33:05Z</time>
      </trkpt>
      <trkpt lat="27.85628000" lon="87.00512000">
        <ele>6122.0000</ele>
        <time>2010-01-01T00:33:13Z</time>
      </trkpt>
      <trkpt lat="27.85630000" lon="87.00507000">
        <ele>6123.0000</ele>
        <time>2010-01-01T00:33:17Z</time>
      </trkpt>
      <trkpt lat="27.85626000" lon="87.00503000">
        <ele>6126.0000</ele>
        <time>2010-01-01T00:33:22Z</time>
      </trkpt>
      <trkpt lat="27.85621000" lon="87.00502000">
        <ele>6128.0000</ele>
        <time>2010-01-01T00:33:26Z</time>
      </trkpt>
      <trkpt lat="27.85616000" lon="87.00497000">
        <ele>6133.0000</ele>
        <time>2010-01-01T00:33:31Z</time>
      </trkpt>
      <trkpt lat="27.85611000" lon="87.00491000">
        <ele>6138.0000</ele>
        <time>2010-01-01T00:33:37Z</time>
      </trkpt>
      <trkpt lat="27.85610000" lon="87.00480000">
        <ele>6144.0000</ele>
        <time>2010-01-01T00:33:45Z</time>
      </trkpt>
      <trkpt lat="27.85611000" lon="87.00473000">
        <ele>6148.0000</ele>
        <time>2010-01-01T00:33:50Z</time>
      </trkpt>
      <trkpt lat="27.85617000" lon="87.00466000">
        <ele>6149.0000</ele>
        <time>2010-01-01T00:33:57Z</time>
      </trkpt>
      <trkpt lat="27.85628000" lon="87.00463000">
        <ele>6145.0000</ele>
        <time>2010-01-01T00:34:06Z</time>
      </trkpt>
      <trkpt lat="27.85628000" lon="87.00460000">
        <ele>6147.0000</ele>
        <time>2010-01-01T00:34:08Z</time>
      </trkpt>
      <trkpt lat="27.85620000" lon="87.00451000">
        <ele>6155.0000</ele>
        <time>2010-01-01T00:34:17Z</time>
      </trkpt>
      <trkpt lat="27.85625000" lon="87.00447000">
        <ele>6154.0000</ele>
        <time>2010-01-01T00:34:22Z</time>
      </trkpt>
      <trkpt lat="27.85621000" lon="87.00444000">
        <ele>6157.0000</ele>
        <time>2010-01-01T00:34:26Z</time>
      </trkpt>
      <trkpt lat="27.85629000" lon="87.00440000">
        <ele>6155.0000</ele>
        <time>2010-01-01T00:34:33Z</time>
      </trkpt>
      <trkpt lat="27.85627000" lon="87.00436000">
        <ele>6156.0000</ele>
        <time>2010-01-01T00:34:36Z</time>
      </trkpt>
      <trkpt lat="27.85629000" lon="87.00432000">
        <ele>6156.0000</ele>
        <time>2010-01-01T00:34:39Z</time>
      </trkpt>
      <trkpt lat="27.85610000" lon="87.00433000">
        <ele>6162.0000</ele>
        <time>2010-01-01T00:34:54Z</time>
      </trkpt>
      <trkpt lat="27.85603000" lon="87.00435000">
        <ele>6160.0000</ele>
        <time>2010-01-01T00:35:00Z</time>
      </trkpt>
      <trkpt lat="27.85601000" lon="87.00440000">
        <ele>6160.0000</ele>
        <time>2010-01-01T00:35:04Z</time>
      </trkpt>
      <trkpt lat="27.85597000" lon="87.00441000">
        <ele>6160.0000</ele>
        <time>2010-01-01T00:35:07Z</time>
      </trkpt>
      <trkpt lat="27.85594000" lon="87.00436000">
        <ele>6159.0000</ele>
        <time>2010-01-01T00:35:12Z</time>
      </trkpt>
      <trkpt lat="27.85585000" lon="87.00433000">
        <ele>6157.0000</ele>
        <time>2010-01-01T00:35:19Z</time>
      </trkpt>
      <trkpt lat="27.85591000" lon="87.00430000">
        <ele>6157.0000</ele>
        <time>2010-01-01T00:35:24Z</time>
      </trkpt>
      <trkpt lat="27.85586000" lon="87.00422000">
        <ele>6154.0000</ele>
        <time>2010-01-01T00:35:31Z</time>
      </trkpt>
      <trkpt lat="27.85570000" lon="87.00413000">
        <ele>6144.0000</ele>
        <time>2010-01-01T00:35:46Z</time>
      </trkpt>
      <trkpt lat="27.85563000" lon="87.00414000">
        <ele>6142.0000</ele>
        <time>2010-01-01T00:35:51Z</time>
      </trkpt>
      <trkpt lat="27.85561000" lon="87.00403000">
        <ele>6139.0000</ele>
        <time>2010-01-01T00:35:59Z</time>
      </trkpt>
      <trkpt lat="27.85556000" lon="87.00392000">
        <ele>6136.0000</ele>
        <time>2010-01-01T00:36:08Z</time>
      </trkpt>
      <trkpt lat="27.85549000" lon="87.00385000">
        <ele>6134.0000</ele>
        <time>2010-01-01T00:36:15Z</time>
      </trkpt>
      <trkpt lat="27.85549000" lon="87.00380000">
        <ele>6133.0000</ele>
        <time>2010-01-01T00:36:19Z</time>
      </trkpt>
      <trkpt lat="27.85541000" lon="87.00373000">
        <ele>6132.0000</ele>
        <time>2010-01-01T00:36:27Z</time>
      </trkpt>
      <trkpt lat="27.85528000" lon="87.00327000">
        <ele>6129.0000</ele>
        <time>2010-01-01T00:37:01Z</time>
      </trkpt>
      <trkpt lat="27.85522000" lon="87.00315000">
        <ele>6128.0000</ele>
        <time>2010-01-01T00:37:11Z</time>
      </trkpt>
      <trkpt lat="27.85522000" lon="87.00312000">
        <ele>6128.0000</ele>
        <time>2010-01-01T00:37:13Z</time>
      </trkpt>
      <trkpt lat="27.85504000" lon="87.00275000">
        <ele>6129.0000</ele>
        <time>2010-01-01T00:37:43Z</time>
      </trkpt>
      <trkpt lat="27.85500000" lon="87.00272000">
        <ele>6129.0000</ele>
        <time>2010-01-01T00:37:47Z</time>
      </trkpt>
      <trkpt lat="27.85493000" lon="87.00262000">
        <ele>6128.0000</ele>
        <time>2010-01-01T00:37:56Z</time>
      </trkpt>
      <trkpt lat="27.85494000" lon="87.00258000">
        <ele>6129.0000</ele>
        <time>2010-01-01T00:37:59Z</time>
      </trkpt>
      <trkpt lat="27.85470000" lon="87.00223000">
        <ele>6127.0000</ele>
        <time>2010-01-01T00:38:30Z</time>
      </trkpt>
      <trkpt lat="27.85470000" lon="87.00217000">
        <ele>6127.0000</ele>
        <time>2010-01-01T00:38:34Z</time>
      </trkpt>
      <trkpt lat="27.85436000" lon="87.00131000">
        <ele>6125.0000</ele>
        <time>2010-01-01T00:39:41Z</time>
      </trkpt>
      <trkpt lat="27.85414000" lon="87.00070000">
        <ele>6130.0000</ele>
        <time>2010-01-01T00:40:28Z</time>
      </trkpt>
      <trkpt lat="27.85411000" lon="87.00059000">
        <ele>6131.0000</ele>
        <time>2010-01-01T00:40:36Z</time>
      </trkpt>
      <trkpt lat="27.85404000" lon="87.00042000">
        <ele>6131.0000</ele>
        <time>2010-01-01T00:40:49Z</time>
      </trkpt>
      <trkpt lat="27.85401000" lon="87.00021000">
        <ele>6132.0000</ele>
        <time>2010-01-01T00:41:04Z</time>
      </trkpt>
      <trkpt lat="27.85401000" lon="87.00010000">
        <ele>6132.0000</ele>
        <time>2010-01-01T00:41:12Z</time>
      </trkpt>
      <trkpt lat="27.85390000" lon="86.99981000">
        <ele>6131.0000</ele>
        <time>2010-01-01T00:41:34Z</time>
      </trkpt>
      <trkpt lat="27.85393000" lon="86.99970000">
        <ele>6131.0000</ele>
        <time>2010-01-01T00:41:42Z</time>
      </trkpt>
      <trkpt lat="27.85392000" lon="86.99940000">
        <ele>6132.0000</ele>
        <time>2010-01-01T00:42:04Z</time>
      </trkpt>
      <trkpt lat="27.85359000" lon="86.99894000">
        <ele>6128.0000</ele>
        <time>2010-01-01T00:42:46Z</time>
      </trkpt>
      <trkpt lat="27.85336000" lon="86.99868000">
        <ele>6123.0000</ele>
        <time>2010-01-01T00:43:12Z</time>
      </trkpt>
      <trkpt lat="27.85324000" lon="86.99846000">
        <ele>6120.0000</ele>
        <time>2010-01-01T00:43:30Z</time>
      </trkpt>
      <trkpt lat="27.85317000" lon="86.99827000">
        <ele>6119.0000</ele>
        <time>2010-01-01T00:43:45Z</time>
      </trkpt>
      <trkpt lat="27.85312000" lon="86.99819000">
        <ele>6119.0000</ele>
        <time>2010-01-01T00:43:51Z</time>
      </trkpt>
      <trkpt lat="27.85309000" lon="86.99819000">
        <ele>6118.0000</ele>
        <time>2010-01-01T00:43:54Z</time>
      </trkpt>
      <trkpt lat="27.85298000" lon="86.99810000">
        <ele>6116.0000</ele>
        <time>2010-01-01T00:44:05Z</time>
      </trkpt>
      <trkpt lat="27.85290000" lon="86.99797000">
        <ele>6115.0000</ele>
        <time>2010-01-01T00:44:16Z</time>
      </trkpt>
      <trkpt lat="27.85282000" lon="86.99773000">
        <ele>6115.0000</ele>
        <time>2010-01-01T00:44:34Z</time>
      </trkpt>
      <trkpt lat="27.85281000" lon="86.99764000">
        <ele>6115.0000</ele>
        <time>2010-01-01T00:44:41Z</time>
      </trkpt>
      <trkpt lat="27.85286000" lon="86.99762000">
        <ele>6116.0000</ele>
        <time>2010-01-01T00:44:45Z</time>
      </trkpt>
      <trkpt lat="27.85281000" lon="86.99747000">
        <ele>6115.0000</ele>
        <time>2010-01-01T00:44:56Z</time>
      </trkpt>
      <trkpt lat="27.85282000" lon="86.99732000">
        <ele>6115.0000</ele>
        <time>2010-01-01T00:45:07Z</time>
      </trkpt>
      <trkpt lat="27.85278000" lon="86.99712000">
        <ele>6115.0000</ele>
        <time>2010-01-01T00:45:21Z</time>
      </trkpt>
      <trkpt lat="27.85272000" lon="86.99711000">
        <ele>6113.0000</ele>
        <time>2010-01-01T00:45:26Z</time>
      </trkpt>
      <trkpt lat="27.85274000" lon="86.99708000">
        <ele>6114.0000</ele>
        <time>2010-01-01T00:45:29Z</time>
      </trkpt>
      <trkpt lat="27.85272000" lon="86.99697000">
        <ele>6113.0000</ele>
        <time>2010-01-01T00:45:37Z</time>
      </trkpt>
      <trkpt lat="27.85261000" lon="86.99682000">
        <ele>6110.0000</ele>
        <time>2010-01-01T00:45:51Z</time>
      </trkpt>
      <trkpt lat="27.85253000" lon="86.99667000">
        <ele>6107.0000</ele>
        <time>2010-01-01T00:46:03Z</time>
      </trkpt>
      <trkpt lat="27.85253000" lon="86.99662000">
        <ele>6108.0000</ele>
        <time>2010-01-01T00:46:07Z</time>
      </trkpt>
      <trkpt lat="27.85229000" lon="86.99620000">
        <ele>6106.0000</ele>
        <time>2010-01-01T00:46:42Z</time>
      </trkpt>
      <trkpt lat="27.85216000" lon="86.99599000">
        <ele>6106.0000</ele>
        <time>2010-01-01T00:47:00Z</time>
      </trkpt>
      <trkpt lat="27.85210000" lon="86.99593000">
        <ele>6106.0000</ele>
        <time>2010-01-01T00:47:06Z</time>
      </trkpt>
      <trkpt lat="27.85189000" lon="86.99563000">
        <ele>6106.0000</ele>
        <time>2010-01-01T00:47:34Z</time>
      </trkpt>
      <trkpt lat="27.85177000" lon="86.99542000">
        <ele>6107.0000</ele>
        <time>2010-01-01T00:47:51Z</time>
      </trkpt>
      <trkpt lat="27.85135000" lon="86.99485000">
        <ele>6107.0000</ele>
        <time>2010-01-01T00:48:44Z</time>
      </trkpt>
      <trkpt lat="27.85117000" lon="86.99464000">
        <ele>6107.0000</ele>
        <time>2010-01-01T00:49:04Z</time>
      </trkpt>
      <trkpt lat="27.85082000" lon="86.99415000">
        <ele>6113.0000</ele>
        <time>2010-01-01T00:49:49Z</time>
      </trkpt>
      <trkpt lat="27.85093551" lon="86.99412345">
        <ele>6113.0000</ele>
        <time>2010-01-01T00:00:00Z</time>
      </trkpt>
      <trkpt lat="27.85085000" lon="86.99419000">
        <ele>6112.0000</ele>
        <time>2010-01-01T00:00:08Z</time>
      </trkpt>
      <trkpt lat="27.85069000" lon="86.99399000">
        <ele>6115.0000</ele>
        <time>2010-01-01T00:00:27Z</time>
      </trkpt>
      <trkpt lat="27.85070000" lon="86.99396000">
        <ele>6115.0000</ele>
        <time>2010-01-01T00:00:29Z</time>
      </trkpt>
      <trkpt lat="27.85063000" lon="86.99389000">
        <ele>6116.0000</ele>
        <time>2010-01-01T00:00:37Z</time>
      </trkpt>
      <trkpt lat="27.85064000" lon="86.99386000">
        <ele>6117.0000</ele>
        <time>2010-01-01T00:00:39Z</time>
      </trkpt>
      <trkpt lat="27.85060000" lon="86.99384000">
        <ele>6117.0000</ele>
        <time>2010-01-01T00:00:42Z</time>
      </trkpt>
      <trkpt lat="27.85052000" lon="86.99371000">
        <ele>6117.0000</ele>
        <time>2010-01-01T00:00:54Z</time>
      </trkpt>
      <trkpt lat="27.85050000" lon="86.99375000">
        <ele>6117.0000</ele>
        <time>2010-01-01T00:00:57Z</time>
      </trkpt>
      <trkpt lat="27.85046000" lon="86.99375000">
        <ele>6116.0000</ele>
        <time>2010-01-01T00:01:00Z</time>
      </trkpt>
      <trkpt lat="27.85028000" lon="86.99368000">
        <ele>6114.0000</ele>
        <time>2010-01-01T00:01:15Z</time>
      </trkpt>
      <trkpt lat="27.85021000" lon="86.99360000">
        <ele>6114.0000</ele>
        <time>2010-01-01T00:01:23Z</time>
      </trkpt>
      <trkpt lat="27.84997000" lon="86.99321000">
        <ele>6115.0000</ele>
        <time>2010-01-01T00:01:57Z</time>
      </trkpt>
      <trkpt lat="27.84983000" lon="86.99297000">
        <ele>6114.0000</ele>
        <time>2010-01-01T00:02:17Z</time>
      </trkpt>
      <trkpt lat="27.84978000" lon="86.99283000">
        <ele>6114.0000</ele>
        <time>2010-01-01T00:02:28Z</time>
      </trkpt>
      <trkpt lat="27.84967000" lon="86.99273000">
        <ele>6115.0000</ele>
        <time>2010-01-01T00:02:39Z</time>
      </trkpt>
      <trkpt lat="27.84969000" lon="86.99271000">
        <ele>6115.0000</ele>
        <time>2010-01-01T00:02:41Z</time>
      </trkpt>
      <trkpt lat="27.84947000" lon="86.99246000">
        <ele>6118.0000</ele>
        <time>2010-01-01T00:03:06Z</time>
      </trkpt>
      <trkpt lat="27.84926000" lon="86.99219000">
        <ele>6119.0000</ele>
        <time>2010-01-01T00:03:32Z</time>
      </trkpt>
      <trkpt lat="27.84888000" lon="86.99175000">
        <ele>6120.0000</ele>
        <time>2010-01-01T00:04:15Z</time>
      </trkpt>
      <trkpt lat="27.84868000" lon="86.99148000">
        <ele>6121.0000</ele>
        <time>2010-01-01T00:04:40Z</time>
      </trkpt>
      <trkpt lat="27.84843000" lon="86.99096000">
        <ele>6121.0000</ele>
        <time>2010-01-01T00:05:22Z</time>
      </trkpt>
      <trkpt lat="27.84854000" lon="86.99081000">
        <ele>6123.0000</ele>
        <time>2010-01-01T00:05:36Z</time>
      </trkpt>
      <trkpt lat="27.84849000" lon="86.99071000">
        <ele>6123.0000</ele>
        <time>2010-01-01T00:05:44Z</time>
      </trkpt>
      <trkpt lat="27.84848000" lon="86.99044000">
        <ele>6123.0000</ele>
        <time>2010-01-01T00:06:03Z</time>
      </trkpt>
      <trkpt lat="27.84852000" lon="86.99042000">
        <ele>6123.0000</ele>
        <time>2010-01-01T00:06:07Z</time>
      </trkpt>
      <trkpt lat="27.84855000" lon="86.99037000">
        <ele>6124.0000</ele>
        <time>2010-01-01T00:06:11Z</time>
      </trkpt>
      <trkpt lat="27.84860000" lon="86.99036000">
        <ele>6125.0000</ele>
        <time>2010-01-01T00:06:15Z</time>
      </trkpt>
      <trkpt lat="27.84865000" lon="86.99027000">
        <ele>6127.0000</ele>
        <time>2010-01-01T00:06:23Z</time>
      </trkpt>
      <trkpt lat="27.84860000" lon="86.99025000">
        <ele>6125.0000</ele>
        <time>2010-01-01T00:06:27Z</time>
      </trkpt>
      <trkpt lat="27.84860000" lon="86.99022000">
        <ele>6125.0000</ele>
        <time>2010-01-01T00:06:29Z</time>
      </trkpt>
      <trkpt lat="27.84864000" lon="86.99011000">
        <ele>6127.0000</ele>
        <time>2010-01-01T00:06:37Z</time>
      </trkpt>
      <trkpt lat="27.84852000" lon="86.99009000">
        <ele>6121.0000</ele>
        <time>2010-01-01T00:06:47Z</time>
      </trkpt>
      <trkpt lat="27.84850000" lon="86.99001000">
        <ele>6119.0000</ele>
        <time>2010-01-01T00:06:53Z</time>
      </trkpt>
      <trkpt lat="27.84846000" lon="86.99001000">
        <ele>6117.0000</ele>
        <time>2010-01-01T00:06:56Z</time>
      </trkpt>
      <trkpt lat="27.84846000" lon="86.98992000">
        <ele>6113.0000</ele>
        <time>2010-01-01T00:07:03Z</time>
      </trkpt>
      <trkpt lat="27.84848000" lon="86.98982000">
        <ele>6109.0000</ele>
        <time>2010-01-01T00:07:10Z</time>
      </trkpt>
      <trkpt lat="27.84843000" lon="86.98983000">
        <ele>6107.0000</ele>
        <time>2010-01-01T00:07:14Z</time>
      </trkpt>
      <trkpt lat="27.84831000" lon="86.98962000">
        <ele>6101.0000</ele>
        <time>2010-01-01T00:07:32Z</time>
      </trkpt>
      <trkpt lat="27.84832000" lon="86.98959000">
        <ele>6102.0000</ele>
        <time>2010-01-01T00:07:34Z</time>
      </trkpt>
      <trkpt lat="27.84829000" lon="86.98959000">
        <ele>6101.0000</ele>
        <time>2010-01-01T00:07:36Z</time>
      </trkpt>
      <trkpt lat="27.84825000" lon="86.98950000">
        <ele>6101.0000</ele>
        <time>2010-01-01T00:07:43Z</time>
      </trkpt>
      <trkpt lat="27.84815000" lon="86.98940000">
        <ele>6088.0000</ele>
        <time>2010-01-01T00:07:54Z</time>
      </trkpt>
      <trkpt lat="27.84794000" lon="86.98927000">
        <ele>6047.0000</ele>
        <time>2010-01-01T00:08:13Z</time>
      </trkpt>
      <trkpt lat="27.84670000" lon="86.98824000">
        <ele>5965.0000</ele>
        <time>2010-01-01T00:10:16Z</time>
      </trkpt>
      <trkpt lat="27.84727000" lon="86.98589000">
        <ele>5887.0000</ele>
        <time>2010-01-01T00:13:09Z</time>
      </trkpt>
      <trkpt lat="27.84799000" lon="86.98544000">
        <ele>5872.0000</ele>
        <time>2010-01-01T00:14:15Z</time>
      </trkpt>
      <trkpt lat="27.84864000" lon="86.98628000">
        <ele>5870.0000</ele>
        <time>2010-01-01T00:15:34Z</time>
      </trkpt>
      <trkpt lat="27.84910000" lon="86.98619000">
        <ele>5869.0000</ele>
        <time>2010-01-01T00:16:11Z</time>
      </trkpt>
      <trkpt lat="27.84935000" lon="86.98587000">
        <ele>5868.0000</ele>
        <time>2010-01-01T00:16:41Z</time>
      </trkpt>
      <trkpt lat="27.84953000" lon="86.98574000">
        <ele>5869.0000</ele>
        <time>2010-01-01T00:16:59Z</time>
      </trkpt>
      <trkpt lat="27.84974000" lon="86.98564000">
        <ele>5874.0000</ele>
        <time>2010-01-01T00:17:17Z</time>
      </trkpt>
      <trkpt lat="27.84984000" lon="86.98545000">
        <ele>5876.0000</ele>
        <time>2010-01-01T00:17:32Z</time>
      </trkpt>
      <trkpt lat="27.84983000" lon="86.98520000">
        <ele>5873.0000</ele>
        <time>2010-01-01T00:17:50Z</time>
      </trkpt>
      <trkpt lat="27.84979000" lon="86.98513000">
        <ele>5872.0000</ele>
        <time>2010-01-01T00:17:56Z</time>
      </trkpt>
      <trkpt lat="27.84989000" lon="86.98480000">
        <ele>5869.0000</ele>
        <time>2010-01-01T00:18:21Z</time>
      </trkpt>
      <trkpt lat="27.84991000" lon="86.98411000">
        <ele>5861.0000</ele>
        <time>2010-01-01T00:19:10Z</time>
      </trkpt>
      <trkpt lat="27.84994000" lon="86.98390000">
        <ele>5856.0000</ele>
        <time>2010-01-01T00:19:25Z</time>
      </trkpt>
      <trkpt lat="27.84995000" lon="86.98360000">
        <ele>5851.0000</ele>
        <time>2010-01-01T00:19:46Z</time>
      </trkpt>
      <trkpt lat="27.84993000" lon="86.98331000">
        <ele>5849.0000</ele>
        <time>2010-01-01T00:20:06Z</time>
      </trkpt>
      <trkpt lat="27.84984000" lon="86.98308000">
        <ele>5847.0000</ele>
        <time>2010-01-01T00:20:24Z</time>
      </trkpt>
      <trkpt lat="27.84973000" lon="86.98291000">
        <ele>5843.0000</ele>
        <time>2010-01-01T00:20:39Z</time>
      </trkpt>
      <trkpt lat="27.84946000" lon="86.98254000">
        <ele>5829.0000</ele>
        <time>2010-01-01T00:21:13Z</time>
      </trkpt>
      <trkpt lat="27.84923000" lon="86.98232000">
        <ele>5824.0000</ele>
        <time>2010-01-01T00:21:37Z</time>
      </trkpt>
      <trkpt lat="27.84893000" lon="86.98199000">
        <ele>5821.0000</ele>
        <time>2010-01-01T00:22:11Z</time>
      </trkpt>
      <trkpt lat="27.84862000" lon="86.98171000">
        <ele>5817.0000</ele>
        <time>2010-01-01T00:22:43Z</time>
      </trkpt>
      <trkpt lat="27.84820000" lon="86.98123000">
        <ele>5808.0000</ele>
        <time>2010-01-01T00:23:30Z</time>
      </trkpt>
      <trkpt lat="27.84808000" lon="86.98104000">
        <ele>5805.0000</ele>
        <time>2010-01-01T00:23:47Z</time>
      </trkpt>
      <trkpt lat="27.84777000" lon="86.98088000">
        <ele>5799.0000</ele>
        <time>2010-01-01T00:24:14Z</time>
      </trkpt>
      <trkpt lat="27.84723000" lon="86.98004000">
        <ele>5794.0000</ele>
        <time>2010-01-01T00:25:28Z</time>
      </trkpt>
      <trkpt lat="27.84715000" lon="86.97990000">
        <ele>5793.0000</ele>
        <time>2010-01-01T00:25:39Z</time>
      </trkpt>
      <trkpt lat="27.84674140" lon="86.97772979">
        <ele>5772.0000</ele>
        <time>2010-01-01T00:28:17Z</time>
      </trkpt>
      <trkpt lat="27.84666551" lon="86.97592735">
        <ele>5753.0000</ele>
        <time>2010-01-01T00:30:24Z</time>
      </trkpt>
      <trkpt lat="27.84696908" lon="86.97403907">
        <ele>5727.0000</ele>
        <time>2010-01-01T00:32:40Z</time>
      </trkpt>
      <trkpt lat="27.84697916" lon="86.97399616">
        <ele>5726.0000</ele>
        <time>2010-01-01T00:00:00Z</time>
      </trkpt>
      <trkpt lat="27.84736869" lon="86.97257995">
        <ele>5693.0000</ele>
        <time>2010-01-01T00:01:44Z</time>
      </trkpt>
      <trkpt lat="27.84797582" lon="86.97137832">
        <ele>5649.0000</ele>
        <time>2010-01-01T00:03:22Z</time>
      </trkpt>
      <trkpt lat="27.84881061" lon="86.97026252">
        <ele>5582.0000</ele>
        <time>2010-01-01T00:05:06Z</time>
      </trkpt>
      <trkpt lat="27.84941773" lon="86.96914672">
        <ele>5566.0000</ele>
        <time>2010-01-01T00:06:39Z</time>
      </trkpt>
      <trkpt lat="27.85017663" lon="86.96785926">
        <ele>5528.0000</ele>
        <time>2010-01-01T00:08:28Z</time>
      </trkpt>
      <trkpt lat="27.85116318" lon="86.96657180">
        <ele>5502.0000</ele>
        <time>2010-01-01T00:10:29Z</time>
      </trkpt>
      <trkpt lat="27.85199795" lon="86.96519851">
        <ele>5512.0000</ele>
        <time>2010-01-01T00:12:27Z</time>
      </trkpt>
      <trkpt lat="27.85260505" lon="86.96391105">
        <ele>5506.0000</ele>
        <time>2010-01-01T00:14:10Z</time>
      </trkpt>
      <trkpt lat="27.85298449" lon="86.96236610">
        <ele>5500.0000</ele>
        <time>2010-01-01T00:16:04Z</time>
      </trkpt>
      <trkpt lat="27.85366747" lon="86.96073532">
        <ele>5495.0000</ele>
        <time>2010-01-01T00:18:11Z</time>
      </trkpt>
      <trkpt lat="27.85427456" lon="86.95944786">
        <ele>5481.0000</ele>
        <time>2010-01-01T00:19:55Z</time>
      </trkpt>
      <trkpt lat="27.85533696" lon="86.95807456">
        <ele>5553.0000</ele>
        <time>2010-01-01T00:22:04Z</time>
      </trkpt>
      <trkpt lat="27.85647524" lon="86.95678710">
        <ele>5556.0000</ele>
        <time>2010-01-01T00:24:13Z</time>
      </trkpt>
      <trkpt lat="27.85746174" lon="86.95592880">
        <ele>5566.0000</ele>
        <time>2010-01-01T00:25:52Z</time>
      </trkpt>
      <trkpt lat="27.85844822" lon="86.95464134">
        <ele>5585.0000</ele>
        <time>2010-01-01T00:27:53Z</time>
      </trkpt>
      <trkpt lat="27.85905529" lon="86.95395469">
        <ele>5634.0000</ele>
        <time>2010-01-01T00:29:02Z</time>
      </trkpt>
      <trkpt lat="27.85981411" lon="86.95292472">
        <ele>5661.0000</ele>
        <time>2010-01-01T00:30:36Z</time>
      </trkpt>
      <trkpt lat="27.86072470" lon="86.95215225">
        <ele>5690.0000</ele>
        <time>2010-01-01T00:32:08Z</time>
      </trkpt>
      <trkpt lat="27.86117999" lon="86.95086479">
        <ele>5720.0000</ele>
        <time>2010-01-01T00:33:46Z</time>
      </trkpt>
      <trkpt lat="27.86133175" lon="86.94889068">
        <ele>5720.0000</ele>
        <time>2010-01-01T00:36:06Z</time>
      </trkpt>
      <trkpt lat="27.86133175" lon="86.94768905">
        <ele>5729.0000</ele>
        <time>2010-01-01T00:37:31Z</time>
      </trkpt>
      <trkpt lat="27.86148351" lon="86.94640159">
        <ele>5716.0000</ele>
        <time>2010-01-01T00:39:03Z</time>
      </trkpt>
      <trkpt lat="27.86171116" lon="86.94459915">
        <ele>5704.0000</ele>
        <time>2010-01-01T00:41:12Z</time>
      </trkpt>
      <trkpt lat="27.86239408" lon="86.94331169">
        <ele>5638.0000</ele>
        <time>2010-01-01T00:42:58Z</time>
      </trkpt>
      <trkpt lat="27.86360817" lon="86.94296836">
        <ele>5704.0000</ele>
        <time>2010-01-01T00:44:38Z</time>
      </trkpt>
      <trkpt lat="27.86451872" lon="86.94296836">
        <ele>5757.0000</ele>
        <time>2010-01-01T00:45:51Z</time>
      </trkpt>
      <trkpt lat="27.86512575" lon="86.94262504">
        <ele>5785.0000</ele>
        <time>2010-01-01T00:46:46Z</time>
      </trkpt>
      <trkpt lat="27.86535339" lon="86.94202423">
        <ele>5786.0000</ele>
        <time>2010-01-01T00:47:32Z</time>
      </trkpt>
      <trkpt lat="27.86542926" lon="86.94116592">
        <ele>5782.0000</ele>
        <time>2010-01-01T00:48:33Z</time>
      </trkpt>
      <trkpt lat="27.86527751" lon="86.93979263">
        <ele>5790.0000</ele>
        <time>2010-01-01T00:50:11Z</time>
      </trkpt>
      <trkpt lat="27.86497399" lon="86.93773269">
        <ele>5785.0000</ele>
        <time>2010-01-01T00:52:39Z</time>
      </trkpt>
      <trkpt lat="27.86474636" lon="86.93635940">
        <ele>5770.0000</ele>
        <time>2010-01-01T00:54:18Z</time>
      </trkpt>
      <trkpt lat="27.86467048" lon="86.93447113">
        <ele>5702.0000</ele>
        <time>2010-01-01T00:56:31Z</time>
      </trkpt>
      <trkpt lat="27.86474636" lon="86.93232536">
        <ele>5722.0000</ele>
        <time>2010-01-01T00:59:03Z</time>
      </trkpt>
      <trkpt lat="27.86527751" lon="86.93060874">
        <ele>5715.0000</ele>
        <time>2010-01-01T01:01:12Z</time>
      </trkpt>
      <trkpt lat="27.86611217" lon="86.92932128">
        <ele>5688.0000</ele>
        <time>2010-01-01T01:03:05Z</time>
      </trkpt>
      <trkpt lat="27.86611217" lon="86.92794799">
        <ele>5669.0000</ele>
        <time>2010-01-01T01:04:42Z</time>
      </trkpt>
      <trkpt lat="27.86565690" lon="86.92640304">
        <ele>5656.0000</ele>
        <time>2010-01-01T01:06:37Z</time>
      </trkpt>
      <trkpt lat="27.86467048" lon="86.92460060">
        <ele>5663.0000</ele>
        <time>2010-01-01T01:09:08Z</time>
      </trkpt>
      <trkpt lat="27.86330465" lon="86.92322731">
        <ele>5625.0000</ele>
        <time>2010-01-01T01:11:34Z</time>
      </trkpt>
      <trkpt lat="27.86163528" lon="86.92262649">
        <ele>5550.0000</ele>
        <time>2010-01-01T01:13:54Z</time>
      </trkpt>
      <trkpt lat="27.85996588" lon="86.92245483">
        <ele>5497.0000</ele>
        <time>2010-01-01T01:16:08Z</time>
      </trkpt>
      <trkpt lat="27.86011764" lon="86.92262649">
        <ele>5507.0000</ele>
        <time>2010-01-01T00:00:00Z</time>
      </trkpt>
      <trkpt lat="27.86002000" lon="86.92244000">
        <ele>5499.0000</ele>
        <time>2010-01-01T00:00:07Z</time>
      </trkpt>
      <trkpt lat="27.86021000" lon="86.92232000">
        <ele>5501.0000</ele>
        <time>2010-01-01T00:00:16Z</time>
      </trkpt>
      <trkpt lat="27.86081000" lon="86.92130000">
        <ele>5505.0000</ele>
        <time>2010-01-01T00:00:59Z</time>
      </trkpt>
      <trkpt lat="27.86215000" lon="86.91986000">
        <ele>5508.0000</ele>
        <time>2010-01-01T00:02:13Z</time>
      </trkpt>
      <trkpt lat="27.86265000" lon="86.91893000">
        <ele>5509.0000</ele>
        <time>2010-01-01T00:02:52Z</time>
      </trkpt>
      <trkpt lat="27.86312000" lon="86.91815000">
        <ele>5514.0000</ele>
        <time>2010-01-01T00:03:25Z</time>
      </trkpt>
      <trkpt lat="27.86346000" lon="86.91794000">
        <ele>5522.0000</ele>
        <time>2010-01-01T00:03:41Z</time>
      </trkpt>
      <trkpt lat="27.86367000" lon="86.91811000">
        <ele>5526.0000</ele>
        <time>2010-01-01T00:03:51Z</time>
      </trkpt>
      <trkpt lat="27.86404000" lon="86.91832000">
        <ele>5526.0000</ele>
        <time>2010-01-01T00:04:08Z</time>
      </trkpt>
      <trkpt lat="27.86474000" lon="86.91894000">
        <ele>5563.0000</ele>
        <time>2010-01-01T00:04:43Z</time>
      </trkpt>
      <trkpt lat="27.86537000" lon="86.91903000">
        <ele>5609.0000</ele>
        <time>2010-01-01T00:05:09Z</time>
      </trkpt>
      <trkpt lat="27.86585000" lon="86.91901000">
        <ele>5636.0000</ele>
        <time>2010-01-01T00:05:28Z</time>
      </trkpt>
      <trkpt lat="27.86663000" lon="86.91881000">
        <ele>5658.0000</ele>
        <time>2010-01-01T00:06:00Z</time>
      </trkpt>
      <trkpt lat="27.86678000" lon="86.91886000">
        <ele>5671.0000</ele>
        <time>2010-01-01T00:06:06Z</time>
      </trkpt>
      <trkpt lat="27.86693000" lon="86.91885000">
        <ele>5684.0000</ele>
        <time>2010-01-01T00:06:12Z</time>
      </trkpt>
      <trkpt lat="27.86706000" lon="86.91877000">
        <ele>5697.0000</ele>
        <time>2010-01-01T00:06:18Z</time>
      </trkpt>
      <trkpt lat="27.86716000" lon="86.91861000">
        <ele>5698.0000</ele>
        <time>2010-01-01T00:06:25Z</time>
      </trkpt>
      <trkpt lat="27.86738000" lon="86.91807000">
        <ele>5712.0000</ele>
        <time>2010-01-01T00:06:46Z</time>
      </trkpt>
      <trkpt lat="27.86751000" lon="86.91784000">
        <ele>5719.0000</ele>
        <time>2010-01-01T00:06:56Z</time>
      </trkpt>
      <trkpt lat="27.86763000" lon="86.91776000">
        <ele>5727.0000</ele>
        <time>2010-01-01T00:07:01Z</time>
      </trkpt>
      <trkpt lat="27.86773000" lon="86.91815000">
        <ele>5748.0000</ele>
        <time>2010-01-01T00:07:16Z</time>
      </trkpt>
      <trkpt lat="27.86798000" lon="86.91804000">
        <ele>5787.0000</ele>
        <time>2010-01-01T00:07:26Z</time>
      </trkpt>
      <trkpt lat="27.86799000" lon="86.91835000">
        <ele>5798.0000</ele>
        <time>2010-01-01T00:07:37Z</time>
      </trkpt>
      <trkpt lat="27.86809000" lon="86.91861000">
        <ele>5810.0000</ele>
        <time>2010-01-01T00:07:47Z</time>
      </trkpt>
      <trkpt lat="27.86780000" lon="86.91872000">
        <ele>5790.0000</ele>
        <time>2010-01-01T00:08:00Z</time>
      </trkpt>
      <trkpt lat="27.86779000" lon="86.91895000">
        <ele>5796.0000</ele>
        <time>2010-01-01T00:08:08Z</time>
      </trkpt>
      <trkpt lat="27.86764000" lon="86.91951000">
        <ele>5788.0000</ele>
        <time>2010-01-01T00:08:28Z</time>
      </trkpt>
      <trkpt lat="27.86733000" lon="86.91999000">
        <ele>5780.0000</ele>
        <time>2010-01-01T00:08:49Z</time>
      </trkpt>
      <trkpt lat="27.86713000" lon="86.92041000">
        <ele>5789.0000</ele>
        <time>2010-01-01T00:09:06Z</time>
      </trkpt>
      <trkpt lat="27.86737000" lon="86.92051000">
        <ele>5795.0000</ele>
        <time>2010-01-01T00:09:17Z</time>
      </trkpt>
      <trkpt lat="27.86784000" lon="86.92050000">
        <ele>5768.0000</ele>
        <time>2010-01-01T00:09:35Z</time>
      </trkpt>
      <trkpt lat="27.86867000" lon="86.92001000">
        <ele>5690.0000</ele>
        <time>2010-01-01T00:10:13Z</time>
      </trkpt>
      <trkpt lat="27.86933000" lon="86.91973000">
        <ele>5646.0000</ele>
        <time>2010-01-01T00:10:41Z</time>
      </trkpt>
      <trkpt lat="27.87127000" lon="86.91965000">
        <ele>5535.0000</ele>
        <time>2010-01-01T00:11:59Z</time>
      </trkpt>
      <trkpt lat="27.87258000" lon="86.91966000">
        <ele>5501.0000</ele>
        <time>2010-01-01T00:12:51Z</time>
      </trkpt>
      <trkpt lat="27.87484000" lon="86.91983000">
        <ele>5435.0000</ele>
        <time>2010-01-01T00:14:22Z</time>
      </trkpt>
      <trkpt lat="27.87703000" lon="86.92063000">
        <ele>5371.0000</ele>
        <time>2010-01-01T00:15:54Z</time>
      </trkpt>
      <trkpt lat="27.87796000" lon="86.92162000">
        <ele>5360.0000</ele>
        <time>2010-01-01T00:16:45Z</time>
      </trkpt>
      <trkpt lat="27.87867000" lon="86.92493000">
        <ele>5362.0000</ele>
        <time>2010-01-01T00:18:46Z</time>
      </trkpt>
      <trkpt lat="27.88032000" lon="86.92731000">
        <ele>5377.0000</ele>
        <time>2010-01-01T00:20:33Z</time>
      </trkpt>
      <trkpt lat="27.88282000" lon="86.93034000">
        <ele>5277.0000</ele>
        <time>2010-01-01T00:22:59Z</time>
      </trkpt>
      <trkpt lat="27.88512000" lon="86.93067000">
        <ele>5249.0000</ele>
        <time>2010-01-01T00:24:32Z</time>
      </trkpt>
      <trkpt lat="27.88651000" lon="86.93055000">
        <ele>5258.0000</ele>
        <time>2010-01-01T00:25:28Z</time>
      </trkpt>
      <trkpt lat="27.88701000" lon="86.93051000">
        <ele>5239.0000</ele>
        <time>2010-01-01T00:25:48Z</time>
      </trkpt>
      <trkpt lat="27.88763000" lon="86.93093000">
        <ele>5214.0000</ele>
        <time>2010-01-01T00:26:17Z</time>
      </trkpt>
      <trkpt lat="27.88860000" lon="86.93102000">
        <ele>5204.0000</ele>
        <time>2010-01-01T00:26:56Z</time>
      </trkpt>
      <trkpt lat="27.89000000" lon="86.93108000">
        <ele>5179.0000</ele>
        <time>2010-01-01T00:27:52Z</time>
      </trkpt>
      <trkpt lat="27.89069000" lon="86.93094000">
        <ele>5164.0000</ele>
        <time>2010-01-01T00:28:20Z</time>
      </trkpt>
      <trkpt lat="27.89116000" lon="86.93020000">
        <ele>5151.0000</ele>
        <time>2010-01-01T00:28:52Z</time>
      </trkpt>
      <trkpt lat="27.89179000" lon="86.92916000">
        <ele>5131.0000</ele>
        <time>2010-01-01T00:29:37Z</time>
      </trkpt>
      <trkpt lat="27.89214000" lon="86.92828000">
        <ele>5113.0000</ele>
        <time>2010-01-01T00:30:11Z</time>
      </trkpt>
      <trkpt lat="27.89269000" lon="86.92738000">
        <ele>5070.0000</ele>
        <time>2010-01-01T00:30:50Z</time>
      </trkpt>
      <trkpt lat="27.89287000" lon="86.92650000">
        <ele>5073.0000</ele>
        <time>2010-01-01T00:31:22Z</time>
      </trkpt>
      <trkpt lat="27.89286000" lon="86.92571000">
        <ele>5077.0000</ele>
        <time>2010-01-01T00:31:50Z</time>
      </trkpt>
      <trkpt lat="27.89333000" lon="86.92343000">
        <ele>5056.0000</ele>
        <time>2010-01-01T00:33:13Z</time>
      </trkpt>
      <trkpt lat="27.89380000" lon="86.92238000">
        <ele>5057.0000</ele>
        <time>2010-01-01T00:33:54Z</time>
      </trkpt>
      <trkpt lat="27.89399000" lon="86.92163000">
        <ele>5057.0000</ele>
        <time>2010-01-01T00:34:22Z</time>
      </trkpt>
      <trkpt lat="27.89407000" lon="86.92139000">
        <ele>5057.0000</ele>
        <time>2010-01-01T00:34:31Z</time>
      </trkpt>
      <trkpt lat="27.89408000" lon="86.92117000">
        <ele>5056.0000</ele>
        <time>2010-01-01T00:34:39Z</time>
      </trkpt>
      <trkpt lat="27.89433000" lon="86.92076000">
        <ele>5057.0000</ele>
        <time>2010-01-01T00:34:56Z</time>
      </trkpt>
      <trkpt lat="27.89442000" lon="86.92039000">
        <ele>5060.0000</ele>
        <time>2010-01-01T00:35:10Z</time>
      </trkpt>
      <trkpt lat="27.89438000" lon="86.92027000">
        <ele>5061.0000</ele>
        <time>2010-01-01T00:35:14Z</time>
      </trkpt>
      <trkpt lat="27.89439000" lon="86.91994000">
        <ele>5059.0000</ele>
        <time>2010-01-01T00:35:26Z</time>
      </trkpt>
      <trkpt lat="27.89444000" lon="86.91979000">
        <ele>5057.0000</ele>
        <time>2010-01-01T00:35:32Z</time>
      </trkpt>
      <trkpt lat="27.89451000" lon="86.91970000">
        <ele>5056.0000</ele>
        <time>2010-01-01T00:35:36Z</time>
      </trkpt>
      <trkpt lat="27.89452000" lon="86.91959000">
        <ele>5053.0000</ele>
        <time>2010-01-01T00:35:40Z</time>
      </trkpt>
      <trkpt lat="27.89468000" lon="86.91935000">
        <ele>5050.0000</ele>
        <time>2010-01-01T00:35:51Z</time>
      </trkpt>
      <trkpt lat="27.89480000" lon="86.91906000">
        <ele>5049.0000</ele>
        <time>2010-01-01T00:36:02Z</time>
      </trkpt>
      <trkpt lat="27.89488000" lon="86.91899000">
        <ele>5050.0000</ele>
        <time>2010-01-01T00:36:06Z</time>
      </trkpt>
      <trkpt lat="27.89492000" lon="86.91889000">
        <ele>5050.0000</ele>
        <time>2010-01-01T00:36:10Z</time>
      </trkpt>
      <trkpt lat="27.89490000" lon="86.91879000">
        <ele>5050.0000</ele>
        <time>2010-01-01T00:36:13Z</time>
      </trkpt>
      <trkpt lat="27.89498000" lon="86.91853000">
        <ele>5050.0000</ele>
        <time>2010-01-01T00:36:23Z</time>
      </trkpt>
      <trkpt lat="27.89520000" lon="86.91805000">
        <ele>5050.0000</ele>
        <time>2010-01-01T00:36:42Z</time>
      </trkpt>
      <trkpt lat="27.89517000" lon="86.91775000">
        <ele>5049.0000</ele>
        <time>2010-01-01T00:36:53Z</time>
      </trkpt>
      <trkpt lat="27.89540000" lon="86.91757000">
        <ele>5050.0000</ele>
        <time>2010-01-01T00:37:04Z</time>
      </trkpt>
      <trkpt lat="27.89546000" lon="86.91742000">
        <ele>5049.0000</ele>
        <time>2010-01-01T00:37:10Z</time>
      </trkpt>
      <trkpt lat="27.89582000" lon="86.91721000">
        <ele>5053.0000</ele>
        <time>2010-01-01T00:37:26Z</time>
      </trkpt>
      <trkpt lat="27.89613000" lon="86.91484000">
        <ele>5039.0000</ele>
        <time>2010-01-01T00:38:51Z</time>
      </trkpt>
      <trkpt lat="27.89637000" lon="86.91362000">
        <ele>5033.0000</ele>
        <time>2010-01-01T00:39:35Z</time>
      </trkpt>
      <trkpt lat="27.89671000" lon="86.91268000">
        <ele>5042.0000</ele>
        <time>2010-01-01T00:40:11Z</time>
      </trkpt>
      <trkpt lat="27.89677000" lon="86.91232000">
        <ele>5041.0000</ele>
        <time>2010-01-01T00:40:24Z</time>
      </trkpt>
      <trkpt lat="27.89692000" lon="86.91198000">
        <ele>5040.0000</ele>
        <time>2010-01-01T00:40:38Z</time>
      </trkpt>
      <trkpt lat="27.89713000" lon="86.91104000">
        <ele>5029.0000</ele>
        <time>2010-01-01T00:41:12Z</time>
      </trkpt>
      <trkpt lat="27.89722000" lon="86.91097000">
        <ele>5028.0000</ele>
        <time>2010-01-01T00:41:16Z</time>
      </trkpt>
      <trkpt lat="27.89729000" lon="86.91047000">
        <ele>5020.0000</ele>
        <time>2010-01-01T00:41:34Z</time>
      </trkpt>
      <trkpt lat="27.89719000" lon="86.91028000">
        <ele>5015.0000</ele>
        <time>2010-01-01T00:41:42Z</time>
      </trkpt>
      <trkpt lat="27.89725000" lon="86.91011000">
        <ele>5014.0000</ele>
        <time>2010-01-01T00:41:48Z</time>
      </trkpt>
      <trkpt lat="27.89727000" lon="86.90978000">
        <ele>5010.0000</ele>
        <time>2010-01-01T00:42:00Z</time>
      </trkpt>
      <trkpt lat="27.89721000" lon="86.90958000">
        <ele>5006.0000</ele>
        <time>2010-01-01T00:42:08Z</time>
      </trkpt>
      <trkpt lat="27.89721000" lon="86.90957000">
        <ele>5006.0000</ele>
        <time>2010-01-01T00:42:08Z</time>
      </trkpt>
      <trkpt lat="27.89710000" lon="86.90924000">
        <ele>5000.0000</ele>
        <time>2010-01-01T00:42:20Z</time>
      </trkpt>
      <trkpt lat="27.89722000" lon="86.90898000">
        <ele>4996.0000</ele>
        <time>2010-01-01T00:42:31Z</time>
      </trkpt>
      <trkpt lat="27.89748000" lon="86.90867000">
        <ele>4995.0000</ele>
        <time>2010-01-01T00:42:46Z</time>
      </trkpt>
      <trkpt lat="27.89766000" lon="86.90808000">
        <ele>4989.0000</ele>
        <time>2010-01-01T00:43:08Z</time>
      </trkpt>
      <trkpt lat="27.89770000" lon="86.90752000">
        <ele>4986.0000</ele>
        <time>2010-01-01T00:43:28Z</time>
      </trkpt>
      <trkpt lat="27.89782000" lon="86.90709000">
        <ele>4984.0000</ele>
        <time>2010-01-01T00:43:44Z</time>
      </trkpt>
      <trkpt lat="27.89785000" lon="86.90663000">
        <ele>4981.0000</ele>
        <time>2010-01-01T00:44:00Z</time>
      </trkpt>
      <trkpt lat="27.89794000" lon="86.90650000">
        <ele>4981.0000</ele>
        <time>2010-01-01T00:44:06Z</time>
      </trkpt>
      <trkpt lat="27.89808000" lon="86.90604000">
        <ele>4977.0000</ele>
        <time>2010-01-01T00:44:23Z</time>
      </trkpt>
      <trkpt lat="27.89811000" lon="86.90574000">
        <ele>4971.0000</ele>
        <time>2010-01-01T00:44:34Z</time>
      </trkpt>
      <trkpt lat="27.89842000" lon="86.90556000">
        <ele>4971.0000</ele>
        <time>2010-01-01T00:44:48Z</time>
      </trkpt>
      <trkpt lat="27.89895000" lon="86.90481000">
        <ele>4967.0000</ele>
        <time>2010-01-01T00:45:22Z</time>
      </trkpt>
      <trkpt lat="27.89923000" lon="86.90396000">
        <ele>4963.0000</ele>
        <time>2010-01-01T00:45:54Z</time>
      </trkpt>
      <trkpt lat="27.89940000" lon="86.90339000">
        <ele>4964.0000</ele>
        <time>2010-01-01T00:46:15Z</time>
      </trkpt>
      <trkpt lat="27.89953000" lon="86.90318000">
        <ele>4967.0000</ele>
        <time>2010-01-01T00:46:24Z</time>
      </trkpt>
      <trkpt lat="27.89951000" lon="86.90290000">
        <ele>4963.0000</ele>
        <time>2010-01-01T00:46:34Z</time>
      </trkpt>
      <trkpt lat="27.89974000" lon="86.90245000">
        <ele>4965.0000</ele>
        <time>2010-01-01T00:46:53Z</time>
      </trkpt>
      <trkpt lat="27.89983000" lon="86.90148000">
        <ele>4954.0000</ele>
        <time>2010-01-01T00:47:27Z</time>
      </trkpt>
      <trkpt lat="27.90035000" lon="86.89984000">
        <ele>4931.0000</ele>
        <time>2010-01-01T00:48:29Z</time>
      </trkpt>
      <trkpt lat="27.90034000" lon="86.89891000">
        <ele>4922.0000</ele>
        <time>2010-01-01T00:49:02Z</time>
      </trkpt>
      <trkpt lat="27.90067000" lon="86.89805000">
        <ele>4917.0000</ele>
        <time>2010-01-01T00:49:35Z</time>
      </trkpt>
      <trkpt lat="27.90070000" lon="86.89675000">
        <ele>4914.0000</ele>
        <time>2010-01-01T00:50:21Z</time>
      </trkpt>
      <trkpt lat="27.90036000" lon="86.89551000">
        <ele>4909.0000</ele>
        <time>2010-01-01T00:51:07Z</time>
      </trkpt>
      <trkpt lat="27.90036000" lon="86.89384000">
        <ele>4907.0000</ele>
        <time>2010-01-01T00:52:06Z</time>
      </trkpt>
      <trkpt lat="27.90056000" lon="86.89212000">
        <ele>4908.0000</ele>
        <time>2010-01-01T00:53:07Z</time>
      </trkpt>
      <trkpt lat="27.90091000" lon="86.89069000">
        <ele>4920.0000</ele>
        <time>2010-01-01T00:54:00Z</time>
      </trkpt>
      <trkpt lat="27.90113000" lon="86.89037000">
        <ele>4925.0000</ele>
        <time>2010-01-01T00:54:14Z</time>
      </trkpt>
      <trkpt lat="27.90097000" lon="86.88973000">
        <ele>4932.0000</ele>
        <time>2010-01-01T00:54:38Z</time>
      </trkpt>
      <trkpt lat="27.90066000" lon="86.88824000">
        <ele>4914.0000</ele>
        <time>2010-01-01T00:55:32Z</time>
      </trkpt>
      <trkpt lat="27.90084000" lon="86.88666000">
        <ele>4919.0000</ele>
        <time>2010-01-01T00:56:28Z</time>
      </trkpt>
      <trkpt lat="27.90069000" lon="86.88567000">
        <ele>4911.0000</ele>
        <time>2010-01-01T00:57:04Z</time>
      </trkpt>
      <trkpt lat="27.90058000" lon="86.88544000">
        <ele>4909.0000</ele>
        <time>2010-01-01T00:57:13Z</time>
      </trkpt>
      <trkpt lat="27.90059000" lon="86.88523000">
        <ele>4909.0000</ele>
        <time>2010-01-01T00:57:20Z</time>
      </trkpt>
      <trkpt lat="27.90056000" lon="86.88502000">
        <ele>4907.0000</ele>
        <time>2010-01-01T00:57:28Z</time>
      </trkpt>
      <trkpt lat="27.90046000" lon="86.88479000">
        <ele>4903.0000</ele>
        <time>2010-01-01T00:57:37Z</time>
      </trkpt>
      <trkpt lat="27.90041000" lon="86.88420000">
        <ele>4899.0000</ele>
        <time>2010-01-01T00:57:58Z</time>
      </trkpt>
      <trkpt lat="27.90034000" lon="86.88385000">
        <ele>4894.0000</ele>
        <time>2010-01-01T00:58:11Z</time>
      </trkpt>
      <trkpt lat="27.90018000" lon="86.88326000">
        <ele>4887.0000</ele>
        <time>2010-01-01T00:58:32Z</time>
      </trkpt>
      <trkpt lat="27.90022000" lon="86.88311000">
        <ele>4887.0000</ele>
        <time>2010-01-01T00:58:38Z</time>
      </trkpt>
      <trkpt lat="27.90021000" lon="86.88296000">
        <ele>4884.0000</ele>
        <time>2010-01-01T00:58:43Z</time>
      </trkpt>
      <trkpt lat="27.90016000" lon="86.88273000">
        <ele>4878.0000</ele>
        <time>2010-01-01T00:58:52Z</time>
      </trkpt>
      <trkpt lat="27.90013000" lon="86.88229000">
        <ele>4873.0000</ele>
        <time>2010-01-01T00:59:07Z</time>
      </trkpt>
      <trkpt lat="27.90002000" lon="86.88189000">
        <ele>4870.0000</ele>
        <time>2010-01-01T00:59:22Z</time>
      </trkpt>
      <trkpt lat="27.89998000" lon="86.88167000">
        <ele>4868.0000</ele>
        <time>2010-01-01T00:59:30Z</time>
      </trkpt>
      <trkpt lat="27.89997000" lon="86.88130000">
        <ele>4867.0000</ele>
        <time>2010-01-01T00:59:43Z</time>
      </trkpt>
      <trkpt lat="27.89999000" lon="86.88117000">
        <ele>4867.0000</ele>
        <time>2010-01-01T00:59:48Z</time>
      </trkpt>
      <trkpt lat="27.90003000" lon="86.88109000">
        <ele>4867.0000</ele>
        <time>2010-01-01T00:59:51Z</time>
      </trkpt>
      <trkpt lat="27.90004000" lon="86.88079000">
        <ele>4864.0000</ele>
        <time>2010-01-01T01:00:02Z</time>
      </trkpt>
      <trkpt lat="27.89998000" lon="86.88016000">
        <ele>4862.0000</ele>
        <time>2010-01-01T01:00:24Z</time>
      </trkpt>
      <trkpt lat="27.90000000" lon="86.87976000">
        <ele>4861.0000</ele>
        <time>2010-01-01T01:00:38Z</time>
      </trkpt>
      <trkpt lat="27.90011000" lon="86.87861000">
        <ele>4845.0000</ele>
        <time>2010-01-01T01:01:19Z</time>
      </trkpt>
      <trkpt lat="27.90017000" lon="86.87823000">
        <ele>4842.0000</ele>
        <time>2010-01-01T01:01:33Z</time>
      </trkpt>
      <trkpt lat="27.90047000" lon="86.87712000">
        <ele>4831.0000</ele>
        <time>2010-01-01T01:02:14Z</time>
      </trkpt>
      <trkpt lat="27.90065000" lon="86.87678000">
        <ele>4830.0000</ele>
        <time>2010-01-01T01:02:28Z</time>
      </trkpt>
      <trkpt lat="27.90081000" lon="86.87623000">
        <ele>4822.0000</ele>
        <time>2010-01-01T01:02:48Z</time>
      </trkpt>
      <trkpt lat="27.90097000" lon="86.87559000">
        <ele>4813.0000</ele>
        <time>2010-01-01T01:03:12Z</time>
      </trkpt>
      <trkpt lat="27.90112000" lon="86.87512000">
        <ele>4801.0000</ele>
        <time>2010-01-01T01:03:30Z</time>
      </trkpt>
      <trkpt lat="27.90129000" lon="86.87472000">
        <ele>4793.0000</ele>
        <time>2010-01-01T01:03:45Z</time>
      </trkpt>
      <trkpt lat="27.90146000" lon="86.87451000">
        <ele>4789.0000</ele>
        <time>2010-01-01T01:03:55Z</time>
      </trkpt>
      <trkpt lat="27.90161000" lon="86.87421000">
        <ele>4783.0000</ele>
        <time>2010-01-01T01:04:08Z</time>
      </trkpt>
      <trkpt lat="27.90177000" lon="86.87381000">
        <ele>4776.0000</ele>
        <time>2010-01-01T01:04:23Z</time>
      </trkpt>
      <trkpt lat="27.90191000" lon="86.87362000">
        <ele>4771.0000</ele>
        <time>2010-01-01T01:04:32Z</time>
      </trkpt>
      <trkpt lat="27.90247000" lon="86.87340000">
        <ele>4765.0000</ele>
        <time>2010-01-01T01:04:56Z</time>
      </trkpt>
      <trkpt lat="27.90255000" lon="86.87330000">
        <ele>4763.0000</ele>
        <time>2010-01-01T01:05:00Z</time>
      </trkpt>
      <trkpt lat="27.90264000" lon="86.87314000">
        <ele>4759.0000</ele>
        <time>2010-01-01T01:05:07Z</time>
      </trkpt>
      <trkpt lat="27.90274000" lon="86.87299000">
        <ele>4755.0000</ele>
        <time>2010-01-01T01:05:14Z</time>
      </trkpt>
      <trkpt lat="27.90294000" lon="86.87289000">
        <ele>4750.0000</ele>
        <time>2010-01-01T01:05:22Z</time>
      </trkpt>
      <trkpt lat="27.90310000" lon="86.87274000">
        <ele>4745.0000</ele>
        <time>2010-01-01T01:05:31Z</time>
      </trkpt>
      <trkpt lat="27.90328000" lon="86.87267000">
        <ele>4742.0000</ele>
        <time>2010-01-01T01:05:38Z</time>
      </trkpt>
      <trkpt lat="27.90345000" lon="86.87266000">
        <ele>4740.0000</ele>
        <time>2010-01-01T01:05:45Z</time>
      </trkpt>
      <trkpt lat="27.90358000" lon="86.87263000">
        <ele>4739.0000</ele>
        <time>2010-01-01T01:05:50Z</time>
      </trkpt>
      <trkpt lat="27.90371000" lon="86.87257000">
        <ele>4738.0000</ele>
        <time>2010-01-01T01:05:56Z</time>
      </trkpt>
      <trkpt lat="27.90392000" lon="86.87238000">
        <ele>4736.0000</ele>
        <time>2010-01-01T01:06:07Z</time>
      </trkpt>
      <trkpt lat="27.90404000" lon="86.87223000">
        <ele>4735.0000</ele>
        <time>2010-01-01T01:06:14Z</time>
      </trkpt>
      <trkpt lat="27.90406000" lon="86.87208000">
        <ele>4733.0000</ele>
        <time>2010-01-01T01:06:19Z</time>
      </trkpt>
      <trkpt lat="27.90411000" lon="86.87199000">
        <ele>4733.0000</ele>
        <time>2010-01-01T01:06:23Z</time>
      </trkpt>
      <trkpt lat="27.90449000" lon="86.87177000">
        <ele>4733.0000</ele>
        <time>2010-01-01T01:06:40Z</time>
      </trkpt>
      <trkpt lat="27.90447000" lon="86.87162000">
        <ele>4733.0000</ele>
        <time>2010-01-01T01:06:46Z</time>
      </trkpt>
      <trkpt lat="27.90450000" lon="86.87153000">
        <ele>4733.0000</ele>
        <time>2010-01-01T01:06:49Z</time>
      </trkpt>
      <trkpt lat="27.90469000" lon="86.87149000">
        <ele>4735.0000</ele>
        <time>2010-01-01T01:06:57Z</time>
      </trkpt>
      <trkpt lat="27.90484000" lon="86.87148000">
        <ele>4735.0000</ele>
        <time>2010-01-01T01:07:03Z</time>
      </trkpt>
      <trkpt lat="27.90489000" lon="86.87136000">
        <ele>4734.0000</ele>
        <time>2010-01-01T01:07:07Z</time>
      </trkpt>
      <trkpt lat="27.90496000" lon="86.87128000">
        <ele>4733.0000</ele>
        <time>2010-01-01T01:07:11Z</time>
      </trkpt>
      <trkpt lat="27.90506000" lon="86.87118000">
        <ele>4732.0000</ele>
        <time>2010-01-01T01:07:17Z</time>
      </trkpt>
      <trkpt lat="27.90515000" lon="86.87113000">
        <ele>4732.0000</ele>
        <time>2010-01-01T01:07:21Z</time>
      </trkpt>
      <trkpt lat="27.90482000" lon="86.87061000">
        <ele>4728.0000</ele>
        <time>2010-01-01T01:07:43Z</time>
      </trkpt>
      <trkpt lat="27.90474000" lon="86.87058000">
        <ele>4728.0000</ele>
        <time>2010-01-01T01:07:47Z</time>
      </trkpt>
      <trkpt lat="27.90461000" lon="86.87065000">
        <ele>4728.0000</ele>
        <time>2010-01-01T01:07:53Z</time>
      </trkpt>
      <trkpt lat="27.90451976" lon="86.87112808">
        <ele>4732.0000</ele>
        <time>2010-01-01T00:00:00Z</time>
      </trkpt>
      <trkpt lat="27.90440000" lon="86.87131000">
        <ele>4732.0000</ele>
        <time>2010-01-01T00:00:08Z</time>
      </trkpt>
      <trkpt lat="27.90412000" lon="86.87115000">
        <ele>4728.0000</ele>
        <time>2010-01-01T00:00:20Z</time>
      </trkpt>
      <trkpt lat="27.90410000" lon="86.87100000">
        <ele>4727.0000</ele>
        <time>2010-01-01T00:00:25Z</time>
      </trkpt>
      <trkpt lat="27.90416000" lon="86.87048000">
        <ele>4721.0000</ele>
        <time>2010-01-01T00:00:44Z</time>
      </trkpt>
      <trkpt lat="27.90413000" lon="86.87041000">
        <ele>4720.0000</ele>
        <time>2010-01-01T00:00:47Z</time>
      </trkpt>
      <trkpt lat="27.90403000" lon="86.87037000">
        <ele>4718.0000</ele>
        <time>2010-01-01T00:00:51Z</time>
      </trkpt>
      <trkpt lat="27.90397000" lon="86.87021000">
        <ele>4715.0000</ele>
        <time>2010-01-01T00:00:57Z</time>
      </trkpt>
      <trkpt lat="27.90395000" lon="86.87005000">
        <ele>4713.0000</ele>
        <time>2010-01-01T00:01:03Z</time>
      </trkpt>
      <trkpt lat="27.90401000" lon="86.86993000">
        <ele>4712.0000</ele>
        <time>2010-01-01T00:01:08Z</time>
      </trkpt>
      <trkpt lat="27.90374000" lon="86.86962000">
        <ele>4706.0000</ele>
        <time>2010-01-01T00:01:23Z</time>
      </trkpt>
      <trkpt lat="27.90364000" lon="86.86934000">
        <ele>4704.0000</ele>
        <time>2010-01-01T00:01:34Z</time>
      </trkpt>
      <trkpt lat="27.90342000" lon="86.86896000">
        <ele>4701.0000</ele>
        <time>2010-01-01T00:01:50Z</time>
      </trkpt>
      <trkpt lat="27.90323000" lon="86.86814000">
        <ele>4694.0000</ele>
        <time>2010-01-01T00:02:20Z</time>
      </trkpt>
      <trkpt lat="27.90289000" lon="86.86786000">
        <ele>4689.0000</ele>
        <time>2010-01-01T00:02:37Z</time>
      </trkpt>
      <trkpt lat="27.90287000" lon="86.86756000">
        <ele>4688.0000</ele>
        <time>2010-01-01T00:02:47Z</time>
      </trkpt>
      <trkpt lat="27.90272000" lon="86.86722000">
        <ele>4684.0000</ele>
        <time>2010-01-01T00:03:01Z</time>
      </trkpt>
      <trkpt lat="27.90260000" lon="86.86715000">
        <ele>4682.0000</ele>
        <time>2010-01-01T00:03:06Z</time>
      </trkpt>
      <trkpt lat="27.90225000" lon="86.86653000">
        <ele>4674.0000</ele>
        <time>2010-01-01T00:03:32Z</time>
      </trkpt>
      <trkpt lat="27.90222000" lon="86.86629000">
        <ele>4672.0000</ele>
        <time>2010-01-01T00:03:41Z</time>
      </trkpt>
      <trkpt lat="27.90209000" lon="86.86616000">
        <ele>4669.0000</ele>
        <time>2010-01-01T00:03:48Z</time>
      </trkpt>
      <trkpt lat="27.90206000" lon="86.86593000">
        <ele>4667.0000</ele>
        <time>2010-01-01T00:03:56Z</time>
      </trkpt>
      <trkpt lat="27.90195000" lon="86.86566000">
        <ele>4665.0000</ele>
        <time>2010-01-01T00:04:06Z</time>
      </trkpt>
      <trkpt lat="27.90192000" lon="86.86547000">
        <ele>4663.0000</ele>
        <time>2010-01-01T00:04:13Z</time>
      </trkpt>
      <trkpt lat="27.90194000" lon="86.86531000">
        <ele>4662.0000</ele>
        <time>2010-01-01T00:04:19Z</time>
      </trkpt>
      <trkpt lat="27.90189000" lon="86.86514000">
        <ele>4659.0000</ele>
        <time>2010-01-01T00:04:25Z</time>
      </trkpt>
      <trkpt lat="27.90172000" lon="86.86494000">
        <ele>4654.0000</ele>
        <time>2010-01-01T00:04:35Z</time>
      </trkpt>
      <trkpt lat="27.90172000" lon="86.86475000">
        <ele>4654.0000</ele>
        <time>2010-01-01T00:04:42Z</time>
      </trkpt>
      <trkpt lat="27.90177000" lon="86.86441000">
        <ele>4652.0000</ele>
        <time>2010-01-01T00:04:54Z</time>
      </trkpt>
      <trkpt lat="27.90163000" lon="86.86374000">
        <ele>4646.0000</ele>
        <time>2010-01-01T00:05:18Z</time>
      </trkpt>
      <trkpt lat="27.90125000" lon="86.86305000">
        <ele>4635.0000</ele>
        <time>2010-01-01T00:05:47Z</time>
      </trkpt>
      <trkpt lat="27.90106000" lon="86.86241000">
        <ele>4630.0000</ele>
        <time>2010-01-01T00:06:11Z</time>
      </trkpt>
      <trkpt lat="27.90109000" lon="86.86222000">
        <ele>4631.0000</ele>
        <time>2010-01-01T00:06:18Z</time>
      </trkpt>
      <trkpt lat="27.90101000" lon="86.86185000">
        <ele>4628.0000</ele>
        <time>2010-01-01T00:06:31Z</time>
      </trkpt>
      <trkpt lat="27.90090000" lon="86.86150000">
        <ele>4628.0000</ele>
        <time>2010-01-01T00:06:45Z</time>
      </trkpt>
      <trkpt lat="27.90071000" lon="86.86115000">
        <ele>4622.0000</ele>
        <time>2010-01-01T00:06:59Z</time>
      </trkpt>
      <trkpt lat="27.90056000" lon="86.86080000">
        <ele>4614.0000</ele>
        <time>2010-01-01T00:07:13Z</time>
      </trkpt>
      <trkpt lat="27.90048000" lon="86.86017000">
        <ele>4600.0000</ele>
        <time>2010-01-01T00:07:35Z</time>
      </trkpt>
      <trkpt lat="27.90063000" lon="86.85980000">
        <ele>4597.0000</ele>
        <time>2010-01-01T00:07:50Z</time>
      </trkpt>
      <trkpt lat="27.90059000" lon="86.85942000">
        <ele>4591.0000</ele>
        <time>2010-01-01T00:08:03Z</time>
      </trkpt>
      <trkpt lat="27.90084000" lon="86.85899000">
        <ele>4585.0000</ele>
        <time>2010-01-01T00:08:22Z</time>
      </trkpt>
      <trkpt lat="27.90079000" lon="86.85858000">
        <ele>4579.0000</ele>
        <time>2010-01-01T00:08:36Z</time>
      </trkpt>
      <trkpt lat="27.90055000" lon="86.85792000">
        <ele>4575.0000</ele>
        <time>2010-01-01T00:09:01Z</time>
      </trkpt>
      <trkpt lat="27.90029000" lon="86.85747000">
        <ele>4566.0000</ele>
        <time>2010-01-01T00:09:20Z</time>
      </trkpt>
      <trkpt lat="27.90026000" lon="86.85685000">
        <ele>4560.0000</ele>
        <time>2010-01-01T00:09:42Z</time>
      </trkpt>
      <trkpt lat="27.90040000" lon="86.85647000">
        <ele>4557.0000</ele>
        <time>2010-01-01T00:09:57Z</time>
      </trkpt>
      <trkpt lat="27.90037000" lon="86.85606000">
        <ele>4547.0000</ele>
        <time>2010-01-01T00:10:12Z</time>
      </trkpt>
      <trkpt lat="27.90027000" lon="86.85585000">
        <ele>4542.0000</ele>
        <time>2010-01-01T00:10:20Z</time>
      </trkpt>
      <trkpt lat="27.90007000" lon="86.85419000">
        <ele>4528.0000</ele>
        <time>2010-01-01T00:11:19Z</time>
      </trkpt>
      <trkpt lat="27.89985000" lon="86.85390000">
        <ele>4523.0000</ele>
        <time>2010-01-01T00:11:33Z</time>
      </trkpt>
      <trkpt lat="27.89912000" lon="86.85238000">
        <ele>4502.0000</ele>
        <time>2010-01-01T00:12:34Z</time>
      </trkpt>
      <trkpt lat="27.89893000" lon="86.85229000">
        <ele>4499.0000</ele>
        <time>2010-01-01T00:12:42Z</time>
      </trkpt>
      <trkpt lat="27.89861000" lon="86.85169000">
        <ele>4491.0000</ele>
        <time>2010-01-01T00:13:07Z</time>
      </trkpt>
      <trkpt lat="27.89839000" lon="86.85147000">
        <ele>4486.0000</ele>
        <time>2010-01-01T00:13:19Z</time>
      </trkpt>
      <trkpt lat="27.89829000" lon="86.85127000">
        <ele>4483.0000</ele>
        <time>2010-01-01T00:13:27Z</time>
      </trkpt>
      <trkpt lat="27.89835000" lon="86.85083000">
        <ele>4481.0000</ele>
        <time>2010-01-01T00:13:43Z</time>
      </trkpt>
      <trkpt lat="27.89820000" lon="86.85033000">
        <ele>4477.0000</ele>
        <time>2010-01-01T00:14:01Z</time>
      </trkpt>
      <trkpt lat="27.89818000" lon="86.85007000">
        <ele>4475.0000</ele>
        <time>2010-01-01T00:14:11Z</time>
      </trkpt>
      <trkpt lat="27.89811000" lon="86.84981000">
        <ele>4473.0000</ele>
        <time>2010-01-01T00:14:20Z</time>
      </trkpt>
      <trkpt lat="27.89785000" lon="86.84958000">
        <ele>4469.0000</ele>
        <time>2010-01-01T00:14:33Z</time>
      </trkpt>
      <trkpt lat="27.89775000" lon="86.84909000">
        <ele>4467.0000</ele>
        <time>2010-01-01T00:14:51Z</time>
      </trkpt>
      <trkpt lat="27.89758000" lon="86.84861000">
        <ele>4459.0000</ele>
        <time>2010-01-01T00:15:09Z</time>
      </trkpt>
      <trkpt lat="27.89747000" lon="86.84776000">
        <ele>4452.0000</ele>
        <time>2010-01-01T00:15:40Z</time>
      </trkpt>
      <trkpt lat="27.89704000" lon="86.84614000">
        <ele>4434.0000</ele>
        <time>2010-01-01T00:16:40Z</time>
      </trkpt>
      <trkpt lat="27.89697000" lon="86.84574000">
        <ele>4430.0000</ele>
        <time>2010-01-01T00:16:54Z</time>
      </trkpt>
      <trkpt lat="27.89687000" lon="86.84497000">
        <ele>4421.0000</ele>
        <time>2010-01-01T00:17:22Z</time>
      </trkpt>
      <trkpt lat="27.89687000" lon="86.84448000">
        <ele>4417.0000</ele>
        <time>2010-01-01T00:17:39Z</time>
      </trkpt>
      <trkpt lat="27.89707000" lon="86.84375000">
        <ele>4411.0000</ele>
        <time>2010-01-01T00:18:06Z</time>
      </trkpt>
      <trkpt lat="27.89708000" lon="86.84269000">
        <ele>4402.0000</ele>
        <time>2010-01-01T00:18:44Z</time>
      </trkpt>
      <trkpt lat="27.89719000" lon="86.84232000">
        <ele>4398.0000</ele>
        <time>2010-01-01T00:18:57Z</time>
      </trkpt>
      <trkpt lat="27.89722000" lon="86.84192000">
        <ele>4394.0000</ele>
        <time>2010-01-01T00:19:12Z</time>
      </trkpt>
      <trkpt lat="27.89718000" lon="86.84157000">
        <ele>4390.0000</ele>
        <time>2010-01-01T00:19:24Z</time>
      </trkpt>
      <trkpt lat="27.89706000" lon="86.84103000">
        <ele>4385.0000</ele>
        <time>2010-01-01T00:19:44Z</time>
      </trkpt>
      <trkpt lat="27.89709000" lon="86.84071000">
        <ele>4386.0000</ele>
        <time>2010-01-01T00:19:55Z</time>
      </trkpt>
      <trkpt lat="27.89704000" lon="86.84023000">
        <ele>4383.0000</ele>
        <time>2010-01-01T00:20:12Z</time>
      </trkpt>
      <trkpt lat="27.89670000" lon="86.83938000">
        <ele>4369.0000</ele>
        <time>2010-01-01T00:20:45Z</time>
      </trkpt>
      <trkpt lat="27.89666000" lon="86.83883000">
        <ele>4368.0000</ele>
        <time>2010-01-01T00:21:05Z</time>
      </trkpt>
      <trkpt lat="27.89677000" lon="86.83860000">
        <ele>4373.0000</ele>
        <time>2010-01-01T00:21:14Z</time>
      </trkpt>
      <trkpt lat="27.89670000" lon="86.83821000">
        <ele>4374.0000</ele>
        <time>2010-01-01T00:21:28Z</time>
      </trkpt>
      <trkpt lat="27.89677000" lon="86.83798000">
        <ele>4382.0000</ele>
        <time>2010-01-01T00:21:37Z</time>
      </trkpt>
      <trkpt lat="27.89675000" lon="86.83763000">
        <ele>4384.0000</ele>
        <time>2010-01-01T00:21:49Z</time>
      </trkpt>
      <trkpt lat="27.89650000" lon="86.83717000">
        <ele>4375.0000</ele>
        <time>2010-01-01T00:22:08Z</time>
      </trkpt>
      <trkpt lat="27.89636000" lon="86.83680000">
        <ele>4374.0000</ele>
        <time>2010-01-01T00:22:22Z</time>
      </trkpt>
      <trkpt lat="27.89637000" lon="86.83620000">
        <ele>4378.0000</ele>
        <time>2010-01-01T00:22:44Z</time>
      </trkpt>
      <trkpt lat="27.89618000" lon="86.83587000">
        <ele>4373.0000</ele>
        <time>2010-01-01T00:22:58Z</time>
      </trkpt>
      <trkpt lat="27.89592000" lon="86.83510000">
        <ele>4367.0000</ele>
        <time>2010-01-01T00:23:27Z</time>
      </trkpt>
      <trkpt lat="27.89573000" lon="86.83427000">
        <ele>4362.0000</ele>
        <time>2010-01-01T00:23:57Z</time>
      </trkpt>
      <trkpt lat="27.89560000" lon="86.83412000">
        <ele>4360.0000</ele>
        <time>2010-01-01T00:24:04Z</time>
      </trkpt>
      <trkpt lat="27.89524000" lon="86.83327000">
        <ele>4358.0000</ele>
        <time>2010-01-01T00:24:38Z</time>
      </trkpt>
      <trkpt lat="27.89451000" lon="86.83247000">
        <ele>4349.0000</ele>
        <time>2010-01-01T00:25:19Z</time>
      </trkpt>
      <trkpt lat="27.89419000" lon="86.83184000">
        <ele>4346.0000</ele>
        <time>2010-01-01T00:25:44Z</time>
      </trkpt>
      <trkpt lat="27.89417000" lon="86.83166000">
        <ele>4347.0000</ele>
        <time>2010-01-01T00:25:51Z</time>
      </trkpt>
      <trkpt lat="27.89406000" lon="86.83147000">
        <ele>4346.0000</ele>
        <time>2010-01-01T00:25:59Z</time>
      </trkpt>
      <trkpt lat="27.89392000" lon="86.83110000">
        <ele>4347.0000</ele>
        <time>2010-01-01T00:26:13Z</time>
      </trkpt>
      <trkpt lat="27.89389000" lon="86.83076000">
        <ele>4348.0000</ele>
        <time>2010-01-01T00:26:25Z</time>
      </trkpt>
      <trkpt lat="27.89368000" lon="86.83012000">
        <ele>4351.0000</ele>
        <time>2010-01-01T00:26:49Z</time>
      </trkpt>
      <trkpt lat="27.89359000" lon="86.83003000">
        <ele>4350.0000</ele>
        <time>2010-01-01T00:26:54Z</time>
      </trkpt>
      <trkpt lat="27.89343000" lon="86.82980000">
        <ele>4348.0000</ele>
        <time>2010-01-01T00:27:04Z</time>
      </trkpt>
      <trkpt lat="27.89314150" lon="86.82889938">
        <ele>4350.0000</ele>
        <time>2010-01-01T00:00:00Z</time>
      </trkpt>
      <trkpt lat="27.89295000" lon="86.82909000">
        <ele>4337.0000</ele>
        <time>2010-01-01T00:00:20Z</time>
      </trkpt>
      <trkpt lat="27.89249000" lon="86.82854000">
        <ele>4332.0000</ele>
        <time>2010-01-01T00:01:14Z</time>
      </trkpt>
      <trkpt lat="27.89246000" lon="86.82844000">
        <ele>4333.0000</ele>
        <time>2010-01-01T00:01:21Z</time>
      </trkpt>
      <trkpt lat="27.89248000" lon="86.82831000">
        <ele>4337.0000</ele>
        <time>2010-01-01T00:01:30Z</time>
      </trkpt>
      <trkpt lat="27.89252000" lon="86.82815000">
        <ele>4343.0000</ele>
        <time>2010-01-01T00:01:42Z</time>
      </trkpt>
      <trkpt lat="27.89252000" lon="86.82801000">
        <ele>4347.0000</ele>
        <time>2010-01-01T00:01:52Z</time>
      </trkpt>
      <trkpt lat="27.89253000" lon="86.82792000">
        <ele>4350.0000</ele>
        <time>2010-01-01T00:01:58Z</time>
      </trkpt>
      <trkpt lat="27.89266000" lon="86.82776000">
        <ele>4362.0000</ele>
        <time>2010-01-01T00:02:14Z</time>
      </trkpt>
      <trkpt lat="27.89275000" lon="86.82755000">
        <ele>4373.0000</ele>
        <time>2010-01-01T00:02:30Z</time>
      </trkpt>
      <trkpt lat="27.89282000" lon="86.82716000">
        <ele>4385.0000</ele>
        <time>2010-01-01T00:02:58Z</time>
      </trkpt>
      <trkpt lat="27.89288000" lon="86.82687000">
        <ele>4392.0000</ele>
        <time>2010-01-01T00:03:20Z</time>
      </trkpt>
      <trkpt lat="27.89292000" lon="86.82677000">
        <ele>4394.0000</ele>
        <time>2010-01-01T00:03:27Z</time>
      </trkpt>
      <trkpt lat="27.89302000" lon="86.82668000">
        <ele>4396.0000</ele>
        <time>2010-01-01T00:03:38Z</time>
      </trkpt>
      <trkpt lat="27.89313000" lon="86.82670000">
        <ele>4397.0000</ele>
        <time>2010-01-01T00:03:46Z</time>
      </trkpt>
      <trkpt lat="27.89361000" lon="86.82692000">
        <ele>4406.0000</ele>
        <time>2010-01-01T00:04:28Z</time>
      </trkpt>
      <trkpt lat="27.89370000" lon="86.82689000">
        <ele>4407.0000</ele>
        <time>2010-01-01T00:04:35Z</time>
      </trkpt>
      <trkpt lat="27.89382000" lon="86.82680000">
        <ele>4408.0000</ele>
        <time>2010-01-01T00:04:47Z</time>
      </trkpt>
      <trkpt lat="27.89398000" lon="86.82662000">
        <ele>4409.0000</ele>
        <time>2010-01-01T00:05:05Z</time>
      </trkpt>
      <trkpt lat="27.89599000" lon="86.82498000">
        <ele>4421.0000</ele>
        <time>2010-01-01T00:08:23Z</time>
      </trkpt>
      <trkpt lat="27.89659000" lon="86.82470000">
        <ele>4424.0000</ele>
        <time>2010-01-01T00:09:15Z</time>
      </trkpt>
      <trkpt lat="27.89675000" lon="86.82452000">
        <ele>4421.0000</ele>
        <time>2010-01-01T00:09:33Z</time>
      </trkpt>
      <trkpt lat="27.89688000" lon="86.82433000">
        <ele>4422.0000</ele>
        <time>2010-01-01T00:09:50Z</time>
      </trkpt>
      <trkpt lat="27.89794000" lon="86.82358000">
        <ele>4433.0000</ele>
        <time>2010-01-01T00:11:31Z</time>
      </trkpt>
      <trkpt lat="27.89822000" lon="86.82346000">
        <ele>4438.0000</ele>
        <time>2010-01-01T00:11:54Z</time>
      </trkpt>
      <trkpt lat="27.89948000" lon="86.82249000">
        <ele>4441.0000</ele>
        <time>2010-01-01T00:13:57Z</time>
      </trkpt>
      <trkpt lat="27.89993000" lon="86.82239000">
        <ele>4454.0000</ele>
        <time>2010-01-01T00:14:33Z</time>
      </trkpt>
      <trkpt lat="27.90011000" lon="86.82210000">
        <ele>4445.0000</ele>
        <time>2010-01-01T00:14:58Z</time>
      </trkpt>
      <trkpt lat="27.90062000" lon="86.82172000">
        <ele>4443.0000</ele>
        <time>2010-01-01T00:15:47Z</time>
      </trkpt>
      <trkpt lat="27.90087000" lon="86.82143000">
        <ele>4443.0000</ele>
        <time>2010-01-01T00:16:16Z</time>
      </trkpt>
      <trkpt lat="27.90254000" lon="86.82031000">
        <ele>4466.0000</ele>
        <time>2010-01-01T00:18:51Z</time>
      </trkpt>
      <trkpt lat="27.90287000" lon="86.82035000">
        <ele>4474.0000</ele>
        <time>2010-01-01T00:19:18Z</time>
      </trkpt>
      <trkpt lat="27.90314000" lon="86.82014000">
        <ele>4477.0000</ele>
        <time>2010-01-01T00:19:44Z</time>
      </trkpt>
      <trkpt lat="27.90325000" lon="86.81977000">
        <ele>4475.0000</ele>
        <time>2010-01-01T00:20:12Z</time>
      </trkpt>
      <trkpt lat="27.90348000" lon="86.81968000">
        <ele>4482.0000</ele>
        <time>2010-01-01T00:20:31Z</time>
      </trkpt>
      <trkpt lat="27.90372000" lon="86.81939000">
        <ele>4475.0000</ele>
        <time>2010-01-01T00:20:59Z</time>
      </trkpt>
      <trkpt lat="27.90399000" lon="86.81926000">
        <ele>4467.0000</ele>
        <time>2010-01-01T00:21:23Z</time>
      </trkpt>
      <trkpt lat="27.90415000" lon="86.81910000">
        <ele>4466.0000</ele>
        <time>2010-01-01T00:21:40Z</time>
      </trkpt>
      <trkpt lat="27.90449000" lon="86.81908000">
        <ele>4472.0000</ele>
        <time>2010-01-01T00:22:07Z</time>
      </trkpt>
      <trkpt lat="27.90471000" lon="86.81889000">
        <ele>4476.0000</ele>
        <time>2010-01-01T00:22:29Z</time>
      </trkpt>
      <trkpt lat="27.90492000" lon="86.81861000">
        <ele>4474.0000</ele>
        <time>2010-01-01T00:22:55Z</time>
      </trkpt>
      <trkpt lat="27.90534000" lon="86.81846000">
        <ele>4485.0000</ele>
        <time>2010-01-01T00:23:31Z</time>
      </trkpt>
      <trkpt lat="27.90562000" lon="86.81846000">
        <ele>4494.0000</ele>
        <time>2010-01-01T00:23:53Z</time>
      </trkpt>
      <trkpt lat="27.90591000" lon="86.81817000">
        <ele>4492.0000</ele>
        <time>2010-01-01T00:24:24Z</time>
      </trkpt>
      <trkpt lat="27.90644000" lon="86.81794000">
        <ele>4502.0000</ele>
        <time>2010-01-01T00:25:09Z</time>
      </trkpt>
      <trkpt lat="27.90667000" lon="86.81771000">
        <ele>4499.0000</ele>
        <time>2010-01-01T00:25:34Z</time>
      </trkpt>
      <trkpt lat="27.90693000" lon="86.81726000">
        <ele>4495.0000</ele>
        <time>2010-01-01T00:26:12Z</time>
      </trkpt>
      <trkpt lat="27.90762000" lon="86.81692000">
        <ele>4502.0000</ele>
        <time>2010-01-01T00:27:12Z</time>
      </trkpt>
      <trkpt lat="27.90808000" lon="86.81652000">
        <ele>4512.0000</ele>
        <time>2010-01-01T00:27:59Z</time>
      </trkpt>
      <trkpt lat="27.90862000" lon="86.81636000">
        <ele>4522.0000</ele>
        <time>2010-01-01T00:28:43Z</time>
      </trkpt>
      <trkpt lat="27.90970000" lon="86.81570000">
        <ele>4526.0000</ele>
        <time>2010-01-01T00:30:22Z</time>
      </trkpt>
      <trkpt lat="27.91228000" lon="86.81366000">
        <ele>4576.0000</ele>
        <time>2010-01-01T00:34:34Z</time>
      </trkpt>
      <trkpt lat="27.91405000" lon="86.81180000">
        <ele>4583.0000</ele>
        <time>2010-01-01T00:37:47Z</time>
      </trkpt>
      <trkpt lat="27.91542000" lon="86.81100000">
        <ele>4581.0000</ele>
        <time>2010-01-01T00:39:50Z</time>
      </trkpt>
      <trkpt lat="27.91566000" lon="86.81065000">
        <ele>4580.0000</ele>
        <time>2010-01-01T00:40:22Z</time>
      </trkpt>
      <trkpt lat="27.91625000" lon="86.81010000">
        <ele>4588.0000</ele>
        <time>2010-01-01T00:41:23Z</time>
      </trkpt>
      <trkpt lat="27.91660000" lon="86.80987000">
        <ele>4580.0000</ele>
        <time>2010-01-01T00:41:55Z</time>
      </trkpt>
      <trkpt lat="27.91762000" lon="86.80925000">
        <ele>4595.0000</ele>
        <time>2010-01-01T00:43:28Z</time>
      </trkpt>
      <trkpt lat="27.91800000" lon="86.80884000">
        <ele>4603.0000</ele>
        <time>2010-01-01T00:44:10Z</time>
      </trkpt>
      <trkpt lat="27.91838000" lon="86.80838000">
        <ele>4604.0000</ele>
        <time>2010-01-01T00:44:55Z</time>
      </trkpt>
      <trkpt lat="27.91876000" lon="86.80824000">
        <ele>4606.0000</ele>
        <time>2010-01-01T00:45:27Z</time>
      </trkpt>
      <trkpt lat="27.91997000" lon="86.80796000">
        <ele>4602.0000</ele>
        <time>2010-01-01T00:47:06Z</time>
      </trkpt>
      <trkpt lat="27.92051000" lon="86.80760000">
        <ele>4573.0000</ele>
        <time>2010-01-01T00:47:56Z</time>
      </trkpt>
      <trkpt lat="27.92118000" lon="86.80748000">
        <ele>4576.0000</ele>
        <time>2010-01-01T00:48:50Z</time>
      </trkpt>
      <trkpt lat="27.92128000" lon="86.80706000">
        <ele>4566.0000</ele>
        <time>2010-01-01T00:49:21Z</time>
      </trkpt>
      <trkpt lat="27.92178000" lon="86.80731000">
        <ele>4581.0000</ele>
        <time>2010-01-01T00:50:05Z</time>
      </trkpt>
      <trkpt lat="27.92248000" lon="86.80754000">
        <ele>4594.0000</ele>
        <time>2010-01-01T00:51:03Z</time>
      </trkpt>
      <trkpt lat="27.92304000" lon="86.80744000">
        <ele>4593.0000</ele>
        <time>2010-01-01T00:51:48Z</time>
      </trkpt>
      <trkpt lat="27.92326000" lon="86.80728000">
        <ele>4595.0000</ele>
        <time>2010-01-01T00:52:09Z</time>
      </trkpt>
      <trkpt lat="27.92365000" lon="86.80735000">
        <ele>4604.0000</ele>
        <time>2010-01-01T00:52:41Z</time>
      </trkpt>
      <trkpt lat="27.92393000" lon="86.80714000">
        <ele>4599.0000</ele>
        <time>2010-01-01T00:53:08Z</time>
      </trkpt>
      <trkpt lat="27.92397000" lon="86.80699000">
        <ele>4598.0000</ele>
        <time>2010-01-01T00:53:19Z</time>
      </trkpt>
      <trkpt lat="27.92429000" lon="86.80675000">
        <ele>4605.0000</ele>
        <time>2010-01-01T00:53:50Z</time>
      </trkpt>
      <trkpt lat="27.92427000" lon="86.80658000">
        <ele>4607.0000</ele>
        <time>2010-01-01T00:54:02Z</time>
      </trkpt>
      <trkpt lat="27.92403000" lon="86.80641000">
        <ele>4603.0000</ele>
        <time>2010-01-01T00:54:24Z</time>
      </trkpt>
      <trkpt lat="27.92384000" lon="86.80631000">
        <ele>4598.0000</ele>
        <time>2010-01-01T00:54:41Z</time>
      </trkpt>
      <trkpt lat="27.92394000" lon="86.80598000">
        <ele>4601.0000</ele>
        <time>2010-01-01T00:55:06Z</time>
      </trkpt>
      <trkpt lat="27.92371000" lon="86.80574000">
        <ele>4600.0000</ele>
        <time>2010-01-01T00:55:31Z</time>
      </trkpt>
      <trkpt lat="27.92365000" lon="86.80559000">
        <ele>4601.0000</ele>
        <time>2010-01-01T00:55:42Z</time>
      </trkpt>
      <trkpt lat="27.92390000" lon="86.80545000">
        <ele>4607.0000</ele>
        <time>2010-01-01T00:56:05Z</time>
      </trkpt>
      <trkpt lat="27.92425000" lon="86.80510000">
        <ele>4622.0000</ele>
        <time>2010-01-01T00:56:42Z</time>
      </trkpt>
      <trkpt lat="27.92443000" lon="86.80505000">
        <ele>4625.0000</ele>
        <time>2010-01-01T00:56:57Z</time>
      </trkpt>
      <trkpt lat="27.92464000" lon="86.80510000">
        <ele>4624.0000</ele>
        <time>2010-01-01T00:57:14Z</time>
      </trkpt>
      <trkpt lat="27.92492000" lon="86.80499000">
        <ele>4628.0000</ele>
        <time>2010-01-01T00:57:38Z</time>
      </trkpt>
      <trkpt lat="27.92522000" lon="86.80503000">
        <ele>4632.0000</ele>
        <time>2010-01-01T00:58:02Z</time>
      </trkpt>
      <trkpt lat="27.92540000" lon="86.80496000">
        <ele>4635.0000</ele>
        <time>2010-01-01T00:58:17Z</time>
      </trkpt>
      <trkpt lat="27.92566000" lon="86.80498000">
        <ele>4640.0000</ele>
        <time>2010-01-01T00:58:38Z</time>
      </trkpt>
      <trkpt lat="27.92604000" lon="86.80483000">
        <ele>4650.0000</ele>
        <time>2010-01-01T00:59:10Z</time>
      </trkpt>
      <trkpt lat="27.92649000" lon="86.80474000">
        <ele>4660.0000</ele>
        <time>2010-01-01T00:59:47Z</time>
      </trkpt>
      <trkpt lat="27.92659000" lon="86.80472000">
        <ele>4662.0000</ele>
        <time>2010-01-01T00:59:55Z</time>
      </trkpt>
      <trkpt lat="27.92676000" lon="86.80476000">
        <ele>4668.0000</ele>
        <time>2010-01-01T01:00:09Z</time>
      </trkpt>
      <trkpt lat="27.92693000" lon="86.80457000">
        <ele>4672.0000</ele>
        <time>2010-01-01T01:00:28Z</time>
      </trkpt>
      <trkpt lat="27.92766000" lon="86.80478000">
        <ele>4698.0000</ele>
        <time>2010-01-01T01:01:29Z</time>
      </trkpt>
      <trkpt lat="27.92804000" lon="86.80476000">
        <ele>4707.0000</ele>
        <time>2010-01-01T01:01:59Z</time>
      </trkpt>
      <trkpt lat="27.92820000" lon="86.80485000">
        <ele>4714.0000</ele>
        <time>2010-01-01T01:02:13Z</time>
      </trkpt>
      <trkpt lat="27.92843000" lon="86.80476000">
        <ele>4720.0000</ele>
        <time>2010-01-01T01:02:33Z</time>
      </trkpt>
      <trkpt lat="27.92874000" lon="86.80495000">
        <ele>4734.0000</ele>
        <time>2010-01-01T01:03:01Z</time>
      </trkpt>
      <trkpt lat="27.92916000" lon="86.80484000">
        <ele>4749.0000</ele>
        <time>2010-01-01T01:03:35Z</time>
      </trkpt>
      <trkpt lat="27.92950000" lon="86.80498000">
        <ele>4764.0000</ele>
        <time>2010-01-01T01:04:04Z</time>
      </trkpt>
      <trkpt lat="27.92974000" lon="86.80486000">
        <ele>4772.0000</ele>
        <time>2010-01-01T01:04:25Z</time>
      </trkpt>
      <trkpt lat="27.93013000" lon="86.80500000">
        <ele>4785.0000</ele>
        <time>2010-01-01T01:04:58Z</time>
      </trkpt>
      <trkpt lat="27.93049000" lon="86.80507000">
        <ele>4799.0000</ele>
        <time>2010-01-01T01:05:27Z</time>
      </trkpt>
      <trkpt lat="27.93080000" lon="86.80502000">
        <ele>4809.0000</ele>
        <time>2010-01-01T01:05:53Z</time>
      </trkpt>
      <trkpt lat="27.93101000" lon="86.80473000">
        <ele>4815.0000</ele>
        <time>2010-01-01T01:06:19Z</time>
      </trkpt>
      <trkpt lat="27.93099000" lon="86.80456000">
        <ele>4812.0000</ele>
        <time>2010-01-01T01:06:31Z</time>
      </trkpt>
      <trkpt lat="27.93161000" lon="86.80445000">
        <ele>4827.0000</ele>
        <time>2010-01-01T01:07:21Z</time>
      </trkpt>
      <trkpt lat="27.93195000" lon="86.80426000">
        <ele>4832.0000</ele>
        <time>2010-01-01T01:07:52Z</time>
      </trkpt>
      <trkpt lat="27.93219000" lon="86.80402000">
        <ele>4834.0000</ele>
        <time>2010-01-01T01:08:17Z</time>
      </trkpt>
      <trkpt lat="27.93253000" lon="86.80396000">
        <ele>4836.0000</ele>
        <time>2010-01-01T01:08:45Z</time>
      </trkpt>
      <trkpt lat="27.93303000" lon="86.80401000">
        <ele>4841.0000</ele>
        <time>2010-01-01T01:09:25Z</time>
      </trkpt>
      <trkpt lat="27.93343000" lon="86.80417000">
        <ele>4845.0000</ele>
        <time>2010-01-01T01:09:59Z</time>
      </trkpt>
      <trkpt lat="27.93360000" lon="86.80441000">
        <ele>4845.0000</ele>
        <time>2010-01-01T01:10:21Z</time>
      </trkpt>
      <trkpt lat="27.93392000" lon="86.80469000">
        <ele>4837.0000</ele>
        <time>2010-01-01T01:10:53Z</time>
      </trkpt>
      <trkpt lat="27.93444000" lon="86.80506000">
        <ele>4826.0000</ele>
        <time>2010-01-01T01:11:42Z</time>
      </trkpt>
      <trkpt lat="27.93491000" lon="86.80561000">
        <ele>4843.0000</ele>
        <time>2010-01-01T01:12:37Z</time>
      </trkpt>
      <trkpt lat="27.93568000" lon="86.80620000">
        <ele>4841.0000</ele>
        <time>2010-01-01T01:13:51Z</time>
      </trkpt>
      <trkpt lat="27.93661000" lon="86.80667000">
        <ele>4842.0000</ele>
        <time>2010-01-01T01:15:13Z</time>
      </trkpt>
      <trkpt lat="27.93737000" lon="86.80664000">
        <ele>4850.0000</ele>
        <time>2010-01-01T01:16:13Z</time>
      </trkpt>
      <trkpt lat="27.93782000" lon="86.80701000">
        <ele>4853.0000</ele>
        <time>2010-01-01T01:16:58Z</time>
      </trkpt>
      <trkpt lat="27.93898000" lon="86.80723000">
        <ele>4865.0000</ele>
        <time>2010-01-01T01:18:32Z</time>
      </trkpt>
      <trkpt lat="27.93978000" lon="86.80756000">
        <ele>4872.0000</ele>
        <time>2010-01-01T01:19:40Z</time>
      </trkpt>
      <trkpt lat="27.93994000" lon="86.80753000">
        <ele>4876.0000</ele>
        <time>2010-01-01T01:19:53Z</time>
      </trkpt>
      <trkpt lat="27.94056000" lon="86.80770000">
        <ele>4877.0000</ele>
        <time>2010-01-01T01:20:44Z</time>
      </trkpt>
      <trkpt lat="27.94186000" lon="86.80835000">
        <ele>4890.0000</ele>
        <time>2010-01-01T01:22:38Z</time>
      </trkpt>
      <trkpt lat="27.94241000" lon="86.80878000">
        <ele>4889.0000</ele>
        <time>2010-01-01T01:23:32Z</time>
      </trkpt>
      <trkpt lat="27.94306000" lon="86.80897000">
        <ele>4903.0000</ele>
        <time>2010-01-01T01:24:25Z</time>
      </trkpt>
      <trkpt lat="27.94346000" lon="86.80928000">
        <ele>4904.0000</ele>
        <time>2010-01-01T01:25:04Z</time>
      </trkpt>
      <trkpt lat="27.94382000" lon="86.80939000">
        <ele>4903.0000</ele>
        <time>2010-01-01T01:25:34Z</time>
      </trkpt>
      <trkpt lat="27.94475000" lon="86.80991000">
        <ele>4901.0000</ele>
        <time>2010-01-01T01:26:57Z</time>
      </trkpt>
      <trkpt lat="27.94559000" lon="86.81016000">
        <ele>4915.0000</ele>
        <time>2010-01-01T01:28:07Z</time>
      </trkpt>
      <trkpt lat="27.94576000" lon="86.81033000">
        <ele>4915.0000</ele>
        <time>2010-01-01T01:28:25Z</time>
      </trkpt>
      <trkpt lat="27.94610000" lon="86.81036000">
        <ele>4915.0000</ele>
        <time>2010-01-01T01:28:52Z</time>
      </trkpt>
      <trkpt lat="27.94644000" lon="86.81031000">
        <ele>4917.0000</ele>
        <time>2010-01-01T01:29:20Z</time>
      </trkpt>
      <trkpt lat="27.94722000" lon="86.81051000">
        <ele>4920.0000</ele>
        <time>2010-01-01T01:30:24Z</time>
      </trkpt>
      <trkpt lat="27.94798000" lon="86.81021000">
        <ele>4925.0000</ele>
        <time>2010-01-01T01:31:28Z</time>
      </trkpt>
    </trkseg>
  </trk>
</gpx>
